[[[{"header":{"parameterUnit":"kt","parameterCategory":2,"dx":1,"dy":1,"la1":29.587661999999998,"la2":31.0,"lo1":-88.76705300000003,"lo2":-86.6583820000003,"nx":115,"ny":88,"refTime":"2022-10-29T00:00:00:Z","depth":0,"parameterNumber":1,"parameterNumberName":"U-component_of_WINDS"},"data":[6.4931,6.5806,6.4783,6.4185,6.3824,6.3006,6.2566,6.2566,6.2566,6.2566,6.2874,6.3639,6.3921,6.3032,6.4273,6.4888,6.4983,6.6125,6.5906,6.539,6.6739,6.7353,6.7688,6.7767,6.782,6.7115,6.628,6.5964,6.5487,6.7129,6.838,6.8612,6.8892,6.9593,6.972,6.9711,7.012,7.0407,7.1293,7.1444,7.1743,7.2083,7.2214,7.2315,7.2401,7.2606,7.2782,7.2899,7.2913,7.2913,7.2913,7.2913,7.2913,7.2913,7.2913,7.2913,7.2913,7.2913,7.2913,7.2913,7.2913,7.2913,7.2913,7.2913,7.2913,7.2913,7.2913,7.2913,7.2998,7.3353,7.4004,7.4232,7.4909,7.6197,7.7249,7.8055,7.8943,7.9902,8.0589,8.0764,8.0851,8.0861,8.0872,8.0872,8.0872,8.0872,8.0872,8.0872,8.0872,8.0872,8.0872,8.0872,8.0872,8.0872,8.0872,8.0872,8.0872,8.0872,8.0872,8.0872,8.0906,8.093,8.1987,8.3534,8.4626,8.6082,8.7298,8.8515,8.8992,8.898,8.9582,8.9753,8.9436,8.8867,8.8253,6.4957,6.5719,6.4764,6.3789,6.2874,6.2663,6.2566,6.2566,6.2566,6.2566,6.2768,6.3789,6.4238,6.4888,6.6144,6.6686,6.7168,6.7484,6.8301,6.8314,6.8426,6.8505,6.8716,6.9006,6.8459,6.7676,6.6859,6.6464,6.6298,6.8241,6.9749,7.0325,7.1414,7.2735,7.3368,7.3089,7.2152,7.2147,7.1671,7.1624,7.2008,7.2419,7.2637,7.2783,7.2841,7.2856,7.2884,7.2913,7.2913,7.2913,7.2913,7.2913,7.2913,7.2913,7.2913,7.2913,7.2913,7.2913,7.2913,7.2913,7.2913,7.2913,7.2913,7.2913,7.2913,7.2913,7.2913,7.2913,7.2913,7.3296,7.4125,7.4774,7.559,7.6563,7.7476,7.8325,7.9334,8.0315,8.0645,8.0829,8.0861,8.0861,8.0872,8.0872,8.0872,8.0872,8.0872,8.0872,8.0872,8.0872,8.0872,8.0872,8.0872,8.0872,8.0872,8.0872,8.0872,8.093,8.1237,8.0998,8.1179,8.2453,8.3579,8.4557,8.6036,8.7764,8.9083,8.9492,8.9628,8.9582,8.9821,8.9787,8.9628,8.9526,8.9321,6.5482,6.5753,6.4764,6.436,6.42,6.3094,6.2566,6.2566,6.2566,6.2566,6.2716,6.3138,6.3763,6.4643,6.5948,6.6438,6.6675,6.7932,6.8407,6.8479,6.8189,6.8742,6.919,6.9289,6.8898,6.8788,6.8031,6.7608,6.7689,6.9458,7.1167,7.1718,7.3861,7.5144,7.534,7.3956,7.2989,7.3541,7.2213,7.2086,7.2522,7.2696,7.287,7.2913,7.2899,7.2899,7.2913,7.2913,7.2913,7.2913,7.2913,7.2913,7.2913,7.2913,7.2913,7.2913,7.2913,7.2913,7.2913,7.2913,7.2913,7.2913,7.2913,7.2913,7.2913,7.3255,7.3255,7.2971,7.2971,7.3955,7.4797,7.5558,7.6352,7.7653,7.8694,7.9242,7.997,8.0612,8.0721,8.0872,8.0872,8.0872,8.0872,8.0872,8.0872,8.0872,8.0872,8.0872,8.0872,8.0872,8.0872,8.0872,8.0872,8.0872,8.0872,8.0872,8.0975,8.1373,8.1738,8.2021,8.2647,8.3966,8.5365,8.6627,8.8037,8.9389,8.9582,8.9684,8.9787,8.9821,8.9821,8.9821,8.9787,8.9753,8.9616,6.5911,6.5832,6.5063,6.5002,6.5218,6.3709,6.29,6.2636,6.2874,6.29,6.2636,6.2716,6.3244,6.4379,6.5553,6.6366,6.657,6.759,6.7623,6.7767,6.7319,6.7781,6.8799,6.8952,6.9517,6.9642,6.9601,6.9087,6.9231,7.1413,7.3438,7.3214,7.5586,7.6999,7.7094,7.4718,7.3864,7.4375,7.3391,7.3023,7.3785,7.3777,7.3315,7.3345,7.2913,7.2913,7.2913,7.2913,7.2913,7.2913,7.2913,7.2913,7.2913,7.2913,7.2913,7.2913,7.2913,7.2913,7.2913,7.2913,7.2913,7.2913,7.2913,7.2913,7.3127,7.3494,7.3565,7.3227,7.348,7.4638,7.5648,7.6423,7.7287,7.8861,8.0304,8.0525,8.0732,8.0829,8.084,8.0872,8.0872,8.0872,8.0872,8.0872,8.0872,8.0872,8.0872,8.0872,8.0872,8.0872,8.0872,8.0872,8.0872,8.0872,8.0872,8.093,8.1339,8.1748,8.2318,8.3216,8.408,8.5718,8.7378,8.8685,8.9231,8.9424,8.9628,8.9753,8.9821,8.9821,8.9821,8.9821,8.9821,8.9821,8.9821,6.5964,6.5971,6.5832,6.5421,6.4555,6.437,6.3666,6.2733,6.38,6.3693,6.2972,6.2725,6.3644,6.5261,6.613,6.6941,6.7844,6.797,6.8133,6.77,6.7186,6.7249,6.81,6.8332,6.9596,7.0711,7.0818,6.9858,7.0548,7.2089,7.3833,7.4489,7.6957,7.8061,7.7632,7.5479,7.469,7.4889,7.4362,7.4179,7.5256,7.5236,7.4653,7.4377,7.3607,7.2913,7.2913,7.2913,7.2913,7.2913,7.2913,7.2913,7.2913,7.2913,7.2913,7.2913,7.2913,7.2913,7.2913,7.2913,7.2913,7.2913,7.2928,7.3098,7.3773,7.4409,7.4313,7.4011,7.4299,7.5322,7.6326,7.7132,7.8187,7.9632,8.0491,8.0753,8.0851,8.0861,8.0872,8.0872,8.0872,8.0872,8.0872,8.0872,8.0872,8.0872,8.0872,8.0872,8.0872,8.0872,8.0872,8.0872,8.0872,8.0872,8.0872,8.1032,8.1544,8.2294,8.2977,8.3898,8.5467,8.7366,8.9321,8.9492,8.9526,8.9662,8.9662,8.9753,8.9821,8.9821,8.9821,8.9821,8.9821,8.9821,8.9821,6.8038,6.8011,6.8011,6.7372,6.631,6.5571,6.5052,6.4778,6.5236,6.5825,6.5922,6.5289,6.6136,6.7626,6.8224,6.8965,6.9943,6.9359,6.8948,6.8638,6.8119,6.7909,6.8244,6.8992,6.996,7.0258,7.0411,7.0364,7.1045,7.243,7.2903,7.3024,7.6872,7.7735,7.7243,7.5889,7.5234,7.5098,7.503,7.529,7.5456,7.5436,7.5021,7.4545,7.353,7.3053,7.2913,7.2913,7.2913,7.2913,7.2913,7.2913,7.2913,7.2913,7.2913,7.2913,7.2913,7.2913,7.2913,7.2913,7.2913,7.3041,7.3492,7.3728,7.4501,7.534,7.5287,7.5045,7.5442,7.5963,7.6894,7.7873,7.9093,8.0271,8.0546,8.0851,8.0872,8.0872,8.0872,8.0872,8.0872,8.0872,8.0872,8.0872,8.0872,8.0872,8.0872,8.0872,8.0872,8.0872,8.0872,8.0872,8.0872,8.0872,8.0872,8.093,8.1817,8.2738,8.3557,8.5024,8.69,8.8424,8.9355,8.9719,8.9821,8.9787,8.9753,8.9787,8.9821,8.9821,8.9821,8.9821,8.9821,8.9821,8.9821,6.9394,6.9394,6.9394,6.8735,6.7616,6.6735,6.6201,6.6037,6.6661,6.7345,6.8226,6.7514,6.788,6.9818,7.027,7.0481,7.0621,7.0569,7.0123,6.9157,6.7995,6.8132,6.8507,6.9164,7.0216,7.0615,7.0789,7.0773,7.1619,7.2216,7.2263,7.1975,7.5494,7.6441,7.605,7.5023,7.524,7.5314,7.5167,7.6053,7.6711,7.6803,7.6111,7.5374,7.4359,7.3376,7.3053,7.2913,7.2913,7.2913,7.2913,7.2913,7.2913,7.2913,7.2913,7.2913,7.2913,7.2913,7.2913,7.2913,7.2913,7.3084,7.4257,7.4697,7.5383,7.6132,7.6852,7.6436,7.6391,7.6957,7.7775,7.8403,7.9255,8.0137,8.0699,8.0861,8.0872,8.0872,8.0872,8.0872,8.0872,8.0872,8.0872,8.0872,8.0872,8.0872,8.0872,8.0872,8.0872,8.0872,8.0872,8.0872,8.0872,8.0872,8.0872,8.093,8.2056,8.3386,8.4387,8.5729,8.7583,8.889,8.9526,8.9821,8.9821,8.9821,8.9821,8.9821,8.9821,8.9821,8.9821,8.9821,8.9821,8.9821,8.9821,6.9434,6.9394,6.9414,6.8839,6.7877,6.8005,6.7196,6.6243,6.7752,6.8587,6.8623,6.8982,6.9276,6.9293,7.0109,7.0228,6.966,7.0512,6.9944,6.887,6.8295,6.8232,6.8587,6.9151,7.0408,7.1458,7.1666,7.1154,7.2406,7.228,7.237,7.2948,7.4636,7.4819,7.4542,7.3904,7.4141,7.5162,7.5517,7.671,7.7922,7.8292,7.7616,7.6695,7.5497,7.4375,7.356,7.3145,7.3083,7.2913,7.2913,7.2913,7.2913,7.2913,7.2913,7.2913,7.2913,7.2913,7.2913,7.2913,7.2913,7.3127,7.4874,7.5804,7.6539,7.7521,7.7809,7.7566,7.7583,7.8112,7.8578,7.9071,7.9575,8.0137,8.0786,8.0851,8.0861,8.0872,8.0872,8.0872,8.0872,8.0872,8.0872,8.0872,8.0872,8.0872,8.0872,8.0872,8.0872,8.0872,8.0872,8.0872,8.0872,8.0872,8.093,8.0998,8.2329,8.5024,8.59,8.6582,8.8219,8.9719,8.9821,8.9821,8.9821,8.9821,8.9821,8.9821,8.9821,8.9821,8.9821,8.9821,8.9821,8.9821,8.9821,7.1525,7.2281,7.1335,7.0688,7.0508,7.1442,7.1189,7.0363,7.0876,7.2182,7.295,7.1994,7.175,7.2528,7.2988,7.2574,7.159,7.26,7.2333,7.0058,6.9504,6.9161,6.9248,6.9845,7.0773,7.1065,7.1143,7.1054,7.1667,7.1173,7.1652,7.2819,7.4179,7.3701,7.27,7.2434,7.2724,7.4192,7.5851,7.6968,7.8058,7.8797,7.8707,7.7908,7.6833,7.5436,7.4545,7.4023,7.3822,7.3145,7.2913,7.2913,7.2913,7.2913,7.2913,7.2913,7.2913,7.2913,7.2957,7.2971,7.3255,7.3324,7.5701,7.666,7.6718,7.8344,7.8545,7.8735,7.9006,7.931,7.9518,7.9801,8.0204,8.0413,8.0861,8.0861,8.0872,8.0872,8.0872,8.0872,8.0872,8.0872,8.0872,8.0872,8.0872,8.0872,8.0872,8.0872,8.0872,8.0872,8.0872,8.0906,8.093,8.1589,8.1862,8.1862,8.3807,8.6434,8.7219,8.7663,8.9094,8.9821,8.9821,8.9821,8.9821,8.9821,8.9821,8.9821,8.9821,8.9821,8.9893,8.9905,8.9821,8.9821,8.9821,7.3118,7.3971,7.2933,7.2794,7.3367,7.3898,7.3374,7.2521,7.3025,7.4338,7.5719,7.5012,7.4612,7.4658,7.456,7.3661,7.2605,7.343,7.3227,7.0947,7.0726,7.0247,7.0082,7.0433,7.0903,7.0949,7.0949,7.0979,7.0949,7.0979,7.1592,7.2071,7.2639,7.2475,7.1473,7.134,7.1686,7.3059,7.5107,7.6724,7.7782,7.895,7.9383,7.8814,7.8,7.6588,7.4899,7.4698,7.4068,7.3053,7.2913,7.2913,7.2913,7.2913,7.2913,7.2913,7.2913,7.2913,7.2957,7.3748,7.4053,7.508,7.657,7.7484,7.7459,7.8865,7.9261,7.9469,7.9607,7.9812,8.0137,8.037,8.0567,8.0818,8.0872,8.0872,8.0872,8.0872,8.0872,8.0872,8.0872,8.0872,8.0872,8.0872,8.0872,8.0872,8.0872,8.0872,8.0872,8.0872,8.1179,8.1213,8.177,8.2476,8.3295,8.3989,8.5661,8.6878,8.7595,8.845,8.9074,8.9684,8.9845,8.9905,8.9869,8.9821,8.9821,8.9821,8.9821,8.9964,9.012,9.0202,9.019,9.0143,9.0049,7.4161,7.4181,7.4171,7.501,7.6086,7.4849,7.3765,7.3378,7.4062,7.5302,7.6551,7.6508,7.5958,7.5226,7.5196,7.382,7.2385,7.2729,7.2396,7.1288,7.0948,7.0934,7.0843,7.0783,7.0949,7.0949,7.0949,7.0964,7.0994,7.1025,7.1009,7.1324,7.167,7.146,7.116,7.1579,7.1876,7.2374,7.5136,7.6129,7.7171,7.9074,7.9459,7.9214,7.8861,7.7862,7.6158,7.5558,7.4652,7.3468,7.3145,7.2913,7.2913,7.2913,7.2913,7.2913,7.2913,7.2971,7.3098,7.4937,7.5956,7.6749,7.7315,7.8121,7.8949,7.94,7.9481,7.9629,7.9891,8.0048,8.0293,8.0524,8.0698,8.0872,8.0872,8.0872,8.0872,8.0872,8.0872,8.0872,8.0872,8.0872,8.0872,8.0872,8.0872,8.0872,8.0872,8.0872,8.0872,8.1111,8.1702,8.2122,8.31,8.4068,8.5342,8.607,8.6583,8.7004,8.7825,8.8899,8.9652,9.0145,9.0177,8.9954,8.9942,8.993,8.987,8.9857,9.0084,9.0319,9.0471,9.0448,9.0563,9.0575,9.0517,7.6332,7.7173,7.6186,7.6606,7.7884,7.7559,7.711,7.6938,7.7112,7.7649,7.7965,7.7098,7.6496,7.6316,7.6107,7.4688,7.3238,7.3297,7.2594,7.1831,7.1188,7.0949,7.0949,7.0979,7.1069,7.0949,7.0964,7.1055,7.1175,7.125,7.134,7.1445,7.1475,7.1624,7.1699,7.1832,7.1891,7.2328,7.3979,7.5075,7.5579,7.7907,7.9091,7.9029,7.9536,7.8738,7.7432,7.6296,7.542,7.4345,7.3591,7.3083,7.2975,7.2913,7.2913,7.2913,7.3014,7.3296,7.3868,7.4792,7.5404,7.7052,7.7987,7.8514,7.8621,7.8996,7.956,7.9721,7.9925,8.0159,8.0381,8.0611,8.084,8.0872,8.0872,8.0872,8.0872,8.0872,8.0872,8.0872,8.0872,8.0872,8.0872,8.0872,8.0872,8.0872,8.0872,8.0872,8.0872,8.1213,8.1986,8.3123,8.4101,8.5672,8.7265,8.7847,8.8305,8.8682,8.9039,8.9909,9.0276,9.0768,9.0963,9.0598,9.0331,9.012,9.0108,9.019,9.0424,9.0667,9.0563,9.0483,9.0667,9.1075,9.1007,7.7867,7.8638,7.77,7.785,7.8705,7.8705,7.8705,7.8705,7.8705,7.8705,7.8642,7.7915,7.7227,7.6838,7.6629,7.5615,7.4015,7.4538,7.379,7.2819,7.2326,7.2146,7.1742,7.1727,7.1413,7.1054,7.107,7.119,7.1445,7.1489,7.1745,7.2513,7.3009,7.2674,7.2115,7.2009,7.2067,7.255,7.3672,7.46,7.5104,7.6956,7.8108,7.8108,7.9076,7.8553,7.7616,7.6941,7.6081,7.5159,7.4713,7.4636,7.4681,7.4021,7.3822,7.3777,7.313,7.3485,7.4181,7.4941,7.5839,7.7273,7.8523,7.9273,7.8775,7.9076,7.9572,7.9846,7.9981,8.0182,8.0436,8.0699,8.0872,8.0872,8.0872,8.0872,8.0872,8.0872,8.0872,8.0872,8.0872,8.0872,8.0872,8.0872,8.0872,8.0872,8.0872,8.0872,8.0872,8.1077,8.2487,8.3693,8.4512,8.59,8.6548,8.8225,9.0019,9.0241,9.0437,9.0735,9.0926,9.14,9.1598,9.1245,9.0906,9.077,9.0678,9.0621,9.0667,9.0815,9.0747,9.0735,9.1086,9.1507,9.1507,7.8705,7.8705,7.8688,7.8672,7.8705,7.8705,7.8705,7.8705,7.8705,7.8705,7.8705,7.8586,7.7945,7.7303,7.7018,7.6346,7.4987,7.4987,7.4732,7.4688,7.4763,7.3896,7.3208,7.2699,7.2326,7.1774,7.1671,7.1837,7.1941,7.2876,7.3509,7.4328,7.431,7.349,7.2868,7.2485,7.2374,7.2722,7.3617,7.4394,7.4884,7.5789,7.6649,7.6695,7.6664,7.6296,7.5191,7.5973,7.5881,7.4976,7.5098,7.5358,7.4943,7.4437,7.4053,7.3869,7.3315,7.3653,7.4752,7.5819,7.7298,7.869,7.9481,7.9412,7.9193,7.9435,7.9663,7.9902,8.0082,8.0248,8.0502,8.0699,8.084,8.0872,8.0872,8.0872,8.0872,8.0872,8.0872,8.0872,8.0872,8.0872,8.0872,8.0872,8.0872,8.0872,8.0872,8.0872,8.0872,8.1043,8.2578,8.4023,8.4808,8.5297,8.5877,8.754,8.962,9.0431,9.0483,9.0776,9.1448,9.187,9.2211,9.1859,9.1443,9.1422,9.1356,9.1454,9.1465,9.1198,9.122,9.154,9.191,9.2049,9.2017,7.8705,7.8705,7.8705,7.8705,7.8705,7.8705,7.8705,7.8705,7.8705,7.8705,7.8705,7.8705,7.8572,7.8273,7.8064,7.7453,7.63,7.627,7.5718,7.5106,7.4823,7.4733,7.4269,7.3493,7.3468,7.4304,7.3328,7.3785,7.4666,7.5412,7.5716,7.6143,7.5636,7.4642,7.3955,7.3311,7.2756,7.2771,7.3271,7.3468,7.3669,7.4729,7.5175,7.5605,7.6127,7.6618,7.6204,7.5912,7.5421,7.4714,7.4668,7.4605,7.4452,7.4144,7.3792,7.3653,7.3441,7.3784,7.5316,7.6647,7.8033,7.8994,7.9481,7.9537,7.956,7.9731,7.9891,8.0004,8.0193,8.0458,8.071,8.0808,8.0872,8.0872,8.0872,8.0872,8.0872,8.0872,8.0872,8.0872,8.0872,8.0872,8.0872,8.0872,8.0872,8.0872,8.0872,8.0872,8.0872,8.0872,8.2374,8.4091,8.4545,8.4566,8.5328,8.669,8.9078,9.0357,9.0199,9.0591,9.1805,9.2452,9.2545,9.2327,9.1953,9.1846,9.1827,9.2158,9.2431,9.2123,9.1985,9.2323,9.2452,9.2524,9.2514,7.8705,7.8705,7.8705,7.8705,7.8705,7.8705,7.8705,7.8705,7.8705,7.8705,7.8705,7.8705,7.8705,7.8692,7.8705,7.829,7.7795,7.7616,7.7154,7.6751,7.6586,7.6273,7.5599,7.5017,7.4564,7.5134,7.5054,7.5698,7.7689,7.8429,7.8154,7.7755,7.7002,7.6173,7.4624,7.4069,7.3515,7.3053,7.2913,7.2913,7.3069,7.3591,7.4007,7.4007,7.4636,7.4912,7.4959,7.4698,7.4913,7.4791,7.4959,7.4589,7.4482,7.4007,7.3729,7.3727,7.3622,7.4433,7.6021,7.7147,7.825,7.9146,7.9606,7.9595,7.9538,7.9709,7.9936,8.0093,8.0326,8.058,8.0786,8.0861,8.0872,8.0872,8.0872,8.0872,8.0872,8.0872,8.0872,8.0872,8.0872,8.0872,8.0872,8.0872,8.0872,8.0872,8.0872,8.0872,8.0872,8.0872,8.2101,8.3806,8.3917,8.4263,8.5362,8.662,8.9291,9.0044,8.9892,9.1186,9.2331,9.271,9.2669,9.2504,9.2302,9.2239,9.2264,9.241,9.2566,9.2648,9.271,9.2648,9.2586,9.2704,9.2704,7.8705,7.8705,7.8705,7.8705,7.8705,7.8705,7.8705,7.8705,7.8705,7.8705,7.8705,7.8705,7.8705,7.8705,7.8705,7.8705,7.8645,7.8526,7.8393,7.8244,7.8244,7.7795,7.7107,7.6928,7.632,7.6559,7.6222,7.7972,7.97,8.0396,8.0074,7.9214,7.8599,7.7847,7.5912,7.5021,7.4239,7.3331,7.2991,7.2913,7.2944,7.296,7.3036,7.3022,7.3159,7.3268,7.3483,7.4037,7.4391,7.4576,7.5528,7.6111,7.6127,7.516,7.476,7.4718,7.4971,7.533,7.6423,7.7558,7.8678,7.9422,7.9709,7.9732,7.9732,7.9857,7.9981,8.0081,8.0392,8.0656,8.0808,8.0861,8.0872,8.0872,8.0872,8.0872,8.0872,8.0872,8.0872,8.0872,8.0872,8.0872,8.0872,8.0872,8.0872,8.0872,8.0872,8.0872,8.0872,8.0872,8.1725,8.2742,8.3078,8.4944,8.6334,8.7689,8.9283,8.9734,9.0593,9.1934,9.2463,9.271,9.271,9.271,9.2679,9.2597,9.2524,9.2535,9.2648,9.271,9.271,9.271,9.271,9.271,9.2699,7.8705,7.8705,7.8705,7.8705,7.8705,7.8705,7.8705,7.8705,7.8705,7.8705,7.8705,7.8705,7.8705,7.8705,7.8705,7.8705,7.8705,7.8722,7.8739,7.8756,7.8789,7.8679,7.8051,7.7609,7.7561,7.8204,7.8047,7.8703,8.053,8.0857,8.0735,8.0228,7.9275,7.8461,7.757,7.5912,7.4945,7.4131,7.3515,7.2944,7.2913,7.2913,7.2913,7.2913,7.2913,7.2913,7.2913,7.3315,7.3407,7.353,7.3653,7.379,7.3653,7.3438,7.3714,7.464,7.6196,7.6989,7.7682,7.843,7.9181,7.9709,7.9834,7.9925,7.997,8.0004,8.0126,8.0359,8.0623,8.0808,8.084,8.0872,8.0872,8.0872,8.0872,8.0872,8.0872,8.0872,8.0872,8.0872,8.0872,8.0872,8.0872,8.0872,8.0872,8.0872,8.0872,8.0872,8.0872,8.0872,8.1086,8.1963,8.3597,8.5671,8.7055,8.8314,8.9899,9.0507,9.1573,9.2252,9.2463,9.271,9.271,9.271,9.271,9.271,9.271,9.2699,9.271,9.271,9.271,9.271,9.271,9.271,9.271,7.8705,7.8705,7.8705,7.8705,7.8705,7.8705,7.8705,7.8705,7.8705,7.8705,7.8705,7.8705,7.8705,7.8705,7.8705,7.8705,7.8789,7.889,7.899,7.9057,7.9203,7.93,7.9153,7.8671,7.9181,7.9552,7.9518,7.9778,8.0748,8.0841,8.0827,8.0689,8.029,7.9536,7.8569,7.6849,7.5636,7.4577,7.3607,7.2913,7.2913,7.2913,7.2913,7.2913,7.2913,7.2913,7.2913,7.2913,7.2913,7.2913,7.2913,7.2913,7.3289,7.3836,7.4792,7.5455,7.6774,7.7723,7.7939,7.882,7.9595,7.9845,7.9959,8.0049,8.0082,8.0227,8.0315,8.0503,8.0699,8.0872,8.0872,8.0872,8.0872,8.0872,8.0872,8.0872,8.0872,8.0872,8.0872,8.0872,8.1009,8.1111,8.1009,8.1111,8.094,8.0872,8.0872,8.0872,8.0872,8.0872,8.0872,8.2346,8.449,8.605,8.6894,8.9198,9.1412,9.1845,9.2463,9.2393,9.2534,9.2674,9.271,9.271,9.271,9.271,9.271,9.271,9.271,9.271,9.271,9.271,9.271,9.271,9.271,7.8705,7.8705,7.8705,7.8705,7.8705,7.8705,7.8705,7.8705,7.8705,7.8705,7.8705,7.8705,7.8705,7.8705,7.8705,7.8705,7.8789,7.9073,7.924,7.9306,7.9601,7.9794,7.9777,7.9535,7.9921,8.0308,8.0315,8.0399,8.0809,8.0857,8.0857,8.0857,8.0765,8.0335,7.9214,7.7878,7.6603,7.5421,7.4115,7.3206,7.2991,7.2913,7.2913,7.2913,7.2913,7.2913,7.2913,7.2913,7.2913,7.2928,7.3069,7.3312,7.3941,7.5402,7.6229,7.666,7.7583,7.8253,7.8301,7.9053,7.956,7.988,8.0026,8.0082,8.0259,8.0448,8.0558,8.0634,8.0753,8.0872,8.0872,8.0872,8.0872,8.0872,8.0872,8.0872,8.0872,8.0872,8.0872,8.093,8.1248,8.1452,8.1896,8.2135,8.2066,8.2066,8.1919,8.1783,8.1203,8.0872,8.1249,8.3186,8.5227,8.6058,8.6761,8.9653,9.1437,9.1397,9.1759,9.1689,9.2393,9.2604,9.271,9.271,9.271,9.271,9.271,9.271,9.271,9.271,9.271,9.271,9.271,9.271,9.271,7.8705,7.8705,7.8705,7.8705,7.8705,7.8705,7.8705,7.8705,7.8705,7.8705,7.8705,7.8705,7.8705,7.8705,7.8705,7.8705,7.8806,7.909,7.934,7.9422,7.9829,7.9977,7.9977,8.0026,8.0241,8.0729,8.0699,8.0745,8.0841,8.0857,8.0857,8.0857,8.0857,8.0626,8.0304,7.9214,7.7739,7.6342,7.5083,7.4115,7.3114,7.3022,7.2991,7.293,7.2913,7.2913,7.2913,7.2913,7.2957,7.2957,7.3725,7.4675,7.568,7.685,7.7513,7.755,7.8466,7.8949,7.9066,7.9354,7.9676,8.0037,8.0082,8.0259,8.06,8.0743,8.0775,8.0797,8.0808,8.0872,8.0872,8.0872,8.0872,8.0872,8.0872,8.0872,8.0872,8.0872,8.1179,8.1305,8.2192,8.2749,8.309,8.3329,8.3295,8.3216,8.2966,8.2556,8.1476,8.1082,8.2295,8.4003,8.5282,8.6202,8.6806,8.9004,8.9497,8.9823,9.0598,9.1231,9.2217,9.2287,9.2322,9.2463,9.271,9.271,9.271,9.271,9.271,9.271,9.271,9.271,9.271,9.271,9.271,7.8705,7.8705,7.8705,7.8705,7.8705,7.8705,7.8705,7.8705,7.8705,7.8705,7.8705,7.8705,7.8705,7.8705,7.8705,7.8705,7.8772,7.8923,7.9207,7.9684,8.0175,8.0403,8.0403,8.0468,8.0518,8.0761,8.0857,8.0857,8.0857,8.0857,8.0857,8.0857,8.0857,8.0857,8.0673,7.9536,7.8277,7.6956,7.6127,7.4852,7.3407,7.3484,7.373,7.3053,7.2913,7.2913,7.2913,7.2913,7.3196,7.3976,7.5285,7.6499,7.7115,7.8024,7.8609,7.8692,7.9251,7.9446,7.956,7.9629,7.9801,8.007,8.0238,8.0491,8.0753,8.0872,8.0872,8.0872,8.0872,8.0872,8.0872,8.0872,8.0872,8.0872,8.0872,8.0872,8.1145,8.2305,8.3227,8.3431,8.3727,8.4182,8.4387,8.4592,8.4455,8.3295,8.3079,8.2699,8.1605,8.1537,8.2888,8.3794,8.5106,8.6013,8.6595,8.7052,8.7616,8.8179,8.8908,8.9964,9.0914,9.1302,9.1759,9.2312,9.2664,9.271,9.271,9.271,9.271,9.271,9.271,9.271,9.271,9.271,9.271,7.9038,7.8705,7.8705,7.8705,7.8705,7.8705,7.8705,7.8705,7.8705,7.8705,7.8705,7.8705,7.8705,7.8705,7.8705,7.8772,7.892,7.894,7.924,7.9993,8.0631,8.0825,8.0825,8.084,8.0857,8.0857,8.0857,8.0857,8.0857,8.0857,8.0857,8.0857,8.0857,8.0857,8.0765,7.9905,7.863,7.7478,7.7279,7.6096,7.4576,7.453,7.4299,7.3515,7.3083,7.296,7.2913,7.3112,7.3882,7.5205,7.6671,7.7686,7.8169,7.8938,7.9354,7.9389,7.9458,7.9515,7.9606,7.9788,7.997,8.0182,8.0359,8.059,8.0829,8.0872,8.0872,8.0872,8.0872,8.0872,8.093,8.1134,8.1476,8.168,8.1851,8.2066,8.2226,8.3875,8.4694,8.4899,8.5183,8.5547,8.4865,8.5138,8.5081,8.3579,8.2984,8.2647,8.229,8.1912,8.2492,8.2973,8.4038,8.4659,8.509,8.5346,8.5769,8.6182,8.7052,8.8038,8.8812,8.9376,9.0457,9.1372,9.2347,9.2699,9.271,9.271,9.271,9.271,9.271,9.271,9.271,9.271,9.271,7.9892,7.8735,7.8705,7.8705,7.8705,7.8705,7.8705,7.8705,7.8705,7.8705,7.8705,7.8705,7.8705,7.8705,7.8722,7.8923,7.9223,7.919,7.9637,8.0178,8.0599,8.0841,8.0841,8.0857,8.0857,8.0857,8.0857,8.0857,8.0857,8.0857,8.0857,8.0857,8.0857,8.0857,8.0765,8.0673,7.9889,7.8799,7.8569,7.7739,7.6234,7.5478,7.5032,7.4402,7.3588,7.3086,7.311,7.3795,7.5119,7.727,7.7624,7.8313,7.917,7.9331,7.9481,7.9481,7.9537,7.9618,7.98,7.9846,8.0049,8.0349,8.047,8.0601,8.0797,8.0872,8.0872,8.0872,8.0872,8.0964,8.1158,8.2147,8.2693,8.3068,8.4114,8.4705,8.4944,8.5115,8.4796,8.3773,8.5991,8.5718,8.5126,8.5263,8.6332,8.3693,8.3352,8.2805,8.2192,8.2324,8.2689,8.2858,8.312,8.3515,8.3691,8.3842,8.4255,8.4607,8.5619,8.6313,8.7097,8.8566,8.9401,9.0527,9.2041,9.271,9.271,9.271,9.271,9.271,9.271,9.271,9.271,9.271,9.271,8.0537,7.9875,7.9081,7.8705,7.8705,7.8705,7.8705,7.8705,7.8705,7.8705,7.8705,7.8705,7.8705,7.8705,7.8752,7.894,7.9273,7.9306,7.9673,8.0245,8.0471,8.0665,8.0825,8.0857,8.0857,8.0857,8.0857,8.0857,8.0857,8.0857,8.0857,8.0857,8.0857,8.0857,8.0857,8.0827,8.0212,7.9306,7.9644,7.8937,7.7063,7.6878,7.6305,7.489,7.4236,7.3449,7.3067,7.3907,7.5484,7.7344,7.8385,7.8949,7.9435,7.9481,7.9481,7.9481,7.9641,7.9766,7.9902,8.0105,8.0316,8.0448,8.0634,8.0753,8.084,8.0872,8.0872,8.0872,8.0872,8.1305,8.2045,8.2761,8.3523,8.441,8.5786,8.6969,8.7878,8.7037,8.6389,8.6252,8.673,8.6775,8.491,8.5479,8.5058,8.3919,8.3435,8.2853,8.2233,8.2848,8.3292,8.3209,8.3355,8.3445,8.3551,8.363,8.3903,8.3868,8.4572,8.4914,8.6323,8.8355,8.9728,9.1302,9.2111,9.271,9.271,9.271,9.271,9.271,9.271,9.271,9.271,9.271,9.271,8.0956,8.0221,7.9157,7.8705,7.8705,7.8705,7.8705,7.8705,7.8705,7.8705,7.8705,7.8705,7.8772,7.889,7.889,7.914,7.9491,7.9604,7.9902,8.0374,8.0439,8.0633,8.0809,8.0857,8.0857,8.0857,8.0857,8.0857,8.0857,8.0857,8.0857,8.0857,8.0857,8.0857,8.0857,8.0857,8.0319,7.9689,8.0411,7.9739,7.8135,7.8321,7.7547,7.5785,7.5207,7.456,7.3983,7.4511,7.5839,7.7661,7.89,7.9481,7.9469,7.9481,7.9549,7.9618,7.98,7.9913,8.006,8.0294,8.0469,8.058,8.0743,8.0861,8.0872,8.0872,8.0872,8.0872,8.0861,8.1476,8.2738,8.2795,8.383,8.549,8.6343,8.731,8.8322,8.7981,8.7048,8.7048,8.6889,8.5866,8.4557,8.425,8.417,8.3116,8.2919,8.2969,8.2681,8.3047,8.3375,8.3375,8.3375,8.3375,8.341,8.341,8.341,8.341,8.3797,8.4351,8.6147,8.8224,9.015,9.1055,9.0572,9.1126,9.1618,9.2041,9.2604,9.2664,9.271,9.271,9.271,9.271,9.271,8.1208,7.8948,7.8735,7.8705,7.8705,7.8705,7.8705,7.8705,7.8705,7.8705,7.8722,7.8756,7.894,7.9223,7.9303,7.9574,8.0131,8.0147,8.0374,8.0681,8.0777,8.0793,8.0857,8.0857,8.0857,8.0857,8.0857,8.0857,8.0857,8.0857,8.0857,8.0857,8.0857,8.0857,8.0905,8.0905,8.091,8.0804,8.0942,8.0953,8.0386,7.9348,7.8366,7.7896,7.6745,7.5969,7.5733,7.606,7.6743,7.7735,7.8902,7.9481,7.9481,7.9481,7.9629,7.9834,7.9902,8.0049,8.0316,8.0481,8.059,8.0775,8.084,8.0872,8.0872,8.0872,8.0872,8.0872,8.0872,8.1499,8.2522,8.2181,8.3329,8.6412,8.6139,8.6093,8.7321,8.6377,8.5581,8.5479,8.5308,8.4455,8.1987,8.268,8.2626,8.2103,8.2167,8.2576,8.2681,8.301,8.3327,8.341,8.341,8.341,8.341,8.341,8.341,8.3551,8.3973,8.4889,8.6323,8.8189,9.009,8.8893,8.8179,8.9164,8.9868,9.0326,9.0844,9.1442,9.2031,9.2604,9.271,9.2664,9.2664,8.1734,8.0025,7.9111,7.8705,7.8705,7.8705,7.8705,7.8705,7.8705,7.8705,7.8772,7.8973,7.919,7.934,7.9568,7.9884,8.0245,8.0277,8.0504,8.0809,8.0857,8.0857,8.0857,8.0857,8.0857,8.0857,8.0857,8.0857,8.0857,8.0857,8.0857,8.0857,8.0857,8.0857,8.0921,8.1635,8.2072,8.2196,8.2762,8.3154,8.2764,8.1512,8.0355,7.9376,7.7969,7.6917,7.6352,7.7558,7.8464,7.8844,7.9216,7.9469,7.9481,7.9526,7.9629,7.9857,7.9992,8.0171,8.0448,8.0634,8.0775,8.0829,8.0872,8.0872,8.0872,8.0872,8.0872,8.0872,8.0861,8.1521,8.2806,8.2567,8.3454,8.5957,8.4853,8.4342,8.4546,8.4319,8.4046,8.408,8.4012,8.2988,8.1585,8.1693,8.182,8.1731,8.2105,8.2652,8.272,8.3085,8.3281,8.341,8.341,8.341,8.341,8.341,8.341,8.3691,8.4149,8.5231,8.6191,8.7917,8.8656,8.7484,8.6851,8.7862,8.8425,8.8812,8.92,8.9753,9.0377,9.0879,9.1372,9.1689,9.19,8.1418,8.0102,7.9141,7.8705,7.8705,7.8705,7.8705,7.8752,7.8856,7.8876,7.902,7.9336,7.9538,7.967,7.9898,8.0192,8.0455,8.0488,8.0617,8.0809,8.0857,8.0857,8.0857,8.0857,8.0857,8.0857,8.0857,8.0857,8.0857,8.0857,8.0857,8.0857,8.0857,8.1065,8.1557,8.2319,8.3051,8.3333,8.3761,8.385,8.3629,8.2179,8.0922,8.0062,7.8931,7.802,7.7368,7.8666,7.9446,7.9446,7.9481,7.9515,7.9606,7.9606,7.9766,8.006,8.0171,8.0326,8.0546,8.0764,8.0861,8.0872,8.0872,8.0872,8.0872,8.0872,8.0872,8.0872,8.0906,8.151,8.2693,8.2795,8.2772,8.3841,8.3079,8.2488,8.2647,8.2966,8.3125,8.3181,8.2783,8.2066,8.1244,8.1224,8.1596,8.1751,8.2324,8.2845,8.2886,8.3216,8.3356,8.341,8.341,8.341,8.341,8.341,8.341,8.3586,8.4351,8.5407,8.6086,8.7107,8.7177,8.6755,8.6358,8.656,8.7052,8.7475,8.7862,8.8345,8.8908,8.9331,8.9683,8.9964,9.0211,8.0102,7.8931,7.8735,7.8722,7.8772,7.8772,7.8739,7.8886,7.9157,7.929,7.934,7.9714,7.9979,8.0196,8.0261,8.0471,8.0761,8.0793,8.0889,8.1049,8.1017,8.1033,8.1146,8.1114,8.105,8.1065,8.0953,8.0953,8.1146,8.1098,8.1145,8.1033,8.1209,8.1823,8.2779,8.3082,8.3575,8.4121,8.3509,8.2766,8.199,8.1009,8.0089,7.9758,7.9475,7.9308,7.9331,7.9423,7.9481,7.9481,7.9481,7.9629,7.9788,7.9834,8.0049,8.0349,8.0459,8.059,8.0808,8.0851,8.0872,8.0872,8.0872,8.0872,8.0872,8.0872,8.0872,8.0872,8.093,8.1396,8.2465,8.1885,8.1213,8.0975,8.1282,8.1134,8.1305,8.2249,8.3125,8.2863,8.1964,8.0998,8.0937,8.1253,8.1655,8.2085,8.2549,8.2953,8.3234,8.3345,8.341,8.341,8.341,8.341,8.341,8.341,8.341,8.3586,8.4562,8.5196,8.5839,8.5522,8.5558,8.5593,8.5196,8.509,8.5548,8.5795,8.6208,8.6665,8.7475,8.8003,8.8355,8.8646,8.8777,8.0042,7.8825,7.8705,7.8856,7.9107,7.9123,7.927,7.9502,7.9648,7.9698,7.978,8.0014,8.0226,8.031,8.0522,8.0792,8.0841,8.0857,8.1336,8.2103,8.2181,8.2595,8.3108,8.2564,8.2181,8.2181,8.2181,8.2626,8.3183,8.258,8.2641,8.3273,8.3378,8.3571,8.4043,8.4904,8.5443,8.5703,8.5252,8.4824,8.4491,8.2376,8.1036,8.0831,8.0017,7.9481,7.9481,7.9481,7.9481,7.9481,7.9481,7.956,7.9618,7.9788,8.0082,8.0415,8.0492,8.059,8.0829,8.0872,8.0872,8.0872,8.0872,8.0872,8.0872,8.0872,8.0872,8.0872,8.0872,8.0964,8.1396,8.1203,8.0872,8.0872,8.0872,8.0872,8.0906,8.135,8.1623,8.1623,8.1179,8.0896,8.0947,8.1559,8.1989,8.2189,8.281,8.3216,8.3373,8.341,8.341,8.341,8.341,8.341,8.341,8.341,8.341,8.3938,8.4809,8.495,8.509,8.429,8.3938,8.4008,8.3964,8.3823,8.3893,8.407,8.4351,8.4703,8.5548,8.6463,8.6745,8.7203,8.7555,7.9546,7.8722,7.8873,7.914,7.9519,7.9519,7.9634,7.9895,7.9977,8.0012,8.0078,8.0342,8.0504,8.0504,8.0745,8.0857,8.0857,8.0857,8.1335,8.2057,8.2596,8.3201,8.3884,8.3648,8.3409,8.3424,8.3424,8.3823,8.4407,8.3825,8.384,8.448,8.4534,8.4825,8.5312,8.6116,8.6769,8.6939,8.584,8.5362,8.4969,8.2432,8.0844,8.0811,7.995,7.9481,7.9481,7.9481,7.9481,7.9481,7.9481,7.9527,7.9573,7.9329,7.9394,7.9787,7.9852,8.0154,8.0738,8.0872,8.0872,8.0872,8.0872,8.0872,8.0872,8.0872,8.0872,8.0872,8.0872,8.0872,8.0872,8.0872,8.0872,8.0872,8.0872,8.0872,8.0872,8.0872,8.0872,8.0872,8.0872,8.0937,8.119,8.1822,8.2368,8.2486,8.2981,8.3336,8.341,8.341,8.341,8.341,8.341,8.341,8.341,8.341,8.3551,8.4184,8.4457,8.4431,8.436,8.3656,8.348,8.3691,8.3621,8.3551,8.3586,8.3727,8.3691,8.3973,8.4149,8.4853,8.487,8.5161,8.5795,7.8739,7.8836,7.9173,7.9535,7.9895,7.9925,7.9942,8.0026,8.021,8.0295,8.0389,8.0697,8.0765,8.0488,8.0381,8.0674,8.0832,8.071,8.0931,8.1683,8.2501,8.2941,8.3096,8.4087,8.462,8.4653,8.4685,8.4624,8.4566,8.4609,8.462,8.4778,8.4907,8.5439,8.639,8.6641,8.7112,8.7517,8.5434,8.3965,8.3563,8.1035,7.9581,7.9615,7.9514,7.9481,7.9481,7.9481,7.9481,7.9481,7.9526,7.9663,7.9756,7.8676,7.8225,7.8651,7.8712,7.9303,8.0316,8.0691,8.077,8.0702,8.0725,8.0872,8.0872,8.0872,8.0872,8.0838,8.0531,8.036,8.0326,8.0111,8.0281,8.0316,8.0486,8.0497,8.0633,8.0394,8.0623,8.0838,8.0667,8.0762,8.1334,8.21,8.2549,8.2791,8.3141,8.341,8.341,8.341,8.341,8.341,8.341,8.341,8.341,8.341,8.341,8.3621,8.3762,8.3515,8.3445,8.341,8.341,8.341,8.341,8.341,8.341,8.341,8.341,8.348,8.3701,8.3736,8.3973,8.3621,8.3903,7.914,7.9207,7.9599,7.9914,8.0178,8.0178,8.034,8.0615,8.0696,8.0713,8.0729,8.0809,7.9782,7.8077,7.7908,7.8971,8.0416,7.962,8.1181,8.4678,8.411,8.4863,8.6556,8.6328,8.5945,8.5931,8.5913,8.5434,8.471,8.5485,8.6418,8.7151,8.7231,8.7423,8.7732,8.7771,8.744,8.6653,8.4947,8.3405,8.2197,8.0465,7.9481,7.9481,7.9481,7.9481,7.9481,7.9481,7.9481,7.9481,7.9697,7.9823,7.9857,7.8664,7.8004,7.8154,7.8327,7.8237,7.7678,7.9633,8.0429,7.9563,8.0292,8.0872,8.0872,8.0872,8.0872,8.0633,7.8848,7.7712,7.761,7.7599,7.761,7.761,7.7654,7.8132,7.904,7.8211,7.8497,8.0394,7.9825,7.9728,8.0828,8.1785,8.2487,8.2686,8.3106,8.341,8.341,8.341,8.341,8.341,8.341,8.341,8.341,8.341,8.341,8.341,8.341,8.341,8.341,8.341,8.341,8.341,8.341,8.341,8.341,8.341,8.341,8.341,8.3445,8.348,8.341,8.341,8.341,7.7875,7.7923,7.8276,7.8612,7.8836,7.8852,7.8978,7.9199,7.9168,7.9199,7.9246,7.9728,7.9045,7.7572,7.7966,7.8401,7.9063,7.8727,8.0307,8.2966,8.2851,8.3664,8.5563,8.5461,8.5813,8.629,8.631,8.625,8.6218,8.6797,8.7542,8.8193,8.8291,8.8291,8.8224,8.7667,8.6989,8.6066,8.4075,8.2264,8.0856,7.9917,7.9481,7.9481,7.9481,7.9481,7.9447,7.8877,7.853,7.8553,7.8196,7.8061,7.8072,7.6829,7.6188,7.6304,7.643,7.6483,7.6406,7.7995,7.8654,7.7856,7.8541,7.9008,7.9043,7.9019,7.9043,7.8838,7.7439,7.6416,7.645,7.6416,7.6416,7.6416,7.6416,7.6767,7.7685,7.6972,7.6972,7.861,7.8313,7.8328,7.9675,8.0213,8.069,8.1768,8.2835,8.3365,8.341,8.341,8.341,8.341,8.341,8.341,8.341,8.341,8.341,8.341,8.341,8.341,8.341,8.341,8.341,8.341,8.341,8.341,8.341,8.341,8.341,8.341,8.341,8.341,8.341,8.341,8.341,7.5924,7.5925,7.6372,7.6604,7.6849,7.6849,7.6864,7.6879,7.6787,7.6771,7.6929,7.7844,7.8275,7.8465,7.9178,7.8737,7.7471,7.8078,7.8806,7.9429,8.0024,8.1051,8.2516,8.3496,8.4691,8.5727,8.587,8.6373,8.7329,8.7578,8.7742,8.7856,8.7868,8.7722,8.7654,8.6544,8.5832,8.5618,8.2902,8.0822,7.9581,7.9481,7.9481,7.9481,7.9481,7.9447,7.9134,7.7927,7.7145,7.6954,7.6033,7.5512,7.542,7.4252,7.3623,7.3889,7.374,7.4398,7.5966,7.6293,7.6406,7.6211,7.6406,7.6586,7.6552,7.6177,7.5982,7.5948,7.5938,7.5734,7.5972,7.5846,7.5675,7.5573,7.5675,7.6065,7.6051,7.6065,7.6143,7.6313,7.6426,7.6711,7.7925,7.8152,7.8326,7.972,8.1743,8.341,8.341,8.341,8.341,8.341,8.341,8.341,8.341,8.341,8.341,8.341,8.341,8.341,8.341,8.341,8.341,8.341,8.341,8.341,8.341,8.341,8.341,8.341,8.341,8.341,8.341,8.341,8.341,7.6265,7.625,7.6589,7.6742,7.6756,7.6756,7.6756,7.6756,7.6756,7.6607,7.6382,7.6586,7.6706,7.672,7.6972,7.7908,7.9085,7.8364,7.9658,8.2413,8.1794,8.2128,8.3477,8.3774,8.4133,8.4435,8.4469,8.4624,8.488,8.4914,8.4935,8.4947,8.4935,8.4947,8.4914,8.4624,8.3841,8.2621,8.0923,7.9816,7.9526,7.9481,7.9481,7.9481,7.9481,7.8911,7.7759,7.7368,7.6753,7.5876,7.557,7.552,7.563,7.4296,7.3491,7.345,7.2645,7.2764,7.433,7.5663,7.587,7.4754,7.5699,7.6416,7.6211,7.4286,7.2941,7.2951,7.3034,7.3034,7.3077,7.3009,7.2951,7.2941,7.2951,7.3477,7.4276,7.357,7.3716,7.5836,7.5334,7.4896,7.5911,7.7734,7.8591,7.8053,8.0691,8.3206,8.341,8.341,8.341,8.341,8.341,8.341,8.341,8.341,8.341,8.341,8.341,8.341,8.341,8.341,8.341,8.341,8.341,8.341,8.341,8.341,8.341,8.341,8.341,8.341,8.341,8.341,8.3428,7.4828,7.4872,7.5459,7.5703,7.5777,7.631,7.6506,7.6506,7.6538,7.665,7.6857,7.6908,7.6933,7.6926,7.748,7.7955,7.8276,7.7944,7.8967,8.0986,8.0267,8.0595,8.1838,8.1907,8.2276,8.2868,8.2902,8.3249,8.392,8.4011,8.4011,8.4011,8.4011,8.4011,8.3944,8.3249,8.2499,8.1615,7.9536,7.843,7.8463,7.8441,7.8475,7.8419,7.843,7.8039,7.7223,7.5915,7.4939,7.4369,7.3834,7.3546,7.3564,7.2959,7.2579,7.2465,7.1903,7.1948,7.2912,7.3828,7.3935,7.3204,7.3877,7.433,7.4355,7.2838,7.1892,7.1892,7.1892,7.1892,7.1892,7.1892,7.1892,7.1892,7.1892,7.2268,7.2829,7.2326,7.2575,7.3921,7.358,7.3882,7.5872,7.6969,7.7529,7.9441,8.0417,8.2312,8.3251,8.341,8.341,8.341,8.341,8.341,8.341,8.341,8.341,8.341,8.341,8.341,8.341,8.341,8.341,8.341,8.341,8.341,8.341,8.341,8.341,8.341,8.341,8.341,8.341,8.341,8.3575,7.3014,7.3198,7.407,7.4561,7.4779,7.5785,7.6164,7.6223,7.6545,7.716,7.8,7.7979,7.8,7.8072,7.9053,7.8452,7.6775,7.7608,7.7979,7.7979,7.8012,7.8538,7.9458,7.9481,8.0152,8.128,8.1325,8.2063,8.3215,8.3328,8.3362,8.3328,8.3362,8.3328,8.3215,8.1996,8.1347,8.128,7.8787,7.7513,7.748,7.748,7.7312,7.6932,7.7077,7.6932,7.6228,7.4071,7.2767,7.2525,7.1551,7.0905,7.0752,7.1035,7.1278,7.1378,7.1501,7.1696,7.1917,7.1892,7.1892,7.1892,7.1892,7.1856,7.1799,7.1774,7.1871,7.2198,7.2273,7.2189,7.2232,7.2288,7.2291,7.2288,7.2251,7.2176,7.2135,7.2167,7.2226,7.2274,7.2025,7.3534,7.6371,7.6309,7.7586,8.1302,8.1815,8.1593,8.2994,8.341,8.341,8.341,8.341,8.341,8.341,8.341,8.341,8.341,8.341,8.3402,8.3574,8.3475,8.3465,8.3538,8.3448,8.3428,8.341,8.341,8.3474,8.3566,8.3601,8.3602,8.3737,8.3556,8.3612,7.3393,7.4177,7.437,7.5022,7.5936,7.6118,7.6164,7.6326,7.815,0.0,0.0,7.9181,7.9181,7.9226,7.9389,7.9296,7.8936,7.9111,7.9215,7.9181,7.9181,7.9274,7.9481,7.9481,7.966,7.9883,7.9883,8.0017,8.0297,8.0297,8.0286,8.0286,8.0319,8.0331,8.0252,7.9984,7.985,7.985,7.9335,7.9123,7.9078,7.9067,7.7905,7.5479,7.6541,7.5468,7.1904,7.2451,7.1899,6.9858,6.9322,6.9288,6.9631,6.975,7.026,7.1385,7.1744,7.1898,7.1892,7.1892,7.1892,7.1892,7.1892,7.1674,7.117,7.1023,7.169,7.3543,7.3725,7.3639,7.3699,7.3647,7.369,7.369,7.369,7.3349,7.2816,7.2992,7.2887,7.2529,7.2684,7.3638,7.5676,7.6859,7.8684,8.0642,8.1994,8.3082,8.3295,8.3341,8.3307,8.3466,8.3566,8.3483,8.3428,8.3456,8.341,8.3428,8.341,8.3548,8.3852,8.3683,8.3602,8.3896,8.3665,8.343,8.341,8.341,8.3574,8.3931,8.4027,8.4157,8.447,8.4036,8.3593,7.3489,7.4489,7.5089,7.5976,0.0,7.7595,7.7027,7.5682,7.6772,7.7234,7.7267,7.7223,7.7223,7.7267,7.7223,7.7223,7.7267,7.8005,7.8318,7.8363,7.9157,7.9481,7.9481,7.9481,7.9481,7.9481,7.9481,7.9481,7.9481,7.9481,7.9481,7.9481,7.9481,7.9101,7.8363,7.9112,7.9481,7.9481,7.871,7.8329,7.8341,7.8329,7.7267,7.5144,7.5714,0.0,0.0,0.0,0.0,0.0,0.0,0.0,0.0,6.8346,0.0,6.6966,6.5096,6.3956,6.3964,6.4023,6.5066,6.7306,6.7573,6.7174,6.6176,6.8387,6.9451,6.8812,7.0182,7.111,7.1085,7.0871,7.0847,7.1052,7.0987,7.0795,7.0547,7.1557,7.2265,7.2063,7.3005,7.4469,7.6175,7.7109,7.8393,8.077,8.1818,8.2432,8.3146,8.2782,8.2859,8.3825,8.4226,8.4363,8.4054,8.3958,8.3878,8.3501,8.341,8.3538,8.371,8.3566,8.3492,8.3683,8.3575,8.341,8.341,8.341,8.3466,8.3719,8.3755,8.397,8.4418,8.4788,8.4985,7.3019,7.4069,7.5218,7.6315,7.7319,7.8265,7.7267,7.5032,7.5032,7.5032,7.5032,7.5032,7.5032,7.5032,7.5032,7.5032,7.5066,7.625,7.6765,7.6809,7.8061,7.8765,7.9078,7.9078,7.9235,7.9481,7.9481,7.9481,7.9481,7.9481,7.9481,7.9481,7.9481,7.8866,7.7714,0.0,0.0,0.0,7.8106,7.7614,7.7603,7.7625,7.6664,7.4762,7.4931,0.0,7.2222,7.112,7.0554,7.0507,7.075,0.0,0.0,0.0,0.0,0.0,0.0,0.0,0.0,0.0,0.0,0.0,6.0971,6.0651,6.0295,6.4682,6.6304,6.3466,6.6575,6.8583,6.7934,6.8047,6.8379,6.8804,6.8702,6.8483,6.8462,7.012,7.1224,7.1094,7.2547,7.4422,7.6298,7.6441,7.7492,8.0691,8.1073,8.114,8.173,8.1467,8.2181,8.4081,8.422,8.4183,8.3798,8.3596,8.3311,8.3443,8.3058,8.2523,8.2507,8.2365,8.2151,8.2729,8.2815,8.2768,8.2931,8.2817,8.2746,8.3126,8.3259,8.3384,8.3415,8.4369,8.5387,7.1194,7.2363,7.3394,7.4424,7.5382,7.5569,7.5412,7.5032,7.5032,7.5032,7.5032,7.5032,7.5032,7.5032,7.5032,7.5032,7.5032,7.5244,7.5311,7.5311,7.5479,7.625,7.748,7.7446,7.8184,7.9436,7.9481,7.9481,7.9481,7.9481,7.9481,7.9481,7.9481,7.9402,7.9168,7.805,7.748,7.748,7.8598,7.9213,7.9213,7.9224,7.7346,7.3633,7.4448,7.3261,6.9569,7.0128,7.0061,6.9006,6.9144,6.9433,6.9571,6.8069,6.5278,0.0,6.0488,0.0,0.0,0.0,0.0,0.0,0.0,0.0,0.0,6.0166,6.2828,6.19,6.7377,6.9784,6.6959,6.9197,7.0905,7.1074,7.1074,7.0849,7.0302,7.0747,7.0824,6.9898,7.0368,7.1874,7.4732,7.4822,7.601,7.9461,7.9775,7.8749,7.7391,7.9183,8.1748,8.4526,8.2705,8.1395,8.117,8.099,8.1537,8.2708,8.1324,7.9552,8.0086,7.9139,7.87,8.0291,8.0807,8.0954,8.1427,8.0997,8.0987,8.2148,8.2619,8.2372,8.1067,8.093,8.1408,7.1718,7.2817,7.3285,7.2168,7.0191,7.0181,7.0171,7.0191,7.0191,7.0171,7.0191,7.0171,7.0181,7.0201,7.0181,7.0181,7.0325,7.1858,7.2551,7.2652,7.4261,7.5379,7.5982,7.5982,7.6362,7.7033,7.7189,7.7144,7.7044,7.7189,7.7569,7.8206,7.7435,7.6316,7.4987,7.5827,7.631,7.631,7.6994,7.732,7.7331,7.7354,7.5973,7.3214,7.3635,7.2641,6.99,7.0279,6.9984,6.8679,6.8849,6.8722,6.8012,6.2149,5.8922,0.0,0.0,0.0,0.0,0.0,0.0,0.0,0.0,0.0,0.0,0.0,5.5854,5.8611,6.4537,6.6199,6.1302,6.3391,6.5288,6.5737,6.4071,6.4189,6.7437,6.7529,6.7851,6.9134,7.0463,7.2094,7.4276,7.427,7.5277,7.8411,7.6561,7.4716,7.4565,7.4796,7.6832,8.0878,8.0854,8.0378,8.0657,8.0655,8.0671,8.0733,8.0028,7.9549,7.9759,7.9217,7.9043,7.9956,8.0152,8.0171,8.0088,7.9775,8.0012,8.0931,7.9999,7.8238,7.7207,7.8375,7.9801,7.059,7.1336,7.09,6.8814,6.5746,6.5721,6.5913,6.6258,6.6258,6.6258,6.6258,6.6258,6.5908,6.5242,6.4934,6.4958,6.5366,6.795,6.9219,6.9668,7.1925,7.3143,7.3467,7.3836,7.4138,7.4528,7.4732,7.4912,7.5031,7.4966,7.5212,7.5523,7.351,7.1829,7.075,7.2503,7.419,7.5609,7.5654,7.5654,7.5654,7.5567,7.4795,7.3206,7.3079,7.2269,7.0756,7.0604,6.995,6.8703,6.7889,6.6844,6.5491,5.647,0.0,0.0,0.0,0.0,0.0,0.0,0.0,0.0,0.0,4.4887,3.8935,0.0,4.9538,0.0,6.053,6.2414,5.8078,5.9015,0.0,0.0,5.771,5.7277,6.2432,6.3196,6.4222,6.6509,6.9166,7.1417,7.2961,7.2806,7.3541,7.592,7.34,7.1526,7.231,7.1376,7.2323,7.6467,7.8109,7.8762,7.8308,7.8546,7.8351,7.8037,7.7788,7.7701,7.7582,7.7888,7.8142,7.8144,7.8161,7.8124,7.7969,7.7585,7.7753,7.8537,7.6577,7.4225,7.3933,7.5794,7.7692,6.5361,6.5265,6.3466,6.3249,6.4118,6.4127,6.495,6.6258,6.6224,6.6258,6.6258,6.6258,6.4824,6.2288,6.1106,0.0,6.2405,6.408,6.546,6.666,6.6862,6.7676,6.8974,7.0305,7.1646,7.3042,7.3198,7.386,7.4897,7.4059,7.2884,7.1369,6.7136,6.6399,6.8946,6.8,7.0104,7.5485,7.5586,7.562,7.5609,7.5507,7.4788,7.348,7.3094,7.2274,7.0982,7.0655,6.996,6.8569,6.496,6.2338,6.0842,0.0,0.0,0.0,0.0,0.0,0.0,0.0,0.0,0.0,0.0,0.0,0.0,0.0,0.0,4.9454,5.5981,0.0,6.1132,6.0183,0.0,0.0,0.0,5.3783,5.5805,5.86,6.0362,6.0245,0.0,0.0,6.9236,6.9094,6.9633,7.1603,7.1557,7.0934,6.9845,7.0778,7.1926,7.2969,7.402,7.3886,7.22,7.2061,7.3141,7.5306,7.3122,7.1378,7.111,7.1876,7.2562,7.2913,7.2588,7.3051,7.459,7.3314,7.2286,7.2878,7.3249,7.3313,7.2417,7.2605,7.3366,6.1087,5.6109,5.453,5.5218,5.7272,5.6465,5.8471,6.2243,6.14,6.0512,5.9739,5.9739,5.7605,5.3983,5.3471,0.0,0.0,0.0,5.98,6.1213,6.3969,6.5943,6.7237,6.7832,6.8422,6.8893,6.9038,6.9792,7.103,7.0777,6.6323,5.8043,0.0,5.8141,5.8688,6.2475,6.6006,6.9108,7.1786,7.3125,7.3047,7.2966,7.2645,7.1986,7.1834,7.1032,6.9588,6.9442,6.7198,6.2487,6.077,5.7637,0.0,0.0,0.0,0.0,0.0,0.0,0.0,0.0,0.0,0.0,0.0,3.2865,2.9744,0.0,0.0,0.0,4.3574,4.6645,5.017,5.3349,0.0,0.0,0.0,0.0,0.0,0.0,0.0,5.6614,6.0222,6.3568,6.6193,6.6425,6.6907,6.8541,6.8776,6.8919,6.9316,0.0,6.9388,7.0998,7.1074,7.0822,7.0467,6.9287,6.9526,7.2738,7.2019,7.1052,7.0865,7.0534,7.074,7.1614,7.241,7.2099,6.9627,6.8844,6.862,6.9087,6.9528,6.9674,6.9278,7.0003,7.0842,5.5588,0.0,0.0,0.0,0.0,4.8995,5.1011,5.5197,5.4182,5.3185,5.2209,5.2209,0.0,0.0,0.0,0.0,0.0,0.0,5.5309,5.7361,6.1716,6.4322,6.5313,6.5718,6.587,6.5776,6.5988,6.6052,6.5946,6.404,5.7927,4.8134,0.0,0.0,0.0,0.0,6.2099,6.4402,6.9037,7.1482,7.1388,7.1362,7.1293,7.1102,7.0661,6.9653,6.8184,6.6851,6.3294,5.7157,5.4524,0.0,0.0,0.0,0.0,0.0,0.0,0.0,0.0,0.0,0.0,0.0,0.0,0.0,0.0,0.0,0.0,0.0,0.0,0.0,4.2701,4.757,5.0205,0.0,0.0,0.0,0.0,0.0,0.0,0.0,0.0,0.0,6.1292,6.2263,6.3525,0.0,0.0,6.6786,6.7804,6.7348,6.7418,6.8914,6.8447,0.0,6.8538,6.6593,6.6064,6.9143,6.9834,6.9695,6.8809,6.8609,6.8636,6.8988,7.0377,7.0328,6.673,6.498,6.4704,6.6582,6.5701,6.4789,6.5774,6.7594,6.9054,0.0,0.0,0.0,0.0,4.4344,0.0,0.0,0.0,4.484,4.4772,0.0,4.4699,0.0,0.0,0.0,0.0,4.2931,4.8448,0.0,0.0,5.9851,6.223,6.2497,6.3797,6.4557,6.4577,6.4584,6.3083,5.9885,5.2954,4.782,0.0,0.0,0.0,0.0,0.0,5.8462,6.2636,6.846,7.155,7.154,7.1398,7.1378,7.1433,6.9912,6.8352,6.6836,6.2645,5.8346,5.3939,4.572,0.0,0.0,0.0,0.0,0.0,0.0,0.0,0.0,0.0,0.0,0.0,0.0,0.0,0.0,0.0,0.0,0.0,0.0,0.0,0.0,4.4691,0.0,0.0,0.0,0.0,0.0,0.0,0.0,0.0,0.0,5.6563,5.3676,5.5968,5.8926,6.2107,0.0,0.0,0.0,0.0,6.6699,6.6316,6.6003,6.542,6.4273,6.2712,6.2286,6.4284,0.0,0.0,6.1883,6.4118,6.5578,6.35,6.5075,6.6437,6.6494,6.1457,5.9688,6.5373,6.2083,5.9391,6.1895,6.4606,6.6833,0.0,0.0,0.0,0.0,0.0,0.0,0.0,0.0,0.0,3.9044,3.7398,3.8266,0.0,0.0,0.0,0.0,0.0,0.0,0.0,0.0,5.1277,5.378,5.3898,5.6263,5.6354,5.4262,5.341,5.0549,0.0,0.0,0.0,0.0,0.0,0.0,0.0,0.0,5.4999,5.8438,6.611,7.0561,7.1374,7.1372,7.0898,6.9941,6.9308,6.6533,6.1321,5.8637,5.5291,0.0,0.0,0.0,0.0,0.0,0.0,0.0,0.0,0.0,0.0,0.0,0.0,0.0,0.0,0.0,0.0,0.0,0.0,0.0,0.0,0.0,0.0,0.0,4.356,0.0,0.0,0.0,0.0,0.0,0.0,0.0,0.0,0.0,4.6671,5.2056,5.6765,5.8824,6.1501,6.3475,6.4247,0.0,0.0,0.0,0.0,0.0,0.0,0.0,6.1588,6.1332,6.4026,6.3836,5.6659,5.8226,6.0534,6.0755,0.0,0.0,5.6009,5.2676,5.2539,5.7019,5.6129,5.4893,5.5983,5.7913,5.9112,0.0,0.0,0.0,0.0,0.0,0.0,0.0,0.0,0.0,3.2641,3.1331,0.0,0.0,0.0,0.0,0.0,0.0,0.0,0.0,0.0,0.0,0.0,4.8626,5.1068,0.0,0.0,0.0,0.0,0.0,0.0,0.0,0.0,0.0,0.0,0.0,0.0,5.1998,5.406,6.3503,6.9043,6.9859,6.9883,6.9622,6.919,6.8184,6.4695,5.8438,0.0,0.0,0.0,0.0,0.0,0.0,0.0,0.0,0.0,0.0,0.0,0.0,0.0,0.0,0.0,0.0,0.0,0.0,0.0,0.0,0.0,0.0,0.0,0.0,0.0,3.807,0.0,0.0,0.0,0.0,0.0,0.0,0.0,0.0,0.0,0.0,4.8046,5.3027,5.5509,5.8674,6.1299,6.2814,6.3571,6.4252,0.0,0.0,0.0,0.0,0.0,0.0,0.0,0.0,0.0,0.0,0.0,0.0,0.0,5.8132,5.7218,4.3994,4.3725,4.6002,4.7717,0.0,0.0,0.0,0.0,0.0,0.0,0.0,0.0,0.0,0.0,0.0,0.0,0.0,0.0,0.0,2.6807,0.0,0.0,2.4535,0.0,0.0,0.0,0.0,0.0,0.0,0.0,0.0,0.0,0.0,0.0,0.0,0.0,0.0,0.0,0.0,0.0,0.0,0.0,0.0,0.0,0.0,4.9435,4.9388,6.1039,6.7054,6.7138,6.6995,6.779,6.9351,6.6565,6.2917,5.8524,0.0,0.0,0.0,0.0,0.0,0.0,0.0,0.0,0.0,0.0,0.0,0.0,0.0,0.0,0.0,0.0,0.0,0.0,0.0,0.0,0.0,0.0,0.0,0.0,0.0,0.0,3.2014,3.5832,3.8022,0.0,0.0,0.0,0.0,0.0,0.0,0.0,0.0,0.0,5.2171,5.5463,5.8177,6.023,6.2095,6.324,6.3248,6.1593,6.0074,5.9644,5.8089,5.6387,0.0,0.0,0.0,0.0,0.0,0.0,0.0,0.0,0.0,0.0,0.0,0.0,0.0,0.0,0.0,0.0,0.0,0.0,0.0,0.0,0.0,0.0,0.0,0.0,0.0,0.0,0.0,0.0,0.0,0.0,0.0,0.0,0.0,0.0,0.0,0.0,0.0,0.0,0.0,0.0,0.0,0.0,0.0,0.0,0.0,0.0,0.0,0.0,0.0,0.0,0.0,0.0,0.0,0.0,4.8707,4.9758,6.0284,6.6206,6.7356,6.7327,6.7549,6.8042,6.612,6.249,0.0,0.0,0.0,0.0,0.0,0.0,0.0,0.0,0.0,0.0,0.0,0.0,0.0,0.0,0.0,0.0,0.0,0.0,0.0,0.0,0.0,0.0,0.0,0.0,0.0,0.0,0.0,0.0,4.0243,4.0697,3.7979,0.0,0.0,0.0,0.0,0.0,0.0,0.0,0.0,0.0,0.0,5.57,5.9972,6.0949,6.1675,6.3109,6.2802,6.2113,6.1319,6.0083,5.8303,5.5545,0.0,0.0,0.0,0.0,0.0,0.0,0.0,0.0,0.0,0.0,0.0,0.0,0.0,0.0,0.0,0.0,0.0,0.0,0.0,0.0,0.0,0.0,0.0,0.0,0.0,0.0,0.0,0.0,0.0,0.0,0.0,0.0,0.0,0.0,0.0,0.0,0.0,0.0,0.0,0.0,0.0,0.0,0.0,0.0,0.0,0.0,0.0,0.0,0.0,0.0,0.0,0.0,0.0,4.7569,4.9207,5.9133,6.4783,6.5671,6.573,6.5739,6.573,6.4774,6.0663,0.0,0.0,0.0,0.0,0.0,0.0,0.0,0.0,0.0,0.0,0.0,0.0,0.0,0.0,0.0,0.0,0.0,0.0,0.0,0.0,0.0,0.0,0.0,0.0,0.0,0.0,0.0,0.0,3.6126,3.8013,3.677,0.0,0.0,0.0,0.0,0.0,0.0,0.0,0.0,0.0,0.0,5.2789,5.5405,5.7695,0.0,0.0,6.0996,6.0781,6.0251,5.9517,5.7538,5.3084,4.8239,0.0,0.0,0.0,0.0,0.0,0.0,0.0,0.0,0.0,0.0,0.0,0.0,0.0,0.0,0.0,0.0,0.0,0.0,0.0,0.0,0.0,0.0,0.0,0.0,0.0,0.0,0.0,0.0,0.0,0.0,0.0,0.0,0.0,0.0,0.0,0.0,0.0,0.0,0.0,0.0,0.0,0.0,0.0,0.0,0.0,0.0,0.0,0.0,0.0,0.0,0.0,0.0,4.6235,4.7946,5.7869,6.3032,6.2855,6.2965,6.2999,6.2992,6.2992,5.8059,0.0,0.0,0.0,0.0,0.0,0.0,0.0,0.0,0.0,0.0,0.0,0.0,0.0,0.0,0.0,0.0,0.0,0.0,0.0,0.0,0.0,0.0,0.0,0.0,0.0,0.0,0.0,0.0,0.0,0.0,0.0,0.0,0.0,0.0,0.0,0.0,0.0,0.0,0.0,0.0,0.0,4.9823,4.881,5.3286,5.6739,0.0,5.6811,5.68,5.6833,5.6846,5.4852,4.8956,0.0,0.0,0.0,0.0,0.0,0.0,0.0,0.0,0.0,0.0,0.0,0.0,0.0,0.0,0.0,0.0,0.0,0.0,0.0,0.0,0.0,0.0,0.0,0.0,0.0,0.0,0.0,0.0,0.0,0.0,0.0,0.0,0.0,0.0,0.0,0.0,0.0,0.0,0.0,0.0,0.0,0.0,0.0,0.0,0.0,0.0,0.0,0.0,0.0,0.0,0.0,0.0,0.0,0.0,4.643,5.8143,6.3297,6.1324,6.2753,6.3362,6.3017,6.2992,0.0,0.0,0.0,0.0,0.0,0.0,0.0,0.0,0.0,0.0,0.0,0.0,0.0,0.0,0.0,0.0,0.0,0.0,0.0,0.0,0.0,0.0,0.0,0.0,0.0,0.0,0.0,2.1177,0.0,0.0,0.0,0.0,0.0,0.0,0.0,0.0,0.0,0.0,0.0,0.0,0.0,0.0,4.9078,5.4556,5.3772,5.2904,0.0,0.0,5.2877,5.353,5.3656,5.2751,0.0,0.0,0.0,0.0,0.0,0.0,0.0,0.0,0.0,0.0,0.0,0.0,0.0,0.0,0.0,0.0,0.0,0.0,0.0,0.0,0.0,0.0,0.0,0.0,0.0,0.0,0.0,0.0,0.0,0.0,0.0,0.0,0.0,0.0,0.0,0.0,0.0,0.0,0.0,0.0,0.0,0.0,0.0,0.0,0.0,0.0,0.0,0.0,0.0,0.0,0.0,0.0,0.0,0.0,4.4476,4.6987,5.5901,6.073,6.1075,6.1559,6.1671,6.1372,6.1786,5.7178,0.0,0.0,0.0,0.0,0.0,0.0,0.0,0.0,0.0,0.0,0.0,0.0,0.0,0.0,0.0,0.0,0.0,0.0,0.0,0.0,0.0,0.0,0.0,0.0,0.0,0.0,0.0,0.0,0.0,0.0,0.0,0.0,0.0,0.0,0.0,0.0,0.0,0.0,0.0,0.0,0.0,0.0,5.1741,5.1595,0.0,0.0,0.0,5.0343,5.2187,0.0,0.0,0.0,0.0,0.0,0.0,0.0,0.0,0.0,0.0,0.0,0.0,0.0,0.0,0.0,0.0,0.0,0.0,0.0,0.0,0.0,0.0,0.0,0.0,0.0,0.0,0.0,0.0,0.0,0.0,0.0,0.0,0.0,0.0,0.0,0.0,0.0,0.0,0.0,0.0,0.0,0.0,0.0,0.0,0.0,0.0,0.0,0.0,0.0,0.0,0.0,0.0,0.0,0.0,0.0,0.0,0.0,4.7722,5.3084,5.7658,6.11,6.0059,5.9336,5.9209,6.0165,5.5841,0.0,0.0,0.0,0.0,0.0,0.0,0.0,0.0,0.0,0.0,0.0,0.0,0.0,0.0,0.0,0.0,0.0,0.0,0.0,0.0,0.0,0.0,0.0,0.0,0.0,0.0,0.0,0.0,0.0,0.0,0.0,0.0,0.0,0.0,0.0,0.0,0.0,0.0,0.0,0.0,0.0,4.8482,4.6004,4.8431,4.9729,0.0,0.0,4.8372,5.1483,5.1464,0.0,0.0,0.0,0.0,0.0,0.0,0.0,0.0,0.0,0.0,0.0,0.0,0.0,0.0,0.0,0.0,0.0,0.0,0.0,0.0,0.0,0.0,0.0,0.0,0.0,0.0,0.0,0.0,0.0,0.0,0.0,0.0,0.0,0.0,0.0,0.0,0.0,0.0,0.0,0.0,0.0,0.0,0.0,0.0,0.0,0.0,0.0,0.0,0.0,0.0,0.0,0.0,0.0,0.0,0.0,0.0,4.5404,5.4725,5.9734,5.9732,5.9844,5.9516,5.8734,5.9258,5.5103,0.0,0.0,0.0,0.0,0.0,0.0,0.0,0.0,0.0,0.0,0.0,0.0,0.0,0.0,0.0,0.0,0.0,0.0,0.0,0.0,0.0,0.0,0.0,0.0,0.0,0.0,0.0,0.0,0.0,0.0,0.0,0.0,0.0,0.0,0.0,0.0,0.0,0.0,0.0,0.0,0.0,4.471,4.9445,4.8244,0.0,0.0,0.0,0.0,4.827,4.5534,0.0,0.0,0.0,0.0,0.0,0.0,0.0,0.0,0.0,0.0,0.0,0.0,0.0,0.0,0.0,0.0,0.0,0.0,0.0,0.0,0.0,0.0,0.0,0.0,0.0,0.0,0.0,0.0,0.0,0.0,0.0,0.0,0.0,0.0,0.0,0.0,0.0,0.0,0.0,0.0,0.0,0.0,0.0,0.0,0.0,0.0,0.0,0.0,0.0,0.0,0.0,0.0,0.0,0.0,0.0,0.0,4.7828,5.3601,5.7384,5.8942,5.8521,5.8366,5.8615,5.8367,5.4369,0.0,0.0,0.0,0.0,0.0,0.0,0.0,0.0,0.0,0.0,0.0,0.0,0.0,0.0,0.0,0.0,0.0,0.0,0.0,0.0,0.0,0.0,0.0,0.0,0.0,0.0,0.0,0.0,0.0,0.0,0.0,0.0,0.0,0.0,0.0,0.0,0.0,0.0,0.0,0.0,4.1763,4.3775,4.82,0.0,0.0,0.0,0.0,0.0,0.0,4.315,4.0559,0.0,0.0,0.0,0.0,0.0,0.0,0.0,0.0,0.0,0.0,0.0,0.0,0.0,0.0,0.0,0.0,0.0,0.0,0.0,0.0,0.0,0.0,0.0,0.0,0.0,0.0,0.0,0.0,0.0,0.0,0.0,0.0,0.0,0.0,0.0,0.0,0.0,0.0,0.0,0.0,0.0,0.0,0.0,0.0,0.0,0.0,0.0,0.0,0.0,0.0,0.0,0.0,0.0,0.0,0.0,4.991,5.1209,5.4006,5.8473,5.7055,5.6915,5.8332,5.749,5.3619,4.6607,0.0,0.0,0.0,0.0,0.0,0.0,0.0,0.0,0.0,0.0,0.0,0.0,0.0,0.0,0.0,0.0,0.0,0.0,0.0,0.0,0.0,0.0,0.0,0.0,0.0,0.0,0.0,0.0,0.0,0.0,0.0,0.0,0.0,0.0,0.0,0.0,0.0,0.0,0.0,3.9827,4.2777,0.0,0.0,0.0,0.0,0.0,0.0,0.0,0.0,3.966,0.0,0.0,0.0,0.0,0.0,0.0,0.0,0.0,0.0,0.0,0.0,0.0,0.0,0.0,0.0,0.0,0.0,0.0,0.0,0.0,0.0,0.0,0.0,0.0,0.0,0.0,0.0,0.0,0.0,0.0,0.0,0.0,0.0,0.0,0.0,0.0,0.0,0.0,0.0,0.0,0.0,0.0,0.0,0.0,0.0,0.0,0.0,0.0,0.0,0.0,0.0,0.0,0.0,0.0,0.0,0.0,4.847,5.3253,5.8006,5.6526,5.6088,5.7154,5.6624,5.2814,4.5489,0.0,0.0,0.0,0.0,0.0,0.0,0.0,0.0,0.0,0.0,0.0,0.0,0.0,0.0,0.0,0.0,0.0,0.0,0.0,0.0,0.0,0.0,0.0,0.0,0.0,0.0,0.0,0.0,0.0,0.0,0.0,0.0,0.0,0.0,0.0,0.0,0.0,0.0,2.752,3.3377,0.0,0.0,0.0,0.0,0.0,0.0,0.0,0.0,3.9039,0.0,0.0,0.0,0.0,0.0,0.0,0.0,0.0,0.0,0.0,0.0,0.0,0.0,0.0,0.0,0.0,0.0,0.0,0.0,0.0,0.0,0.0,0.0,0.0,0.0,0.0,0.0,0.0,0.0,0.0,0.0,0.0,0.0,0.0,0.0,0.0,0.0,0.0,0.0,0.0,0.0,0.0,0.0,0.0,0.0,0.0,0.0,0.0,0.0,0.0,0.0,0.0,0.0,0.0,0.0,0.0,0.0,0.0,5.3367,5.739,5.6749,5.6561,5.6965,5.5078,5.104,0.0,0.0,0.0,0.0,0.0,0.0,0.0,0.0,0.0,0.0,0.0,0.0,0.0,0.0,0.0,0.0,0.0,0.0,0.0,0.0,0.0,0.0,0.0,0.0,0.0,0.0,0.0,0.0,0.0,0.0,0.0,0.0,0.0,0.0,0.0,0.0,0.0,0.0,0.0,0.0,0.0,0.0,0.0,0.0,0.0,0.0,0.0,0.0,0.0,0.0,0.0,0.0,0.0,0.0,0.0,0.0,0.0,0.0,0.0,0.0,0.0,0.0,0.0,0.0,0.0,0.0,0.0,0.0,0.0,0.0,0.0,0.0,0.0,0.0,0.0,0.0,0.0,0.0,0.0,0.0,0.0,0.0,0.0,0.0,0.0,0.0,0.0,0.0,0.0,0.0,0.0,0.0,0.0,0.0,0.0,0.0,0.0,0.0,0.0,0.0,0.0,0.0,0.0,0.0,0.0,0.0,0.0,0.0,5.3231,5.6809,5.6953,5.6979,5.6979,5.3804,4.956,0.0,0.0,0.0,0.0,0.0,0.0,0.0,0.0,0.0,0.0,0.0,0.0,0.0,0.0,0.0,0.0,0.0,0.0,0.0,0.0,0.0,0.0,0.0,0.0,0.0,0.0,0.0,0.0,0.0,0.0,0.0,0.0,0.0,0.0,0.0,0.0,0.0,0.0,0.0,0.0,0.0,0.0,0.0,0.0,0.0,0.0,0.0,0.0,3.5929,0.0,0.0,0.0,0.0,0.0,0.0,0.0,0.0,0.0,0.0,0.0,0.0,0.0,0.0,0.0,0.0,0.0,0.0,0.0,0.0,0.0,0.0,0.0,0.0,0.0,0.0,0.0,0.0,0.0,0.0,0.0,0.0,0.0,0.0,0.0,0.0,0.0,0.0,0.0,0.0,0.0,0.0,0.0,0.0,0.0,0.0,0.0,0.0,0.0,0.0,0.0,0.0,0.0,0.0,0.0,0.0,0.0,0.0,0.0,5.1802,5.6803,5.6651,5.6443,5.6342,5.3646,4.9226,0.0,0.0,0.0,0.0,0.0,0.0,0.0,0.0,0.0,0.0,0.0,0.0,0.0,0.0,0.0,0.0,0.0,0.0,0.0,0.0,0.0,0.0,0.0,0.0,0.0,0.0,0.0,0.0,0.0,0.0,0.0,0.0,0.0,0.0,0.0,0.0,0.0,0.0,0.0,0.0,0.0,0.0,0.0,0.0,0.0,0.0,0.0,0.0,0.0,0.0,0.0,0.0,0.0,0.0,0.0,0.0,0.0,0.0,0.0,0.0,0.0,0.0,0.0,0.0,0.0,0.0,0.0,0.0,0.0,0.0,0.0,0.0,0.0,0.0,0.0,0.0,0.0,0.0,0.0,0.0,0.0,0.0,0.0,0.0,0.0,0.0,0.0,0.0,0.0,0.0,0.0,0.0,0.0,0.0,0.0,0.0,0.0,0.0,0.0,0.0,0.0,0.0,0.0,0.0,0.0,0.0,0.0,0.0,4.873,5.269,5.5416,5.5503,5.2725,4.9649,4.5967,0.0,0.0,0.0,0.0,0.0,0.0,0.0,0.0,0.0,0.0,0.0,0.0,0.0,0.0,0.0,0.0,0.0,0.0,0.0,0.0,0.0,0.0,0.0,0.0,0.0,0.0,0.0,0.0,0.0,0.0,0.0,0.0,0.0,0.0,0.0,0.0,0.0,0.0,0.0,0.0,0.0,0.0,0.0,0.0,0.0,0.0,0.0,0.0,0.0,0.0,0.0,0.0,0.0,0.0,0.0,0.0,0.0,0.0,0.0,0.0,0.0,0.0,0.0,0.0,0.0,0.0,0.0,0.0,0.0,0.0,0.0,0.0,0.0,0.0,0.0,0.0,0.0,0.0,0.0,0.0,0.0,0.0,0.0,0.0,0.0,0.0,0.0,0.0,0.0,0.0,0.0,0.0,0.0,0.0,0.0,0.0,0.0,0.0,0.0,0.0,0.0,0.0,0.0,0.0,0.0,0.0,0.0,0.0,0.0,4.8659,5.4168,5.4845,5.0108,4.6815,4.3226,0.0,0.0,0.0,0.0,0.0,0.0,0.0,0.0,0.0,0.0,0.0,0.0,0.0,0.0,0.0,0.0,0.0,0.0,0.0,0.0,0.0,0.0,0.0,0.0,0.0,0.0,0.0,0.0,0.0,0.0,0.0,0.0,0.0,0.0,0.0,0.0,0.0,0.0,0.0,0.0,0.0,0.0,0.0,0.0,0.0,0.0,0.0,0.0,0.0,0.0,0.0,0.0,0.0,0.0,0.0,0.0,0.0,0.0,0.0,0.0,0.0,0.0,0.0,0.0,0.0,0.0,0.0,0.0,0.0,0.0,0.0,0.0,0.0,0.0,0.0,0.0,0.0,0.0,0.0,0.0,0.0,0.0,0.0,0.0,0.0,0.0,0.0,0.0,0.0,0.0,0.0,0.0,0.0,0.0,0.0,0.0,0.0,0.0,0.0,0.0,0.0,0.0,0.0,0.0,0.0,0.0,0.0,0.0,0.0,4.5379,5.3078,5.4705,4.9923,4.667,4.2172,0.0,0.0,0.0,0.0,0.0,0.0,0.0,0.0,0.0,0.0,0.0,0.0,0.0,0.0,0.0,0.0,0.0,0.0,0.0,0.0,0.0,0.0,0.0,0.0,0.0,0.0,0.0,0.0,0.0,0.0,0.0,0.0,0.0,0.0,0.0,0.0,0.0,0.0,0.0,0.0,0.0,0.0,0.0,0.0,0.0,0.0,0.0,0.0,0.0,0.0,0.0,0.0,0.0,0.0,0.0,0.0,0.0,0.0,0.0,0.0,0.0,0.0,0.0,0.0,0.0,0.0,0.0,0.0,0.0,0.0,0.0,0.0,0.0,0.0,0.0,0.0,0.0,0.0,0.0,0.0,0.0,0.0,0.0,0.0,0.0,0.0,0.0,0.0,0.0,0.0,0.0,0.0,0.0,0.0,0.0,0.0,0.0,0.0,0.0,0.0,0.0,0.0,0.0,0.0,0.0,0.0,0.0,0.0,0.0,3.532,4.2536,4.5789,4.4012,4.0841,3.8463,3.7056,0.0,0.0,0.0,0.0,0.0,0.0,0.0,0.0,0.0,0.0,0.0,0.0,0.0,0.0,0.0,0.0,0.0,0.0,0.0,0.0,0.0,0.0,0.0,0.0,0.0,0.0,0.0,0.0,0.0,0.0,0.0,0.0,0.0,0.0,0.0,0.0,0.0,0.0,0.0,0.0,0.0,0.0,0.0,0.0,0.0,0.0,0.0,0.0,0.0,0.0,0.0,0.0,0.0,0.0,0.0,0.0,0.0,0.0,0.0,0.0,0.0,0.0,0.0,0.0,0.0,0.0,0.0,0.0,0.0,0.0,0.0,0.0,0.0,0.0,0.0,0.0,0.0,0.0,0.0,0.0,0.0,0.0,0.0,0.0,0.0,0.0,0.0,0.0,0.0,0.0,0.0,0.0,0.0,0.0,0.0,0.0,0.0,0.0,0.0,0.0,0.0,0.0,0.0,0.0,0.0,0.0,0.0,0.0,3.1853,3.8891,4.1806,3.9797,3.7618,3.5591,0.0,0.0,0.0,0.0,0.0,0.0,0.0,0.0,0.0,0.0,0.0,0.0,0.0,0.0,0.0,0.0,0.0,0.0,0.0,0.0,0.0,0.0,0.0,0.0,0.0,0.0,0.0,0.0,0.0,0.0,0.0,0.0,0.0,0.0,0.0,0.0,0.0,0.0,0.0,0.0,0.0,0.0,0.0,0.0,0.0,0.0,0.0,0.0,0.0,0.0,0.0,0.0,0.0,0.0,0.0,0.0,0.0,0.0,0.0,0.0,0.0,0.0,0.0,0.0,0.0,0.0,0.0,0.0,0.0,0.0,0.0,0.0,0.0,0.0,0.0,0.0,0.0,0.0,0.0,0.0,0.0,0.0,0.0,0.0,0.0,0.0,0.0,0.0,0.0,0.0,0.0,0.0,0.0,0.0,0.0,0.0,0.0,0.0,0.0,0.0,0.0,0.0,0.0,0.0,0.0,0.0,0.0,0.0,2.8733,3.764,4.3884,4.4032,3.8585,3.8117,3.3756,0.0,0.0,0.0,0.0,0.0,0.0,0.0,0.0,0.0,0.0,0.0,0.0,0.0,0.0,0.0,0.0,0.0,0.0,0.0,0.0,0.0,0.0,0.0,0.0,0.0,0.0,0.0,0.0,0.0,0.0,0.0,0.0,0.0,0.0,0.0,0.0,0.0,0.0,0.0,0.0,0.0,0.0,0.0,0.0,0.0,0.0,0.0,0.0,0.0,0.0,0.0,0.0,0.0,0.0,0.0,0.0,0.0,0.0,0.0,0.0,0.0,0.0,0.0,0.0,0.0,0.0,0.0,0.0,0.0,0.0,0.0,0.0,0.0,0.0,0.0,0.0,0.0,0.0,0.0,0.0,0.0,0.0,0.0,0.0,0.0,0.0,0.0,0.0,0.0,0.0,0.0,0.0,0.0,0.0,0.0,0.0,0.0,0.0,0.0,0.0,0.0,0.0,0.0,0.0,0.0,0.0,0.0,0.0,0.0,2.5441,0.0,3.6091,3.7972,3.5187,3.2975,0.0,0.0,0.0,0.0,0.0,0.0,0.0,0.0,0.0,0.0,0.0,0.0,0.0,0.0,0.0,0.0,0.0,0.0,0.0,0.0,0.0,0.0,0.0,0.0,0.0,0.0,0.0,0.0,0.0,0.0,0.0,0.0,0.0,0.0,0.0,0.0,0.0,0.0,0.0,0.0,0.0,0.0,0.0,0.0,0.0,0.0,0.0,0.0,0.0,0.0,0.0,0.0,0.0,0.0,0.0,0.0,0.0,0.0,0.0,0.0,0.0,0.0,0.0,0.0,0.0,0.0,0.0,0.0,0.0,0.0,0.0,0.0,0.0,0.0,0.0,0.0,0.0,0.0,0.0,0.0,0.0,0.0,0.0,0.0,0.0,0.0,0.0,0.0,0.0,0.0,0.0,0.0,0.0,0.0,0.0,0.0,0.0,0.0,0.0,0.0,0.0,0.0,0.0,0.0,0.0,0.0,0.0,0.0,0.0,2.4309,2.6683,3.0447,3.5467,3.391,3.2694,0.0,0.0,0.0,0.0,0.0,0.0,0.0,0.0,0.0,0.0,0.0,0.0,0.0,0.0,0.0,0.0,0.0,0.0,0.0,0.0,0.0,0.0,0.0,0.0,0.0,0.0,0.0,0.0,0.0,0.0,0.0,0.0,0.0,0.0,0.0,0.0,0.0,0.0,0.0,0.0,0.0,0.0,0.0,0.0,0.0,0.0,0.0,0.0,0.0,0.0,0.0,0.0,0.0,0.0,0.0,0.0,0.0,0.0,0.0,0.0,0.0,0.0,0.0,0.0,0.0,0.0,0.0,0.0,0.0,0.0,0.0,0.0,0.0,0.0,0.0,0.0,0.0,0.0,0.0,0.0,0.0,0.0,0.0,0.0,0.0,0.0,0.0,0.0,0.0,0.0,0.0,0.0,0.0,0.0,0.0,0.0,0.0,0.0,0.0,0.0,0.0,0.0,0.0,0.0,0.0,0.0,0.0,0.0,0.0,3.2278,2.8751,2.8135,3.1356,3.4201,3.2879,0.0,0.0,0.0,0.0,0.0,0.0,0.0,0.0,0.0,0.0,0.0,0.0,0.0,0.0,0.0,0.0,0.0,0.0,0.0,0.0,0.0,0.0,0.0,0.0,0.0,0.0,0.0,0.0,0.0,0.0,0.0,0.0,0.0,0.0,0.0,0.0,0.0,0.0,0.0,0.0,0.0,0.0,0.0,0.0,0.0,0.0,0.0,0.0,0.0,0.0,0.0,0.0,0.0,0.0,0.0,0.0,0.0,0.0,0.0,0.0,0.0,0.0,0.0,0.0,0.0,0.0,0.0,0.0,0.0,0.0,0.0,0.0,0.0,0.0,0.0,0.0,0.0,0.0,0.0,0.0,0.0,0.0,0.0,0.0,0.0,0.0,0.0,0.0,0.0,0.0,0.0,0.0,0.0,0.0,0.0,0.0,0.0,0.0,0.0,0.0,0.0,0.0,0.0,0.0,0.0,0.0,0.0,0.0,0.0,0.0,2.7024,2.9148,3.121,3.2126,3.1203,2.8234,0.0,0.0,0.0,0.0,0.0,0.0,0.0,0.0,0.0,0.0,0.0,0.0,0.0,0.0,0.0,0.0,0.0,0.0,0.0,0.0,0.0,0.0,0.0,0.0,0.0,0.0,0.0,0.0,0.0,0.0,0.0,0.0,0.0,0.0,0.0,0.0,0.0,0.0,0.0,0.0,0.0,0.0,0.0,0.0,0.0,0.0,0.0,0.0,0.0,0.0,0.0,0.0,0.0,0.0,0.0,0.0,0.0,0.0,0.0,0.0,0.0,0.0,0.0,0.0,0.0,0.0,0.0,0.0,0.0,0.0,0.0,0.0,0.0,0.0,0.0,0.0,0.0,0.0,0.0,0.0,0.0,0.0,0.0,0.0,0.0,0.0,0.0,0.0,0.0,0.0,0.0,0.0,0.0,0.0,0.0,0.0,0.0,0.0,0.0,0.0,0.0,0.0,0.0,0.0,0.0,0.0,0.0,0.0,0.0,0.0,2.8571,3.2183,3.094,3.0101,0.0,0.0,0.0,0.0,0.0,0.0,0.0,0.0,0.0,0.0,0.0,0.0,0.0,0.0,0.0,0.0,0.0,0.0,0.0,0.0,0.0,0.0,0.0,0.0,0.0,0.0,0.0,0.0,0.0,0.0,0.0,0.0,0.0,0.0,0.0,0.0,0.0,0.0,0.0,0.0,0.0,0.0,0.0,0.0,0.0,0.0,0.0,0.0,0.0,0.0,0.0,0.0,0.0,0.0,0.0,0.0,0.0,0.0,0.0,0.0,0.0,0.0,0.0,0.0,0.0,0.0,0.0,0.0,0.0,0.0,0.0,0.0,0.0,0.0,0.0,0.0,0.0,0.0,0.0,0.0,0.0,0.0,0.0,0.0,0.0,0.0,0.0,0.0,0.0,0.0,0.0,0.0,0.0,0.0,0.0,0.0,0.0,0.0,0.0,0.0,0.0,0.0,0.0,0.0,0.0,0.0,0.0,0.0,0.0,0.0,0.0,2.7455,3.2932,3.0454,0.0,3.0845,0.0,0.0,0.0,0.0,0.0,0.0,0.0,0.0,0.0,0.0,0.0,0.0,0.0,0.0,0.0,0.0,0.0,0.0,0.0,0.0,0.0,0.0,0.0,0.0,0.0,0.0,0.0,0.0,0.0,0.0,0.0,0.0,0.0,0.0,0.0,0.0,0.0,0.0,0.0,0.0,0.0,0.0,0.0,0.0,0.0,0.0,0.0,0.0,0.0,0.0,0.0,0.0,0.0,0.0,0.0,0.0,0.0,0.0,0.0,0.0,0.0,0.0,0.0,0.0,0.0,0.0,0.0,0.0,0.0,0.0,0.0,0.0,0.0,0.0,0.0,0.0,0.0,0.0,0.0,0.0,0.0,0.0,0.0,0.0,0.0,0.0,0.0,0.0,0.0,0.0,0.0,0.0,0.0,0.0,0.0,0.0,0.0,0.0,0.0,0.0,0.0,0.0,0.0,0.0,0.0,0.0,0.0,0.0,0.0,0.0,0.0,0.0,3.0393,2.9748,2.7665,0.0,0.0,0.0,0.0,0.0,0.0,0.0,0.0,0.0,0.0,0.0,0.0,0.0,0.0,0.0,0.0,0.0,0.0,0.0,0.0,0.0,0.0,0.0,0.0,0.0,0.0,0.0,0.0,0.0,0.0,0.0,0.0,0.0,0.0,0.0,0.0,0.0,0.0,0.0,0.0,0.0,0.0,0.0,0.0,0.0,0.0,0.0,0.0,0.0,0.0,0.0,0.0,0.0,0.0,0.0,0.0,0.0,0.0,0.0,0.0,0.0,0.0,0.0,0.0,0.0,0.0,0.0,0.0,0.0,0.0,0.0,0.0,0.0,0.0,0.0,0.0,0.0,0.0,0.0,0.0,0.0,0.0,0.0,0.0,0.0,0.0,0.0,0.0,0.0,0.0,0.0,0.0,0.0,0.0,0.0,0.0,0.0,0.0,0.0,0.0,0.0,0.0,0.0,0.0,0.0,0.0,0.0,0.0,0.0,0.0,3.0505,2.884,3.0398,2.9787,2.6637,0.0,0.0,0.0,0.0,0.0,0.0,0.0,0.0,0.0,0.0,0.0,0.0,0.0,0.0,0.0,0.0,0.0,0.0,0.0,0.0,0.0,0.0,0.0,0.0,0.0,0.0,0.0,0.0,0.0,0.0,0.0,0.0,0.0,0.0,0.0,0.0,0.0,0.0,0.0,0.0,0.0,0.0,0.0,0.0,0.0,0.0,0.0,0.0,0.0,0.0,0.0,0.0,0.0,0.0,0.0,0.0,0.0,0.0,0.0,0.0,0.0,0.0,0.0,0.0,0.0,0.0,0.0,0.0,0.0,0.0,0.0,0.0,0.0,0.0,0.0,0.0,0.0,0.0,0.0,0.0,0.0,0.0,0.0,0.0,0.0,0.0,0.0,0.0,0.0,0.0,0.0,0.0,0.0,0.0,0.0,0.0,0.0,0.0,0.0,0.0,0.0,0.0,0.0,0.0,0.0,0.0,0.0,0.0,0.0,0.0,0.0,0.0,0.0,0.0,2.6966,0.0,0.0,0.0,0.0,0.0,0.0,0.0,0.0,0.0,0.0,0.0,0.0,0.0,0.0,0.0,0.0,0.0,0.0,0.0,0.0,0.0,0.0,0.0,0.0,0.0,0.0,0.0,0.0,0.0,0.0,0.0,0.0,0.0,0.0,0.0,0.0,0.0,0.0,0.0,0.0,0.0,0.0,0.0,0.0,0.0,0.0,0.0,0.0,0.0,0.0,0.0,0.0,0.0,0.0,0.0,0.0,0.0,0.0,0.0,0.0,0.0,0.0,0.0,0.0,0.0,0.0,0.0,0.0,0.0,0.0,0.0,0.0,0.0,0.0,0.0,0.0,0.0,0.0,0.0,0.0,0.0,0.0,0.0,0.0,0.0,0.0,0.0,0.0,0.0,0.0,0.0,0.0,0.0,0.0,0.0,0.0,0.0,0.0,0.0,0.0,0.0,0.0,0.0,0.0,0.0,0.0,0.0,0.0,0.0,0.0,0.0,0.0,0.0,0.0,0.0,0.0,0.0,0.0,0.0,0.0,0.0,0.0,0.0,0.0,0.0,0.0,0.0,0.0,0.0,0.0,0.0,0.0,0.0,0.0,0.0,0.0,0.0,0.0,0.0,0.0,0.0,0.0,0.0,0.0,0.0,0.0,0.0,0.0,0.0,0.0,0.0,0.0,0.0,0.0,0.0,0.0,0.0,0.0,0.0,0.0,0.0,0.0,0.0,0.0,0.0,0.0,0.0,0.0,0.0,0.0,0.0,0.0,0.0,0.0,0.0,0.0,0.0,0.0,0.0,0.0,0.0,0.0,0.0,0.0,0.0,0.0,0.0,0.0,0.0,0.0,0.0,0.0,0.0,0.0,0.0,0.0,0.0,0.0,0.0,0.0,0.0,0.0,0.0,0.0,0.0,0.0,0.0,0.0,0.0,0.0,0.0,0.0,0.0,0.0,0.0,0.0,0.0,0.0,0.0,0.0,0.0,0.0,0.0,0.0,0.0,0.0,0.0,0.0,0.0,0.0,0.0,0.0,0.0,0.0,0.0,0.0,0.0,0.0,0.0,0.0,0.0,0.0,0.0,0.0,0.0,0.0,0.0,0.0,0.0,0.0,0.0,0.0,0.0,0.0,0.0,0.0,0.0,0.0,0.0,0.0,0.0,0.0,0.0,0.0,0.0,0.0,0.0,0.0,0.0,0.0,0.0,0.0,0.0,0.0,0.0,0.0,0.0,0.0,0.0,0.0,0.0,0.0,0.0,0.0,0.0,0.0,0.0,0.0,0.0,0.0,0.0,0.0,0.0,0.0,0.0,0.0,0.0,0.0,0.0,0.0,0.0,0.0,0.0,0.0,0.0,0.0,0.0,0.0,0.0,0.0,0.0,0.0,0.0,0.0,0.0,0.0,0.0,0.0,0.0,0.0,0.0,0.0,0.0,0.0,0.0,0.0,0.0,0.0,0.0,0.0,0.0,0.0,0.0,0.0,0.0,0.0,0.0,0.0,0.0,0.0,0.0,0.0,0.0,0.0,0.0,0.0,0.0,0.0,0.0,0.0,0.0,0.0,0.0,0.0,0.0,0.0,0.0,0.0,0.0,0.0,0.0,0.0,0.0,0.0,0.0,0.0,0.0,0.0,0.0,0.0,0.0,0.0,0.0,0.0,0.0,0.0,0.0,0.0,0.0,0.0,0.0,0.0,0.0,0.0,0.0,0.0,0.0,0.0,0.0,0.0,0.0,0.0,0.0,0.0,0.0,0.0,0.0,0.0,0.0,0.0,0.0,0.0,0.0,0.0,0.0,0.0,0.0,0.0,0.0,0.0,0.0,0.0,0.0,0.0,0.0,0.0,0.0,0.0,0.0,0.0,0.0,0.0,0.0,0.0,0.0,0.0,0.0,0.0,0.0,0.0,0.0,0.0,0.0,0.0,0.0,0.0,0.0,0.0,0.0,0.0,0.0,0.0,0.0,0.0,0.0,0.0,0.0,0.0,0.0,0.0,0.0,0.0,0.0,0.0,0.0,0.0,0.0,0.0,0.0,0.0,0.0,0.0,0.0,0.0,0.0,0.0,0.0,0.0,0.0,0.0,0.0,0.0,0.0,0.0,0.0,0.0,0.0,0.0,0.0,0.0,0.0,0.0,0.0,0.0,0.0,0.0,0.0,0.0,0.0,0.0,0.0,0.0,0.0,0.0,0.0,0.0,0.0,0.0,0.0,0.0,0.0,0.0,0.0,0.0,0.0,0.0,0.0,0.0,0.0,0.0,0.0,0.0,0.0,0.0,0.0,0.0,0.0,0.0,0.0,0.0,0.0,0.0,0.0,0.0,0.0,0.0,0.0,0.0,0.0,0.0,0.0,0.0,0.0,0.0,0.0,0.0,0.0,0.0,0.0,0.0,0.0,0.0,0.0,0.0,0.0,0.0,0.0,0.0,0.0,0.0,0.0,0.0,0.0,0.0,0.0,0.0,0.0,0.0,0.0,0.0,0.0,0.0,0.0,0.0,0.0,0.0,0.0,0.0,0.0,0.0,0.0,0.0,0.0,0.0,0.0,0.0,0.0,0.0,0.0,0.0,0.0,0.0,0.0,0.0,0.0,0.0,0.0,0.0,0.0,0.0,0.0,0.0,0.0,0.0,0.0,0.0,0.0,0.0,0.0,0.0,0.0,0.0,0.0,0.0,0.0,0.0,0.0,0.0,0.0,0.0,0.0,0.0,0.0,0.0,0.0,0.0,0.0,0.0,0.0,0.0,0.0,0.0,0.0,0.0,0.0,0.0,0.0,0.0,0.0,0.0,0.0,0.0,0.0,0.0,0.0,0.0,0.0,0.0,0.0,0.0,0.0,0.0,0.0,0.0,0.0,0.0,0.0,0.0,0.0,0.0,0.0,0.0,0.0,0.0,0.0,0.0,0.0,0.0,0.0,0.0,0.0,0.0,0.0,0.0,0.0,0.0,0.0,0.0,0.0,0.0,0.0,0.0,0.0,0.0,0.0,0.0,0.0,0.0,0.0,0.0,0.0,0.0,0.0,0.0,0.0,0.0,0.0,0.0,0.0,0.0,0.0,0.0,0.0,0.0,0.0,0.0,0.0,0.0,0.0,0.0,0.0,0.0,0.0,0.0,0.0,0.0,0.0,0.0,0.0,0.0,0.0,0.0,0.0,0.0,0.0,0.0,0.0,0.0,0.0,0.0,0.0,0.0,0.0,0.0,0.0,0.0,0.0,0.0,0.0,0.0,0.0,0.0,0.0,0.0,0.0,0.0,0.0,0.0,0.0,0.0,0.0,0.0,0.0,0.0,0.0,0.0,0.0,0.0,0.0,0.0,0.0,0.0,0.0,0.0,0.0,0.0,0.0,0.0,0.0,0.0,0.0,0.0,0.0,0.0,0.0,0.0,0.0,0.0,0.0,0.0,0.0,0.0,0.0,0.0,0.0,0.0,0.0,0.0,0.0,0.0,0.0,0.0,0.0,0.0,0.0,0.0,0.0,0.0,0.0,0.0,0.0,0.0,0.0,0.0,0.0,0.0,0.0,0.0,0.0,0.0,0.0,0.0,0.0,0.0,0.0,0.0,0.0,0.0,0.0,0.0,0.0,0.0,0.0,0.0,0.0,0.0,0.0,0.0,0.0,0.0,0.0,0.0,0.0,0.0,0.0,0.0,0.0,0.0,0.0,0.0,0.0,0.0,0.0,0.0,0.0,0.0,0.0,0.0,0.0,0.0,0.0,0.0,0.0,0.0,0.0,0.0,0.0,0.0,0.0,0.0,0.0,0.0,0.0,0.0,0.0,0.0,0.0,0.0,0.0,0.0,0.0,0.0,0.0,0.0,0.0,0.0,0.0,0.0,0.0,0.0,0.0,0.0,0.0,0.0,0.0,0.0,0.0,0.0,0.0,0.0,0.0,0.0,0.0,0.0,0.0,0.0,0.0,0.0,0.0,0.0,0.0,0.0,0.0,0.0,0.0,0.0,0.0,0.0,0.0,0.0,0.0,0.0,0.0,0.0,0.0,0.0,0.0,0.0,0.0,0.0,0.0,0.0,0.0,0.0,0.0,0.0,0.0,0.0,0.0,0.0,0.0,0.0,0.0,0.0,0.0,0.0,0.0,0.0,0.0,0.0,0.0,0.0,0.0,0.0,0.0,0.0,0.0,0.0,0.0,0.0,0.0,0.0,0.0,0.0,0.0,0.0,0.0,0.0,0.0,0.0,0.0,0.0,0.0,0.0,0.0,0.0,0.0,0.0,0.0,0.0,0.0,0.0,0.0,0.0,0.0,0.0,0.0,0.0,0.0,0.0,0.0,0.0,0.0,0.0,0.0,0.0,0.0,0.0,0.0,0.0,0.0,0.0,0.0,0.0,0.0,0.0,0.0,0.0]}],[{"header":{"parameterUnit":"kt","parameterCategory":2,"dx":1,"dy":1,"la1":29.587661999999998,"la2":31.0,"lo1":-88.76705300000003,"lo2":-86.6583820000003,"nx":115,"ny":88,"refTime":"2022-10-29T00:00:00:Z","depth":0,"parameterNumber":2,"parameterNumberName":"V-component_of_WINDS"},"data":[6.7238,6.8293,6.7011,6.6321,6.5984,6.5138,6.4718,6.4718,6.4718,6.4718,6.5001,6.5793,6.6048,6.5165,6.6448,6.712,6.7292,6.8512,6.8248,6.7639,6.9186,6.986,7.0169,7.0251,7.0306,6.9614,6.8785,6.8457,6.7703,6.64,6.5495,6.4756,6.244,6.1199,6.0707,5.9146,5.729,5.6634,5.5638,5.4698,5.4431,5.398,5.3741,5.3541,5.3361,5.3146,5.297,5.2873,5.2853,5.2853,5.2853,5.2853,5.2853,5.2853,5.2853,5.2853,5.2853,5.2853,5.2853,5.2853,5.2853,5.2853,5.2853,5.2853,5.2853,5.2853,5.2853,5.2853,5.2672,5.2111,5.0981,5.0513,4.9435,4.7354,4.5617,4.4302,4.2779,4.1125,3.9934,3.9664,3.9488,3.9466,3.9444,3.9444,3.9444,3.9444,3.9444,3.9444,3.9444,3.9444,3.9444,3.9444,3.9444,3.9444,3.9444,3.9444,3.9444,3.9444,3.9444,3.9444,3.9461,3.9499,4.0016,4.0742,4.1275,4.2014,4.2637,4.3261,4.3494,4.3519,4.3843,4.3927,4.3711,4.3404,4.3104,6.7265,6.8165,6.7029,6.5912,6.5001,6.4783,6.4718,6.4718,6.4718,6.4718,6.4892,6.5912,6.6376,6.712,6.8494,6.9131,6.9669,6.9997,7.0844,7.0779,7.0935,7.1017,7.1235,7.1536,7.1008,7.0234,6.9386,6.8976,6.8504,6.6296,6.4652,6.346,6.1942,6.0326,5.895,5.7716,5.688,5.6272,5.5462,5.465,5.4016,5.3465,5.3168,5.3032,5.2953,5.2933,5.2893,5.2853,5.2853,5.2853,5.2853,5.2853,5.2853,5.2853,5.2853,5.2853,5.2853,5.2853,5.2853,5.2853,5.2853,5.2853,5.2853,5.2853,5.2853,5.2853,5.2853,5.2853,5.2853,5.2191,5.0737,4.9639,4.8388,4.6832,4.5381,4.3977,4.2211,4.0482,3.9906,3.9532,3.9466,3.9466,3.9444,3.9444,3.9444,3.9444,3.9444,3.9444,3.9444,3.9444,3.9444,3.9444,3.9444,3.9444,3.9444,3.9444,3.9444,3.9499,3.9649,3.9533,3.9594,4.0187,4.0736,4.1241,4.2021,4.2894,4.3569,4.3769,4.3836,4.3843,4.396,4.3944,4.3836,4.3786,4.3686,6.7919,6.8238,6.7029,6.6574,6.6518,6.5264,6.4718,6.4718,6.4718,6.4718,6.4838,6.5274,6.5885,6.683,6.8366,6.8949,6.9195,7.0461,7.0953,7.0989,7.0689,7.1262,7.1727,7.179,7.1112,7.1271,7.0525,6.9401,6.8843,6.6455,6.4396,6.4011,6.1703,6.0074,5.946,5.778,5.6674,5.608,5.5005,5.4166,5.3389,5.3151,5.2913,5.2853,5.2873,5.2873,5.2853,5.2853,5.2853,5.2853,5.2853,5.2853,5.2853,5.2853,5.2853,5.2853,5.2853,5.2853,5.2853,5.2853,5.2853,5.2853,5.2853,5.2853,5.2853,5.2313,5.2313,5.2774,5.2774,5.1185,4.9742,4.8368,4.7104,4.5002,4.3313,4.2384,4.1077,3.9972,3.9752,3.9444,3.9444,3.9444,3.9444,3.9444,3.9444,3.9444,3.9444,3.9444,3.9444,3.9444,3.9444,3.9444,3.9444,3.9444,3.9444,3.9444,3.9494,3.9716,3.9921,4.0032,4.0309,4.0896,4.1578,4.228,4.3028,4.3719,4.3843,4.3894,4.3944,4.396,4.396,4.396,4.3944,4.3927,4.386,6.8402,6.832,6.7374,6.7275,6.7646,6.5937,6.5029,6.4756,6.5001,6.5029,6.4756,6.4838,6.5383,6.6557,6.7956,6.8912,6.9085,7.0106,7.0179,7.0251,6.9787,6.9921,7.0201,6.9784,6.9973,7.033,6.9943,6.8524,6.7075,6.469,6.2791,6.3749,6.2239,6.0667,6.03,5.8409,5.7095,5.6364,5.5399,5.4498,5.3978,5.3602,5.3205,5.3227,5.2853,5.2853,5.2853,5.2853,5.2853,5.2853,5.2853,5.2853,5.2853,5.2853,5.2853,5.2853,5.2853,5.2853,5.2853,5.2853,5.2853,5.2853,5.2853,5.2853,5.2492,5.1911,5.181,5.2353,5.1931,5.0048,4.8367,4.7061,4.5554,4.293,4.0504,4.0148,3.973,3.9532,3.951,3.9444,3.9444,3.9444,3.9444,3.9444,3.9444,3.9444,3.9444,3.9444,3.9444,3.9444,3.9444,3.9444,3.9444,3.9444,3.9444,3.9499,3.9699,3.9899,4.0205,4.0615,4.1008,4.1807,4.2647,4.3344,4.3611,4.3736,4.3836,4.3927,4.396,4.396,4.396,4.396,4.396,4.396,4.396,6.8457,6.8502,6.832,6.782,6.6703,6.6512,6.582,6.4927,6.5743,6.5741,6.4854,6.467,6.5047,6.6013,6.7075,6.8194,6.8851,6.894,6.8993,7.0105,6.8593,6.7838,6.7361,6.6638,6.7025,6.5903,6.5285,6.5537,6.3836,6.2322,6.144,6.2608,6.1696,6.1159,6.0721,5.9037,5.7701,5.6754,5.5877,5.5235,5.5054,5.4694,5.427,5.4069,5.3448,5.2853,5.2853,5.2853,5.2853,5.2853,5.2853,5.2853,5.2853,5.2853,5.2853,5.2853,5.2853,5.2853,5.2853,5.2853,5.2853,5.2853,5.2833,5.2532,5.1447,5.0456,5.0598,5.1104,5.0618,4.8944,4.729,4.5889,4.4068,4.1647,4.0131,3.9686,3.9488,3.9466,3.9444,3.9444,3.9444,3.9444,3.9444,3.9444,3.9444,3.9444,3.9444,3.9444,3.9444,3.9444,3.9444,3.9444,3.9444,3.9444,3.9444,3.9549,3.9799,4.0165,4.0498,4.0948,4.1714,4.267,4.3686,4.3769,4.3786,4.3852,4.3852,4.3927,4.396,4.396,4.396,4.396,4.396,4.396,4.396,7.0571,7.0543,7.0543,6.9842,6.8703,6.7938,6.7437,6.6751,6.5557,6.5289,6.5029,6.3014,6.2898,6.4526,6.5274,6.6092,6.7102,6.6833,6.7203,6.7194,6.5603,6.5329,6.5473,6.5293,6.4423,6.438,6.3817,6.239,6.1149,6.0039,5.9764,6.0632,6.1559,6.1144,6.0417,5.9191,5.7991,5.7106,5.6315,5.5839,5.5358,5.4871,5.4538,5.416,5.3361,5.2985,5.2853,5.2853,5.2853,5.2853,5.2853,5.2853,5.2853,5.2853,5.2853,5.2853,5.2853,5.2853,5.2853,5.2853,5.2853,5.2612,5.1849,5.1445,5.0252,4.8985,4.9067,4.9436,4.8759,4.7871,4.6288,4.4621,4.2581,4.057,4.0021,3.9488,3.9444,3.9444,3.9444,3.9444,3.9444,3.9444,3.9444,3.9444,3.9444,3.9444,3.9444,3.9444,3.9444,3.9444,3.9444,3.9444,3.9444,3.9444,3.9444,3.9499,3.9932,4.0382,4.0782,4.1498,4.2414,4.3187,4.3702,4.391,4.396,4.3944,4.3927,4.3944,4.396,4.396,4.396,4.396,4.396,4.396,4.396,7.1899,7.1899,7.1899,7.1216,7.0133,6.9295,6.8703,6.8122,6.5794,6.4928,6.5491,6.2035,6.1691,6.283,6.3237,6.374,6.3867,6.3925,6.475,6.4173,6.3026,6.2877,6.2638,6.2309,6.1985,6.1588,6.1097,5.9947,5.8875,5.7959,5.79,5.874,5.9816,6.0025,5.9417,5.845,5.7734,5.7011,5.6322,5.6212,5.6022,5.5832,5.5298,5.4763,5.3963,5.325,5.2985,5.2853,5.2853,5.2853,5.2853,5.2853,5.2853,5.2853,5.2853,5.2853,5.2853,5.2853,5.2853,5.2853,5.2853,5.2552,5.0679,4.9823,4.8779,4.7602,4.6577,4.7185,4.7186,4.6183,4.4791,4.3683,4.2279,4.0749,3.9796,3.9466,3.9444,3.9444,3.9444,3.9444,3.9444,3.9444,3.9444,3.9444,3.9444,3.9444,3.9444,3.9444,3.9444,3.9444,3.9444,3.9444,3.9444,3.9444,3.9444,3.9499,4.0049,4.0698,4.1158,4.1784,4.2747,4.3444,4.3786,4.396,4.396,4.396,4.396,4.396,4.396,4.396,4.396,4.396,4.396,4.396,4.396,7.1861,7.1899,7.188,7.1169,7.0251,6.9809,6.9167,6.8186,6.6254,6.5443,6.5406,6.2453,6.1156,6.171,6.2677,6.2544,6.1868,6.2624,6.2633,6.1841,6.0489,5.9641,5.9,5.8573,5.8493,5.7448,5.7006,5.7523,5.7049,5.6472,5.6542,5.7282,5.8575,5.8587,5.814,5.7352,5.6858,5.6896,5.6552,5.673,5.6939,5.6948,5.6392,5.5722,5.4852,5.4006,5.3384,5.3051,5.3007,5.2853,5.2853,5.2853,5.2853,5.2853,5.2853,5.2853,5.2853,5.2853,5.2853,5.2853,5.2853,5.2492,4.9764,4.8264,4.7018,4.5379,4.5036,4.5377,4.5273,4.4278,4.3445,4.2542,4.1673,4.0749,3.962,3.9488,3.9466,3.9444,3.9444,3.9444,3.9444,3.9444,3.9444,3.9444,3.9444,3.9444,3.9444,3.9444,3.9444,3.9444,3.9444,3.9444,3.9444,3.9444,3.9499,3.9533,4.0182,4.1498,4.1867,4.22,4.3087,4.391,4.396,4.396,4.396,4.396,4.396,4.396,4.396,4.396,4.396,4.396,4.396,4.396,4.396,6.9563,6.8667,6.9757,7.0036,6.9516,6.8391,6.7225,6.583,6.3642,6.3372,6.3589,6.0444,5.9015,5.9622,5.99,5.9626,5.885,5.9714,5.9859,5.9968,5.8095,5.7617,5.7274,5.6907,5.6359,5.5991,5.5645,5.5513,5.5961,5.5607,5.5981,5.6892,5.7988,5.7614,5.6736,5.6274,5.5961,5.6353,5.6802,5.7018,5.7332,5.7479,5.7216,5.6636,5.5855,5.4871,5.416,5.3781,5.3604,5.3051,5.2853,5.2853,5.2853,5.2853,5.2853,5.2853,5.2853,5.2853,5.2794,5.2774,5.2313,5.2151,4.8285,4.6747,4.6725,4.4099,4.3818,4.3475,4.2981,4.2337,4.1781,4.1321,4.0618,4.0202,3.9466,3.9466,3.9444,3.9444,3.9444,3.9444,3.9444,3.9444,3.9444,3.9444,3.9444,3.9444,3.9444,3.9444,3.9444,3.9444,3.9444,3.9461,3.9499,3.9793,3.9927,3.9927,4.0875,4.2157,4.254,4.2756,4.3545,4.396,4.396,4.396,4.396,4.396,4.396,4.396,4.396,4.396,4.3813,4.3789,4.396,4.396,4.396,6.7775,6.6786,6.7974,6.8179,6.7561,6.6867,6.603,6.4763,6.3619,6.3316,6.315,5.9935,5.8359,5.8362,5.8548,5.7972,5.6981,5.7467,5.7663,5.7837,5.6479,5.6348,5.6372,5.5994,5.552,5.54,5.54,5.5424,5.54,5.5424,5.5934,5.6308,5.6752,5.6592,5.5716,5.5082,5.5131,5.5586,5.6276,5.6838,5.7195,5.7591,5.7642,5.7262,5.6703,5.5676,5.4448,5.4272,5.3783,5.2985,5.2853,5.2853,5.2853,5.2853,5.2853,5.2853,5.2853,5.2853,5.2794,5.1549,5.1044,4.9313,4.6894,4.5443,4.5485,4.3239,4.2589,4.2199,4.1939,4.1465,4.0749,4.0373,3.9978,3.9554,3.9444,3.9444,3.9444,3.9444,3.9444,3.9444,3.9444,3.9444,3.9444,3.9444,3.9444,3.9444,3.9444,3.9444,3.9444,3.9444,3.9594,3.961,3.9854,4.0226,4.0626,4.0936,4.1751,4.2285,4.2634,4.2961,4.3414,4.3894,4.3911,4.3789,4.3862,4.396,4.396,4.396,4.396,4.3666,4.3257,4.3085,4.3109,4.3208,4.3404,6.6519,6.661,6.6564,6.5674,6.4483,6.5858,6.5765,6.4599,6.5201,6.4992,6.3456,6.1164,5.9411,5.8806,5.8783,5.7707,5.6522,5.6822,5.6817,5.6199,5.5587,5.5482,5.5536,5.5551,5.54,5.54,5.54,5.5381,5.5342,5.5304,5.5323,5.5599,5.5649,5.5486,5.5315,5.4584,5.4255,5.4414,5.5345,5.5725,5.6294,5.755,5.7731,5.7552,5.7263,5.657,5.5364,5.4896,5.4207,5.3317,5.3051,5.2853,5.2853,5.2853,5.2853,5.2853,5.2853,5.2774,5.2532,4.96,4.7954,4.6601,4.5656,4.4339,4.3006,4.2329,4.2177,4.1978,4.1395,4.0924,4.0526,4.0065,3.9714,3.9444,3.9444,3.9444,3.9444,3.9444,3.9444,3.9444,3.9444,3.9444,3.9444,3.9444,3.9444,3.9444,3.9444,3.9444,3.9444,3.956,3.9821,3.9998,4.0419,4.0946,4.1624,4.195,4.2112,4.2288,4.2509,4.2641,4.3002,4.3027,4.3224,4.36,4.3625,4.365,4.3772,4.3887,4.333,4.2838,4.2518,4.2477,4.223,4.2206,4.2329,6.4192,6.3299,6.4425,6.3925,6.2543,6.2946,6.2896,6.2686,6.3073,6.2774,6.226,6.0848,5.9832,5.9692,5.9528,5.8385,5.7219,5.7266,5.6748,5.6121,5.5587,5.54,5.54,5.5424,5.5494,5.54,5.5381,5.5203,5.5048,5.5013,5.502,5.4946,5.4721,5.465,5.4552,5.4314,5.4235,5.4349,5.4867,5.5236,5.5448,5.6831,5.7463,5.7418,5.7753,5.7174,5.6258,5.5432,5.4764,5.3984,5.3406,5.3007,5.2898,5.2853,5.2853,5.2853,5.2714,5.2191,5.1244,4.968,4.8676,4.6098,4.4573,4.3717,4.3524,4.2919,4.2108,4.1804,4.1247,4.0706,4.0351,3.989,3.951,3.9444,3.9444,3.9444,3.9444,3.9444,3.9444,3.9444,3.9444,3.9444,3.9444,3.9444,3.9444,3.9444,3.9444,3.9444,3.9444,3.961,3.9932,4.0458,4.0877,4.1727,4.2532,4.255,4.2563,4.2656,4.2261,4.2374,4.1947,4.1515,4.1544,4.2246,4.2814,4.3257,4.3281,4.3109,4.2617,4.2098,4.223,4.2403,4.2008,4.1116,4.1265,6.2564,6.1715,6.271,6.2586,6.163,6.163,6.163,6.163,6.163,6.163,6.1649,6.0976,6.0438,6.0134,5.997,5.911,5.7827,5.8268,5.7684,5.6892,5.6475,5.6335,5.6051,5.6008,5.5731,5.5451,5.5245,5.5028,5.4822,5.4639,5.468,5.4735,5.458,5.433,5.4127,5.4078,5.3938,5.4053,5.4452,5.4793,5.5068,5.6073,5.6749,5.6749,5.7419,5.704,5.6392,5.5901,5.5276,5.4606,5.4251,5.4164,5.4166,5.3718,5.3604,5.3602,5.3071,5.2055,5.0656,4.9456,4.7996,4.5801,4.3779,4.2567,4.3245,4.2851,4.2087,4.1565,4.1138,4.0662,4.0241,3.9796,3.9444,3.9444,3.9444,3.9444,3.9444,3.9444,3.9444,3.9444,3.9444,3.9444,3.9444,3.9444,3.9444,3.9444,3.9444,3.9444,3.9444,3.9544,4.0204,4.0763,4.1162,4.1867,4.2096,4.2554,4.3027,4.256,4.2052,4.1679,4.1168,4.0575,4.0125,4.0923,4.1578,4.1875,4.2073,4.2197,4.2098,4.1776,4.1835,4.186,4.1091,4.0145,4.0145,6.163,6.163,6.1651,6.1672,6.163,6.163,6.163,6.163,6.163,6.163,6.163,6.1536,6.1,6.0464,6.0274,5.9715,5.8619,5.8619,5.8452,5.8385,5.8412,5.7734,5.7196,5.6799,5.6412,5.5824,5.54,5.5184,5.4923,5.4885,5.4798,5.4906,5.4611,5.4379,5.4135,5.3758,5.3462,5.3566,5.3886,5.4174,5.4469,5.5096,5.5721,5.5722,5.57,5.5432,5.4692,5.523,5.5163,5.4536,5.4562,5.472,5.4387,5.405,5.3803,5.3669,5.3205,5.1752,4.9741,4.8099,4.5759,4.3478,4.2177,4.2307,4.2635,4.2264,4.1913,4.1456,4.0941,4.0531,4.0109,3.9796,3.951,3.9444,3.9444,3.9444,3.9444,3.9444,3.9444,3.9444,3.9444,3.9444,3.9444,3.9444,3.9444,3.9444,3.9444,3.9444,3.9444,3.9527,4.0276,4.0952,4.1335,4.1458,4.1653,4.1345,4.1286,4.0974,4.0581,4.0297,4.0089,3.95,3.8697,3.9525,4.0385,4.0525,4.0674,4.036,4.0335,4.0842,4.0793,4.007,3.931,3.8984,3.9059,6.163,6.163,6.163,6.163,6.163,6.163,6.163,6.163,6.163,6.163,6.163,6.163,6.1491,6.1257,6.1093,6.0581,5.9713,5.9689,5.9224,5.8713,5.8458,5.8388,5.8058,5.7386,5.7109,5.7145,5.6172,5.5949,5.5851,5.5675,5.5517,5.5512,5.5048,5.4542,5.4195,5.3662,5.3134,5.3114,5.3265,5.3317,5.3493,5.4294,5.4649,5.4962,5.5341,5.5698,5.5365,5.5185,5.4828,5.4314,5.4249,5.4142,5.403,5.3807,5.3582,5.345,5.2901,5.1365,4.8882,4.6768,4.4571,4.3002,4.2177,4.2152,4.2108,4.1865,4.1561,4.1094,4.064,4.0197,3.9774,3.9576,3.9444,3.9444,3.9444,3.9444,3.9444,3.9444,3.9444,3.9444,3.9444,3.9444,3.9444,3.9444,3.9444,3.9444,3.9444,3.9444,3.9444,3.9444,4.0176,4.0986,4.1093,4.0875,4.0957,4.0655,3.9631,3.9171,3.8869,3.8629,3.8585,3.8118,3.7891,3.842,3.9209,3.946,3.96,3.8823,3.8168,3.8808,3.9134,3.833,3.8118,3.7941,3.7966,6.163,6.163,6.163,6.163,6.163,6.163,6.163,6.163,6.163,6.163,6.163,6.163,6.163,6.1585,6.163,6.1236,6.0883,6.0742,6.0347,5.9999,5.9903,5.9624,5.9131,5.8642,5.7864,5.7685,5.704,5.6816,5.7257,5.7146,5.675,5.6524,5.601,5.5343,5.4373,5.3846,5.3381,5.2985,5.2853,5.2853,5.3027,5.3406,5.3738,5.3738,5.4164,5.4365,5.443,5.4272,5.4428,5.4339,5.443,5.4099,5.4052,5.3738,5.3475,5.3412,5.2453,5.0353,4.785,4.6012,4.4187,4.2722,4.2022,4.2043,4.2069,4.1826,4.1391,4.0837,4.046,4.0038,3.962,3.9466,3.9444,3.9444,3.9444,3.9444,3.9444,3.9444,3.9444,3.9444,3.9444,3.9444,3.9444,3.9444,3.9444,3.9444,3.9444,3.9444,3.9444,3.9444,4.0043,4.079,4.0561,4.0191,4.0089,3.9904,3.8767,3.7874,3.7551,3.78,3.751,3.7486,3.7588,3.7992,3.838,3.8531,3.8571,3.8219,3.784,3.7638,3.7486,3.7638,3.779,3.7602,3.7602,6.163,6.163,6.163,6.163,6.163,6.163,6.163,6.163,6.163,6.163,6.163,6.163,6.163,6.163,6.163,6.163,6.1583,6.1489,6.1351,6.1234,6.1234,6.0883,6.0345,6.0204,5.9193,5.8447,5.7698,5.796,5.8238,5.8444,5.8177,5.7552,5.7106,5.6591,5.5185,5.4538,5.4,5.3247,5.294,5.2853,5.2875,5.2918,5.2942,5.2962,5.3031,5.3141,5.3297,5.376,5.4048,5.4182,5.4874,5.5298,5.5341,5.467,5.4316,5.3204,5.1316,4.8861,4.7206,4.5316,4.35,4.2369,4.1826,4.1783,4.17,4.1543,4.1221,4.0776,4.0329,3.9884,3.9576,3.9466,3.9444,3.9444,3.9444,3.9444,3.9444,3.9444,3.9444,3.9444,3.9444,3.9444,3.9444,3.9444,3.9444,3.9444,3.9444,3.9444,3.9444,3.9444,3.986,3.9938,3.9765,3.9188,3.8976,3.8641,3.7726,3.674,3.6947,3.7377,3.7387,3.7486,3.7486,3.7486,3.7562,3.7764,3.7941,3.7916,3.7638,3.7486,3.7486,3.7486,3.7486,3.7486,3.7512,6.163,6.163,6.163,6.163,6.163,6.163,6.163,6.163,6.163,6.163,6.163,6.163,6.163,6.163,6.163,6.163,6.163,6.1608,6.1587,6.1565,6.1522,6.154,6.1049,6.0566,5.9885,5.9232,5.8746,5.8503,5.871,5.8713,5.8623,5.8222,5.7597,5.7038,5.639,5.5185,5.4513,5.389,5.3381,5.2875,5.2853,5.2853,5.2853,5.2853,5.2853,5.2853,5.2853,5.3205,5.3272,5.3361,5.345,5.3519,5.345,5.3294,5.2519,5.0791,4.7786,4.6203,4.5104,4.3867,4.2657,4.1909,4.167,4.1412,4.1242,4.1094,4.0854,4.0394,3.995,3.9576,3.951,3.9444,3.9444,3.9444,3.9444,3.9444,3.9444,3.9444,3.9444,3.9444,3.9444,3.9444,3.9444,3.9444,3.9444,3.9444,3.9444,3.9444,3.9444,3.9444,3.9439,3.9369,3.8843,3.8227,3.7627,3.7288,3.7237,3.6653,3.7056,3.7301,3.7387,3.7486,3.7486,3.7486,3.7486,3.7486,3.7486,3.7512,3.7486,3.7486,3.7486,3.7486,3.7486,3.7486,3.7486,6.163,6.163,6.163,6.163,6.163,6.163,6.163,6.163,6.163,6.163,6.163,6.163,6.163,6.163,6.163,6.163,6.1522,6.1393,6.1264,6.1178,6.105,6.0987,6.0805,6.0435,6.0142,5.9777,5.9379,5.8965,5.8734,5.8735,5.869,5.8557,5.8267,5.7753,5.7083,5.5834,5.4984,5.4245,5.3448,5.2853,5.2853,5.2853,5.2853,5.2853,5.2853,5.2853,5.2853,5.2853,5.2853,5.2853,5.2853,5.2853,5.2397,5.149,4.9886,4.8738,4.6559,4.4958,4.4659,4.3242,4.2043,4.1648,4.1347,4.109,4.0859,4.0657,4.0482,4.0192,3.9796,3.9444,3.9444,3.9444,3.9444,3.9444,3.9444,3.9444,3.9444,3.9444,3.9444,3.9444,3.9511,3.956,3.9511,3.956,3.9477,3.9444,3.9444,3.9444,3.9444,3.9444,3.9444,3.8919,3.7894,3.7081,3.6159,3.6748,3.7252,3.7195,3.7387,3.7358,3.7415,3.7472,3.7486,3.7486,3.7486,3.7486,3.7486,3.7486,3.7486,3.7486,3.7486,3.7486,3.7486,3.7486,3.7486,6.163,6.163,6.163,6.163,6.163,6.163,6.163,6.163,6.163,6.163,6.163,6.163,6.163,6.163,6.163,6.163,6.1522,6.1156,6.094,6.0854,6.053,6.0402,6.0424,6.0241,5.9918,5.9526,5.9261,5.9019,5.8779,5.8713,5.8713,5.8713,5.8646,5.8333,5.7552,5.6549,5.5655,5.4828,5.3848,5.3096,5.294,5.2853,5.2853,5.2853,5.2853,5.2853,5.2853,5.2853,5.2853,5.2833,5.2572,5.2233,5.1205,4.882,4.7518,4.6747,4.5273,4.4105,4.4019,4.2894,4.2108,4.15,4.1133,4.0859,4.0509,4.0302,4.0082,3.9928,3.9686,3.9444,3.9444,3.9444,3.9444,3.9444,3.9444,3.9444,3.9444,3.9444,3.9444,3.9499,3.9627,3.9727,3.9943,4.006,4.0026,4.0026,3.9982,3.9916,3.9633,3.9444,3.919,3.8102,3.6975,3.5894,3.5081,3.6336,3.7088,3.6985,3.7102,3.7074,3.7358,3.7444,3.7486,3.7486,3.7486,3.7486,3.7486,3.7486,3.7486,3.7486,3.7486,3.7486,3.7486,3.7486,3.7486,6.163,6.163,6.163,6.163,6.163,6.163,6.163,6.163,6.163,6.163,6.163,6.163,6.163,6.163,6.163,6.163,6.1501,6.1135,6.0811,6.0702,6.0292,6.0096,6.0096,6.0031,5.968,5.8889,5.8867,5.8867,5.8735,5.8713,5.8713,5.8713,5.8713,5.8579,5.8311,5.7552,5.6481,5.5497,5.4582,5.3848,5.3029,5.2962,5.294,5.2895,5.2853,5.2853,5.2853,5.2853,5.2794,5.2794,5.1384,4.9925,4.8388,4.6433,4.5318,4.5254,4.3803,4.3006,4.279,4.2416,4.1808,4.1029,4.0859,4.0509,3.9912,3.9708,3.9642,3.9598,3.9576,3.9444,3.9444,3.9444,3.9444,3.9444,3.9444,3.9444,3.9444,3.9444,3.9594,3.9683,4.0115,4.0359,4.0526,4.0642,4.0626,4.0615,4.0521,4.0321,3.9766,3.9273,3.8402,3.7401,3.6173,3.5047,3.5072,3.6016,3.6216,3.6319,3.6633,3.6889,3.7287,3.7316,3.733,3.7387,3.7486,3.7486,3.7486,3.7486,3.7486,3.7486,3.7486,3.7486,3.7486,3.7486,3.7486,6.163,6.163,6.163,6.163,6.163,6.163,6.163,6.163,6.163,6.163,6.163,6.163,6.163,6.163,6.163,6.163,6.1544,6.135,6.0984,6.0422,5.9768,5.9461,5.9461,5.9373,5.9241,5.8845,5.8713,5.8713,5.8713,5.8713,5.8713,5.8713,5.8713,5.8713,5.8579,5.7753,5.6839,5.5944,5.5341,5.4383,5.3272,5.3359,5.3537,5.2985,5.2853,5.2853,5.2853,5.2853,5.2331,5.1021,4.8861,4.6936,4.5992,4.451,4.3546,4.3396,4.2527,4.2242,4.2108,4.1978,4.1569,4.088,4.0635,4.0131,3.9686,3.9444,3.9444,3.9444,3.9444,3.9444,3.9444,3.9444,3.9444,3.9444,3.9444,3.9444,3.9577,4.0143,4.0592,4.0692,4.0865,4.1058,4.1158,4.1258,4.1192,4.0626,4.0548,4.0028,3.9499,3.8319,3.7474,3.6652,3.5415,3.4806,3.4987,3.5171,3.5399,3.5627,3.5949,3.6376,3.6761,3.6917,3.7102,3.7355,3.7498,3.7486,3.7486,3.7486,3.7486,3.7486,3.7486,3.7486,3.7486,3.7486,3.7486,6.1821,6.163,6.163,6.163,6.163,6.163,6.163,6.163,6.163,6.163,6.163,6.163,6.163,6.163,6.163,6.1544,6.1417,6.1329,6.094,6.0074,5.9087,5.8757,5.8757,5.8801,5.8713,5.8713,5.8713,5.8713,5.8713,5.8713,5.8713,5.8713,5.8713,5.8713,5.8646,5.8021,5.7128,5.6323,5.6146,5.5255,5.4182,5.418,5.3982,5.3381,5.3007,5.2918,5.2853,5.2512,5.1224,4.8984,4.6582,4.5022,4.4254,4.3027,4.2416,4.2351,4.2221,4.2112,4.2022,4.1757,4.1325,4.0745,4.0394,4.0016,3.9532,3.9444,3.9444,3.9444,3.9444,3.9444,3.9499,3.9599,3.9766,3.9866,3.9949,4.0026,4.0132,4.0909,4.1308,4.1408,4.1518,4.1724,4.1391,4.1524,4.1468,4.0736,4.0222,3.9698,3.8591,3.7329,3.6593,3.597,3.4917,3.4204,3.4352,3.4428,3.4598,3.4792,3.5171,3.557,3.5883,3.611,3.6576,3.6946,3.7369,3.7512,3.7486,3.7486,3.7486,3.7486,3.7486,3.7486,3.7486,3.7486,3.7486,6.2454,6.1653,6.163,6.163,6.163,6.163,6.163,6.163,6.163,6.163,6.163,6.163,6.163,6.163,6.1608,6.135,6.0962,6.1005,6.042,5.9701,5.9131,5.8735,5.8735,5.8713,5.8713,5.8713,5.8713,5.8713,5.8713,5.8713,5.8713,5.8713,5.8713,5.8713,5.8646,5.8579,5.8043,5.7218,5.7083,5.6481,5.5387,5.4555,5.4264,5.384,5.3281,5.2614,5.245,5.1283,4.9046,4.5657,4.5127,4.3998,4.2679,4.2459,4.2177,4.2177,4.2152,4.2,4.1735,4.1565,4.1173,4.0499,4.0258,3.9994,3.9598,3.9444,3.9444,3.9444,3.9444,3.9516,3.9638,4.0121,4.0388,4.0571,4.1025,4.1285,4.1401,4.1485,4.1358,4.0859,4.194,4.1807,4.1548,4.1614,4.2107,4.0848,3.9897,3.9191,3.8082,3.6411,3.5286,3.4984,3.4456,3.3689,3.376,3.3794,3.3988,3.413,3.4565,3.4873,3.5162,3.5783,3.6149,3.6604,3.7216,3.7486,3.7486,3.7486,3.7486,3.7486,3.7486,3.7486,3.7486,3.7486,3.7486,6.2923,6.2475,6.1889,6.163,6.163,6.163,6.163,6.163,6.163,6.163,6.163,6.163,6.163,6.163,6.1631,6.1329,6.0897,6.0854,6.0311,5.9547,5.9241,5.8977,5.8757,5.8713,5.8713,5.8713,5.8713,5.8713,5.8713,5.8713,5.8713,5.8713,5.8713,5.8713,5.8713,5.869,5.8244,5.7619,5.7864,5.7351,5.5797,5.449,5.4052,5.4006,5.2374,5.1909,5.251,5.1122,4.8553,4.5531,4.387,4.3006,4.2264,4.2177,4.2177,4.2177,4.1956,4.18,4.1539,4.1063,4.0648,4.0302,3.9928,3.9686,3.951,3.9444,3.9444,3.9444,3.9444,3.9683,4.0071,4.0421,4.0765,4.1198,4.1841,4.2447,4.292,4.248,4.2164,4.2097,4.233,4.2323,4.1385,4.1691,4.1514,4.0732,3.9545,3.8552,3.7449,3.53,3.3837,3.4041,3.3783,3.3661,3.3704,3.3709,3.3846,3.3831,3.4116,3.4281,3.4849,3.5698,3.6252,3.6917,3.7245,3.7486,3.7486,3.7486,3.7486,3.7486,3.7486,3.7486,3.7486,3.7486,3.7486,6.325,6.2711,6.1914,6.163,6.163,6.163,6.163,6.163,6.163,6.163,6.163,6.163,6.1544,6.1393,6.1393,6.107,6.0549,6.0464,6.0006,5.9372,5.9285,5.9021,5.8779,5.8713,5.8713,5.8713,5.8713,5.8713,5.8713,5.8713,5.8713,5.8713,5.8713,5.8713,5.8713,5.8713,5.8355,5.7931,5.8422,5.7668,5.5605,5.4017,5.3266,5.2942,5.0698,5.0232,5.1145,5.0169,4.7996,4.5064,4.3174,4.2177,4.2199,4.2177,4.213,4.2,4.1735,4.1517,4.1151,4.0609,4.0175,4.0038,3.9708,3.9466,3.9444,3.9444,3.9444,3.9444,3.9466,3.9766,4.0382,4.0438,4.0915,4.1667,4.2083,4.2613,4.3137,4.297,4.2456,4.2456,4.2349,4.185,4.1241,4.1092,4.091,3.9951,3.8859,3.7756,3.6354,3.4532,3.3633,3.3633,3.3633,3.3633,3.3647,3.3647,3.3647,3.3647,3.3803,3.4053,3.4778,3.5617,3.6423,3.6818,3.6594,3.6846,3.7045,3.7216,3.7444,3.7498,3.7486,3.7486,3.7486,3.7486,3.7486,6.3482,6.175,6.1653,6.163,6.163,6.163,6.163,6.163,6.163,6.163,6.1608,6.1565,6.1329,6.0962,6.092,6.0441,5.9701,5.9679,5.9372,5.8955,5.8823,5.8801,5.8713,5.8713,5.8713,5.8713,5.8713,5.8713,5.8713,5.8713,5.8713,5.8713,5.8713,5.8713,5.8647,5.8647,5.8381,5.8204,5.8337,5.7079,5.4765,5.3521,5.2054,4.9715,4.8481,4.7933,4.8305,4.7788,4.6683,4.4937,4.3092,4.2177,4.2177,4.2177,4.1978,4.167,4.1622,4.1173,4.0565,4.0236,4.0016,3.9642,3.951,3.9444,3.9444,3.9444,3.9444,3.9444,3.9444,3.9805,4.0305,4.0138,4.0642,4.2117,4.1984,4.199,4.259,4.21,4.1741,4.1691,4.1608,4.1192,4.0016,4.0242,3.9743,3.8722,3.75,3.6684,3.5496,3.4623,3.3851,3.3647,3.3647,3.3647,3.3647,3.3647,3.3647,3.3704,3.3874,3.4243,3.4849,3.5602,3.637,3.5887,3.5627,3.6025,3.6309,3.6494,3.6732,3.6974,3.7241,3.7444,3.7486,3.7498,3.7498,6.3858,6.2592,6.1912,6.163,6.163,6.163,6.163,6.163,6.163,6.163,6.1544,6.1286,6.1005,6.0811,6.0574,6.0094,5.9547,5.9504,5.9197,5.8779,5.8713,5.8713,5.8713,5.8713,5.8713,5.8713,5.8713,5.8713,5.8713,5.8713,5.8713,5.8713,5.8713,5.8713,5.8624,5.7561,5.6869,5.669,5.5725,5.4518,5.3236,5.1027,4.9725,4.9359,4.7225,4.6617,4.7392,4.5316,4.3886,4.3199,4.2592,4.2199,4.2177,4.2173,4.1978,4.1626,4.1282,4.0849,4.0302,3.9928,3.9642,3.9532,3.9444,3.9444,3.9444,3.9444,3.9444,3.9444,3.9466,3.976,4.0415,4.0299,4.0732,4.1924,4.1414,4.1165,4.1264,4.1125,4.0992,4.1008,4.0975,4.0476,3.9627,3.9404,3.8698,3.8085,3.6717,3.5564,3.5406,3.4441,3.3965,3.3647,3.3647,3.3647,3.3647,3.3647,3.3647,3.376,3.3945,3.4409,3.4769,3.5465,3.5763,3.5318,3.5062,3.5499,3.5726,3.5883,3.6039,3.6291,3.6572,3.6746,3.6946,3.7074,3.7159,6.3646,6.2617,6.1936,6.163,6.163,6.163,6.163,6.1631,6.1436,6.1348,6.1287,6.0877,6.0551,6.0377,6.0139,5.9746,5.9263,5.9219,5.9043,5.8779,5.8713,5.8713,5.8713,5.8713,5.8713,5.8713,5.8713,5.8713,5.8713,5.8713,5.8713,5.8713,5.8713,5.8426,5.7672,5.6511,5.5362,5.4798,5.3297,5.2014,5.0997,4.8619,4.7311,4.7425,4.537,4.4592,4.5715,4.3521,4.2242,4.2242,4.2177,4.2112,4.2022,4.2022,4.1717,4.1234,4.0849,4.046,4.0021,3.9664,3.9466,3.9444,3.9444,3.9444,3.9444,3.9444,3.9444,3.9444,3.9461,3.9782,4.0388,4.0438,4.0399,4.0892,4.0548,4.0288,4.0309,4.0521,4.0627,4.0598,4.0376,4.0026,3.9461,3.8715,3.8103,3.7499,3.6223,3.5112,3.4917,3.4124,3.3678,3.3647,3.3647,3.3647,3.3647,3.3647,3.3647,3.3718,3.4053,3.448,3.4726,3.5138,3.5167,3.4996,3.4863,3.4972,3.5171,3.5342,3.5499,3.5722,3.5949,3.612,3.6263,3.6376,3.6476,6.2617,6.1772,6.1653,6.1608,6.1544,6.1544,6.1587,6.146,6.1048,6.0876,6.0811,6.0445,6.003,5.9613,5.9526,5.9241,5.8845,5.8801,5.8669,5.8448,5.8492,5.847,5.8249,5.8293,5.8381,5.8426,5.858,5.858,5.8249,5.8315,5.8315,5.847,5.816,5.7227,5.5835,5.5383,5.4567,5.3012,5.1772,5.0224,4.7965,4.6859,4.5255,4.3108,4.2592,4.2502,4.2459,4.2286,4.2177,4.2177,4.2177,4.1978,4.1757,4.167,4.1255,4.0499,4.028,4.0016,3.9576,3.9488,3.9444,3.9444,3.9444,3.9444,3.9444,3.9444,3.9444,3.9444,3.9499,3.9755,4.0249,3.9966,3.961,3.9494,3.9644,3.9599,3.9683,4.0171,4.0627,4.0471,3.9977,3.9533,3.9312,3.8565,3.7616,3.6761,3.5706,3.4758,3.4079,3.3806,3.3647,3.3647,3.3647,3.3647,3.3647,3.3647,3.3647,3.3718,3.4139,3.4394,3.4627,3.4499,3.4513,3.4527,3.4394,3.4352,3.4537,3.4636,3.483,3.5015,3.5342,3.5555,3.5698,3.5787,3.5868,6.2571,6.1723,6.163,6.1436,6.1113,6.1092,6.0964,6.066,6.0532,6.0466,6.0358,5.992,5.9636,5.946,5.9108,5.8867,5.8735,5.8713,5.7983,5.6824,5.6712,5.6039,5.5139,5.6084,5.6712,5.6712,5.6712,5.5994,5.5025,5.6062,5.5972,5.4889,5.473,5.4434,5.3703,5.2476,5.1593,5.064,4.8695,4.7291,4.6323,4.5047,4.3856,4.3035,4.2462,4.2177,4.2177,4.2177,4.2177,4.2177,4.2177,4.2108,4.2,4.1757,4.119,4.0368,4.0214,4.0016,3.9532,3.9444,3.9444,3.9444,3.9444,3.9444,3.9444,3.9444,3.9444,3.9444,3.9444,3.9516,3.9755,3.9633,3.9444,3.9444,3.9444,3.9444,3.9461,3.9677,3.981,3.981,3.9594,3.9483,3.929,3.8004,3.7068,3.662,3.5097,3.4124,3.3738,3.3647,3.3647,3.3647,3.3647,3.3647,3.3647,3.3647,3.3647,3.386,3.4238,3.4295,3.4352,3.4002,3.386,3.3888,3.3897,3.384,3.3869,3.394,3.4053,3.4195,3.4537,3.4906,3.502,3.5205,3.5347,6.2218,6.1608,6.1415,6.107,6.0639,6.0639,6.0487,6.0205,6.0096,5.9986,5.9899,5.9416,5.9197,5.9197,5.8867,5.8713,5.8713,5.8713,5.8049,5.6892,5.6106,5.5135,5.4021,5.4386,5.4751,5.4728,5.4728,5.4046,5.3128,5.4112,5.4089,5.3013,5.2855,5.2459,5.1737,5.0537,4.9561,4.872,4.6547,4.5268,4.5119,4.3743,4.2929,4.2911,4.2427,4.2177,4.2177,4.2177,4.2177,4.2177,4.2177,4.2091,4.1921,4.1324,4.0535,3.9672,3.9541,3.9528,3.946,3.9444,3.9444,3.9444,3.9444,3.9444,3.9444,3.9444,3.9444,3.9444,3.9444,3.9444,3.9444,3.9444,3.9444,3.9444,3.9444,3.9444,3.9444,3.9444,3.9444,3.9444,3.9444,3.9312,3.8698,3.7342,3.6216,3.5946,3.4691,3.3829,3.3647,3.3647,3.3647,3.3647,3.3647,3.3647,3.3647,3.3647,3.3704,3.3959,3.4096,3.4059,3.403,3.3746,3.3675,3.376,3.3732,3.3704,3.3718,3.3775,3.376,3.3874,3.3945,3.4229,3.429,3.438,3.4636,6.1587,6.1524,6.1027,6.0617,6.0205,6.0228,6.0206,6.0031,5.9658,5.9415,5.9417,5.8933,5.8646,5.8511,5.84,5.8513,5.8425,5.8204,5.7961,5.7427,5.5975,5.5321,5.5294,5.3634,5.2716,5.2736,5.2757,5.2783,5.2875,5.2806,5.2716,5.2462,5.2254,5.1527,5.0066,4.9708,4.8878,4.7117,4.5456,4.4498,4.4285,4.2974,4.2231,4.2249,4.2195,4.2177,4.2177,4.2177,4.2177,4.2177,4.2173,4.1996,4.1573,4.0521,3.9482,3.8627,3.8417,3.8678,3.92,3.9383,3.9394,3.9361,3.9399,3.9444,3.9444,3.9444,3.9444,3.9427,3.9278,3.9194,3.9178,3.91,3.9183,3.92,3.9283,3.9261,3.9327,3.9211,3.9349,3.9427,3.9344,3.9063,3.8305,3.6634,3.5706,3.5143,3.4305,3.3647,3.3647,3.3647,3.3647,3.3647,3.3647,3.3647,3.3647,3.3647,3.3647,3.3732,3.3789,3.3689,3.3661,3.3647,3.3647,3.3647,3.3647,3.3647,3.3647,3.3647,3.3647,3.3675,3.3738,3.3752,3.3874,3.3732,3.3846,6.107,6.0984,6.0597,6.0117,5.9701,5.9701,5.9482,5.9109,5.8999,5.8911,5.8889,5.8779,5.7932,5.6726,5.6571,5.6199,5.5592,5.5009,5.3923,5.2336,5.1228,5.0269,4.9627,5.025,5.0752,5.0775,5.0733,5.1461,5.2644,5.1523,5.0019,4.8807,4.8665,4.8397,4.7914,4.7842,4.726,4.6074,4.5078,4.426,4.3619,4.2671,4.2177,4.2177,4.2177,4.2177,4.2177,4.2177,4.2177,4.2177,4.1931,4.1691,4.1543,4.0379,3.9584,3.9286,3.9026,3.8609,3.7939,3.8867,3.9228,3.8752,3.9161,3.9444,3.9444,3.9444,3.9444,3.9327,3.8484,3.7955,3.7905,3.7926,3.7905,3.7905,3.7901,3.8134,3.8524,3.8146,3.8338,3.9211,3.8906,3.8671,3.8662,3.7056,3.5466,3.5098,3.4291,3.3647,3.3647,3.3647,3.3647,3.3647,3.3647,3.3647,3.3647,3.3647,3.3647,3.3647,3.3647,3.3647,3.3647,3.3647,3.3647,3.3647,3.3647,3.3647,3.3647,3.3647,3.3647,3.3647,3.3661,3.3675,3.3647,3.3647,3.3647,5.9351,5.9288,5.8885,5.8435,5.8004,5.7982,5.781,5.7508,5.7486,5.7508,5.7443,5.6771,5.5831,5.4759,5.393,5.4168,5.488,5.3761,5.2558,5.1278,4.9936,4.8638,4.7367,4.7708,4.7934,4.817,4.8212,4.9015,5.0061,4.9358,4.8182,4.714,4.7038,4.7038,4.7002,4.6675,4.6253,4.5642,4.4615,4.3654,4.2907,4.2409,4.2177,4.2177,4.2177,4.2177,4.216,4.1857,4.17,4.1658,4.1032,4.0636,4.0615,3.9464,3.8715,3.8487,3.8237,3.7873,3.7343,3.8067,3.8362,3.792,3.8334,3.8588,3.8605,3.8567,3.8605,3.8505,3.7822,3.7322,3.7339,3.7322,3.7322,3.7322,3.7322,3.7468,3.7837,3.7568,3.7568,3.8367,3.8196,3.7992,3.7817,3.6661,3.5505,3.4735,3.4153,3.3655,3.3647,3.3647,3.3647,3.3647,3.3647,3.3647,3.3647,3.3647,3.3647,3.3647,3.3647,3.3647,3.3647,3.3647,3.3647,3.3647,3.3647,3.3647,3.3647,3.3647,3.3647,3.3647,3.3647,3.3647,3.3647,3.3647,3.3647,5.7148,5.7019,5.6738,5.6233,5.5898,5.5834,5.5877,5.5856,5.5789,5.5618,5.4746,5.3438,5.2735,5.2521,5.1021,5.1837,5.4309,5.3162,5.2284,5.189,5.04,4.873,4.7132,4.5453,4.4913,4.5552,4.5688,4.6197,4.6985,4.6842,4.6776,4.6806,4.6782,4.6734,4.6699,4.5956,4.5517,4.5434,4.3993,4.2889,4.2231,4.2177,4.2177,4.2177,4.2177,4.216,4.2021,4.138,4.0991,4.0783,3.9844,3.9283,3.9131,3.8166,3.7311,3.6865,3.674,3.6866,3.7205,3.7314,3.7343,3.7222,3.7343,3.7405,3.7389,3.7205,3.7085,3.7068,3.7089,3.6989,3.7105,3.7018,3.6935,3.6885,3.6935,3.7176,3.7118,3.7176,3.7189,3.7272,3.7301,3.6975,3.6544,3.6055,3.5309,3.4405,3.3911,3.3647,3.3647,3.3647,3.3647,3.3647,3.3647,3.3647,3.3647,3.3647,3.3647,3.3647,3.3647,3.3647,3.3647,3.3647,3.3647,3.3647,3.3647,3.3647,3.3647,3.3647,3.3647,3.3647,3.3647,3.3647,3.3647,3.3647,3.3647,5.6691,5.6648,5.6189,5.5916,5.5767,5.5767,5.5767,5.5767,5.5703,5.3423,4.9751,4.9085,4.8897,4.8876,4.8478,4.8269,4.8167,4.7231,4.6689,4.639,4.5397,4.5028,4.5089,4.4778,4.4587,4.4747,4.4765,4.4877,4.5043,4.506,4.5101,4.5078,4.5101,4.5078,4.506,4.4877,4.4491,4.3873,4.2943,4.2355,4.2173,4.2177,4.2177,4.2177,4.2177,4.1875,4.1291,4.1137,4.0596,3.9735,3.9418,3.9104,3.864,3.783,3.7319,3.7148,3.6467,3.6229,3.6832,3.7133,3.7055,3.6485,3.6972,3.7322,3.7222,3.6232,3.5526,3.5506,3.5596,3.5596,3.5593,3.556,3.5506,3.5526,3.5506,3.5812,3.6252,3.5882,3.5929,3.7039,3.6768,3.6454,3.636,3.5964,3.5274,3.4522,3.3966,3.3644,3.3647,3.3647,3.3647,3.3647,3.3647,3.3647,3.3647,3.3647,3.3647,3.3647,3.3647,3.3647,3.3647,3.3647,3.3647,3.3647,3.3647,3.3647,3.3647,3.3647,3.3647,3.3647,3.3647,3.3647,3.3647,3.3647,3.3601,5.4866,5.4742,5.3669,5.3193,5.3152,5.2385,5.203,5.203,5.2052,4.9896,4.6495,4.6411,4.6369,4.6308,4.5525,4.569,4.6714,4.5484,4.4848,4.4661,4.4235,4.3873,4.3486,4.3436,4.3632,4.3975,4.3993,4.4148,4.4504,4.4493,4.4493,4.4493,4.4493,4.4493,4.4458,4.4148,4.3779,4.3339,4.2235,4.1647,4.1665,4.1626,4.1643,4.1668,4.1647,4.1412,4.1006,4.0312,3.9558,3.8766,3.8231,3.7879,3.7761,3.7024,3.6682,3.6823,3.6168,3.5823,3.5931,3.6133,3.6086,3.5679,3.6032,3.6228,3.6265,3.5477,3.4991,3.4991,3.4991,3.4991,3.4991,3.4991,3.4991,3.4991,3.4991,3.5174,3.5496,3.5227,3.5324,3.6029,3.5862,3.5587,3.5556,3.5356,3.495,3.4285,3.4031,3.3727,3.3635,3.3647,3.3647,3.3647,3.3647,3.3647,3.3647,3.3647,3.3647,3.3647,3.3647,3.3647,3.3647,3.3647,3.3647,3.3647,3.3647,3.3647,3.3647,3.3647,3.3647,3.3647,3.3647,3.3647,3.3647,3.3647,3.3132,5.2714,5.2393,5.0818,5.0026,4.9701,4.8223,4.7622,4.76,4.7079,4.5991,4.4552,4.4512,4.4552,4.4425,4.2894,4.3907,4.6703,4.5231,4.4512,4.4512,4.4531,4.3674,4.2221,4.2177,4.2533,4.3161,4.3156,4.3548,4.413,4.4161,4.4178,4.4161,4.4178,4.4161,4.413,4.3512,4.3196,4.3161,4.1864,4.1187,4.117,4.117,4.1081,4.0906,4.0956,4.0906,4.0531,3.9332,3.8386,3.7704,3.6777,3.6372,3.6586,3.595,3.5805,3.6197,3.5869,3.5478,3.5028,3.4991,3.4991,3.4991,3.4991,3.4804,3.4487,3.4451,3.4425,3.4268,3.411,3.4287,3.4284,3.4166,3.4071,3.4166,3.4245,3.4402,3.4576,3.4422,3.4474,3.4812,3.4717,3.4461,3.4378,3.4425,3.4265,3.3884,3.3837,3.3875,3.3663,3.3647,3.3647,3.3647,3.3647,3.3647,3.3647,3.3647,3.3647,3.3647,3.3647,3.3564,3.3237,3.3382,3.351,3.3328,3.3451,3.3601,3.3647,3.3647,3.3488,3.3155,3.3169,3.3063,3.2721,3.3283,3.2935,5.1989,5.0594,5.0311,4.9333,4.8057,4.7766,4.7622,4.7434,4.4441,0.0,0.0,4.2657,4.2657,4.2653,4.2351,4.2524,4.311,4.2787,4.2675,4.2657,4.2657,4.2484,4.2177,4.2177,4.2245,4.2391,4.2391,4.2462,4.2583,4.2583,4.2604,4.2604,4.2622,4.26,4.2587,4.2444,4.2373,4.2373,4.2128,4.196,4.1964,4.1985,4.1341,4.008,4.0671,4.0101,3.8232,3.8497,3.7753,3.5835,3.5799,3.5614,3.5025,3.4871,3.5126,3.5762,3.538,3.5067,3.4991,3.4991,3.4991,3.4991,3.4991,3.4043,3.178,3.1831,3.1638,3.0886,3.0845,3.0856,3.081,3.0835,3.083,3.083,3.083,3.1442,3.2658,3.2355,3.2499,3.3652,3.3316,3.3051,3.3421,3.3369,3.345,3.379,3.3701,3.3647,3.3627,3.3513,3.3394,3.3405,3.3155,3.3465,3.3601,3.3533,3.3647,3.3601,3.3647,3.32,3.2424,3.2858,3.3063,3.231,3.2904,3.3496,3.3647,3.3647,3.3237,3.2113,3.1861,3.1517,3.0666,3.1943,3.3086,5.1787,5.0066,4.9231,4.785,0.0,4.5252,4.4416,4.3557,4.1765,4.0985,4.1003,4.1006,4.1006,4.1003,4.1006,4.1006,4.1003,4.1394,4.1615,4.1611,4.1978,4.2177,4.2177,4.2177,4.2177,4.2177,4.2177,4.2177,4.2177,4.2177,4.2177,4.2177,4.2177,4.2003,4.1611,4.1982,4.2177,4.2177,4.1768,4.1594,4.1572,4.1594,4.1003,3.9902,4.0205,0.0,0.0,0.0,0.0,0.0,0.0,0.0,0.0,3.4029,0.0,3.3479,3.2036,3.1172,3.1154,3.1032,3.1406,3.2442,3.2412,3.148,2.9463,3.0002,3.0221,2.9786,3.0062,3.0207,3.0265,3.0954,3.1104,3.0343,3.059,3.1128,3.1779,3.1091,3.0791,3.1451,3.0989,3.0537,3.0777,3.1203,3.1773,3.2275,3.2823,3.3331,3.3488,3.2556,3.1833,3.2072,3.1439,3.1071,3.1898,3.215,3.2356,3.3419,3.3647,3.3328,3.2685,3.3155,3.3442,3.2858,3.3132,3.3647,3.3647,3.3647,3.3405,3.2767,3.257,3.1473,2.7556,2.801,2.9211,5.0803,4.9054,4.7344,4.5628,4.3829,4.2356,4.1003,3.9869,3.9869,3.9869,3.9869,3.9869,3.9869,3.9869,3.9869,3.9869,3.9887,4.049,4.0816,4.0813,4.1451,4.1825,4.1964,4.1964,4.2074,4.2177,4.2177,4.2177,4.2177,4.2177,4.2177,4.2177,4.2177,4.1879,4.1294,0.0,0.0,0.0,4.1448,4.1241,4.1262,4.122,4.0682,3.9569,3.9737,0.0,3.8199,3.7765,3.7293,3.6728,3.6341,0.0,0.0,0.0,0.0,0.0,0.0,0.0,0.0,0.0,0.0,0.0,2.8614,2.8041,2.7359,2.8145,2.8508,2.7988,2.8646,2.9068,2.8945,3.0208,3.0489,2.9228,2.9561,3.0066,3.0302,2.9134,2.8641,2.9063,2.86,2.8173,2.8361,2.9271,3.0135,3.027,3.14,3.2269,3.2117,3.0687,2.9962,3.0292,2.9902,2.9321,2.9957,3.0737,3.1928,3.3053,3.3505,3.3106,3.2735,3.2886,3.3113,3.2275,3.2988,3.3309,3.2903,3.2675,3.223,3.23,3.2169,3.0762,2.5951,2.5166,2.547,4.7206,4.5465,4.3855,4.2161,4.0504,4.0234,4.0045,3.9869,3.9869,3.9869,3.9869,3.9869,3.9869,3.9869,3.9869,3.9869,3.9869,3.9956,3.9991,3.9991,4.008,4.049,4.117,4.1152,4.1544,4.2181,4.2177,4.2177,4.2177,4.2177,4.2177,4.2177,4.2177,4.2163,4.2039,4.1472,4.117,4.117,4.1736,4.2035,4.2035,4.2013,4.0855,3.8535,3.9351,3.8672,3.6312,3.7043,3.7007,3.5994,3.5564,3.5164,3.4805,3.3476,3.1838,0.0,2.9359,0.0,0.0,0.0,0.0,0.0,0.0,0.0,0.0,2.5674,2.4788,2.2301,2.3323,2.3795,2.3138,2.3869,2.4155,2.3652,2.3652,2.4201,2.5414,2.4728,2.508,2.7556,2.7188,2.7074,2.7779,2.9144,2.944,2.8554,2.9356,2.9394,2.7691,2.843,2.9376,2.9492,3.0845,3.023,2.8619,3.023,3.2298,3.3154,3.2728,3.1638,3.0367,3.0925,3.0902,2.9273,3.0716,3.1914,3.047,2.933,2.8455,2.8236,2.7794,2.7337,2.6928,2.6858,2.7585,4.5278,4.3564,4.2846,4.052,3.7248,3.7267,3.7286,3.7248,3.7248,3.7286,3.7248,3.7286,3.7267,3.7229,3.7267,3.7267,3.7319,3.8157,3.8551,3.8604,3.9459,4.0027,4.0347,4.0347,4.0522,4.0878,4.0665,4.0668,4.0857,4.0665,4.0919,4.1501,4.1092,4.0285,3.914,3.95,3.9724,3.9724,4.0054,4.025,4.0229,4.0268,3.9549,3.8189,3.8613,3.8218,3.6825,3.7245,3.6991,3.58,3.5389,3.4803,3.3933,3.0459,2.85,0.0,0.0,0.0,0.0,0.0,0.0,0.0,0.0,0.0,0.0,0.0,2.1668,2.0558,2.236,2.2895,2.1258,2.2643,2.32,2.2015,2.1846,2.2435,2.4067,2.2759,2.2394,2.4164,2.3683,2.3468,2.4246,2.546,2.6495,2.731,2.6736,2.5681,2.434,2.5914,2.7562,2.7725,2.8831,2.8809,2.6719,2.7673,2.9561,3.1852,3.0945,2.9421,2.8735,2.9004,2.9038,2.8069,2.8876,2.9378,2.7919,2.708,2.7209,2.7571,2.5921,2.406,2.4181,2.4641,2.5042,4.2625,4.129,4.06,3.8193,3.4935,3.4899,3.5024,3.5184,3.5184,3.5184,3.5184,3.5184,3.4952,3.4507,3.4277,3.4312,3.4596,3.5964,3.6732,3.7019,3.8193,3.8814,3.9012,3.9208,3.9368,3.9523,3.9136,3.9283,3.979,3.9181,3.9283,3.9998,3.8932,3.7641,3.6341,3.7167,3.7955,3.8681,3.8677,3.8677,3.8677,3.8763,3.8522,3.7957,3.8119,3.7947,3.7399,3.7442,3.6973,3.5836,3.4848,3.3806,3.2608,2.7466,0.0,0.0,0.0,0.0,0.0,0.0,0.0,0.0,0.0,1.8421,1.5312,0.0,1.9264,0.0,2.1509,2.2102,2.0584,2.19,0.0,0.0,2.0259,2.0459,2.1821,2.0629,2.0037,2.099,2.0878,2.0901,2.1439,2.2607,2.405,2.5679,2.4359,2.3003,2.2539,2.3947,2.5168,2.5957,2.7253,2.7457,2.6083,2.5356,2.6311,2.9882,2.8818,2.7611,2.7831,2.7653,2.7504,2.784,2.7678,2.721,2.6728,2.5607,2.5827,2.6827,2.4283,2.1306,2.1222,2.1756,2.2301,3.8046,3.7681,3.4841,3.3807,3.4114,3.4097,3.4489,3.5184,3.5166,3.5184,3.5184,3.5184,3.4241,3.262,3.1683,0.0,3.2724,3.3536,3.4418,3.5397,3.5504,3.5913,3.6626,3.7357,3.807,3.876,3.8384,3.8757,3.9719,3.8373,3.7588,3.7375,3.5228,3.4588,3.5367,3.4882,3.5937,3.8591,3.8643,3.866,3.8681,3.9045,3.8699,3.7591,3.8253,3.8101,3.7049,3.7346,3.6954,3.5766,3.3322,3.1442,3.019,0.0,0.0,0.0,0.0,0.0,0.0,0.0,0.0,0.0,0.0,0.0,0.0,0.0,0.0,1.8199,1.8986,0.0,2.0343,1.9827,0.0,0.0,0.0,1.6267,1.653,1.7115,1.7987,1.914,0.0,0.0,2.1685,2.2867,2.3531,2.3136,2.2906,2.2984,2.3497,2.2848,2.2873,2.457,2.7514,2.8826,2.6524,2.4527,2.4052,2.6183,2.6546,2.6776,2.7586,2.6963,2.686,2.7761,2.7117,2.6521,2.805,2.5088,2.2359,2.1717,2.1263,2.1044,2.0723,2.0755,2.0994,3.3731,3.1042,2.9339,2.9341,3.0412,2.9826,3.0906,3.303,3.2432,3.1837,3.143,3.143,3.0187,2.8102,2.7687,0.0,0.0,0.0,3.1068,3.1972,3.3256,3.4396,3.5281,3.5617,3.6046,3.6535,3.6179,3.6622,3.7693,3.6869,3.4159,2.9754,0.0,2.9226,2.9321,3.117,3.3022,3.4881,3.6232,3.7033,3.727,3.7429,3.7389,3.7175,3.7469,3.7199,3.6274,3.639,3.5028,3.1903,3.0589,2.8619,0.0,0.0,0.0,0.0,0.0,0.0,0.0,0.0,0.0,0.0,0.0,1.3008,1.1075,0.0,0.0,0.0,1.4184,1.4679,1.5743,1.6773,0.0,0.0,0.0,0.0,0.0,0.0,0.0,1.7005,1.8322,1.9321,1.9823,2.0367,2.0735,2.0976,2.0986,2.1297,2.2063,0.0,2.2211,2.4815,2.6287,2.6744,2.5626,2.3604,2.2402,2.3327,2.3574,2.3838,2.4271,2.4416,2.4401,2.431,2.3965,2.4058,2.5493,2.3726,2.1492,2.0076,1.9916,1.9958,1.9824,2.0052,2.0293,2.9615,0.0,0.0,0.0,0.0,2.576,2.682,2.9137,2.8375,2.7742,2.7233,2.7233,0.0,0.0,0.0,0.0,0.0,0.0,2.8429,2.9503,3.1743,3.315,3.3797,3.4006,3.429,3.4469,3.4145,3.427,3.4719,3.3448,2.9814,2.4196,0.0,0.0,0.0,0.0,3.0561,3.2154,3.4515,3.5908,3.6178,3.6312,3.6448,3.6571,3.6515,3.6066,3.5353,3.4708,3.2577,2.8731,2.7036,0.0,0.0,0.0,0.0,0.0,0.0,0.0,0.0,0.0,0.0,0.0,0.0,0.0,0.0,0.0,0.0,0.0,0.0,0.0,1.2776,1.4515,1.5244,0.0,0.0,0.0,0.0,0.0,0.0,0.0,0.0,0.0,1.7648,1.7982,1.8535,0.0,0.0,1.9961,2.079,2.0852,2.1763,2.4446,2.4849,0.0,2.4144,2.2565,2.1386,2.1345,2.1935,2.2247,2.1902,2.252,2.2924,2.2582,2.2359,2.2386,2.2753,2.1525,2.0149,1.9446,1.8801,1.854,1.8822,1.9362,1.978,0.0,0.0,0.0,0.0,2.3346,0.0,0.0,0.0,2.3218,2.3183,0.0,2.316,0.0,0.0,0.0,0.0,2.1698,2.4752,0.0,0.0,3.097,3.2072,3.1801,3.2594,3.3026,3.2904,3.2553,3.1904,3.0822,2.7364,2.4563,0.0,0.0,0.0,0.0,0.0,2.8751,3.1272,3.4226,3.5771,3.5791,3.6158,3.6197,3.5835,3.5478,3.4944,3.4239,3.2178,2.9829,2.7187,2.2655,0.0,0.0,0.0,0.0,0.0,0.0,0.0,0.0,0.0,0.0,0.0,0.0,0.0,0.0,0.0,0.0,0.0,0.0,0.0,0.0,1.3411,0.0,0.0,0.0,0.0,0.0,0.0,0.0,0.0,0.0,1.6236,1.5423,1.6379,1.749,1.8379,0.0,0.0,0.0,0.0,2.127,2.2673,2.3454,2.3508,2.2308,2.1479,2.0841,2.0346,0.0,0.0,2.2123,2.2175,2.26,2.3781,2.3344,2.2552,2.0786,1.8826,1.7857,1.8842,1.7784,1.6978,1.7748,1.8487,1.9124,0.0,0.0,0.0,0.0,0.0,0.0,0.0,0.0,0.0,1.9961,1.9094,1.9563,0.0,0.0,0.0,0.0,0.0,0.0,0.0,0.0,2.5636,2.6997,2.7185,2.8397,2.8637,2.7891,2.7306,2.5479,0.0,0.0,0.0,0.0,0.0,0.0,0.0,0.0,2.6844,2.9056,3.2984,3.5373,3.6122,3.6292,3.6051,3.5421,3.5243,3.3832,3.1013,2.9676,2.7794,0.0,0.0,0.0,0.0,0.0,0.0,0.0,0.0,0.0,0.0,0.0,0.0,0.0,0.0,0.0,0.0,0.0,0.0,0.0,0.0,0.0,0.0,0.0,1.2684,0.0,0.0,0.0,0.0,0.0,0.0,0.0,0.0,0.0,1.3811,1.5281,1.6764,1.7827,1.8418,1.9104,2.0084,0.0,0.0,0.0,0.0,0.0,0.0,0.0,2.0048,1.9228,2.09,2.1475,1.8752,1.8726,1.9359,2.0273,0.0,0.0,1.6774,1.5728,1.5656,1.6434,1.6095,1.5724,1.6053,1.6623,1.6985,0.0,0.0,0.0,0.0,0.0,0.0,0.0,0.0,0.0,1.6386,1.5696,0.0,0.0,0.0,0.0,0.0,0.0,0.0,0.0,0.0,0.0,0.0,2.4145,2.5375,0.0,0.0,0.0,0.0,0.0,0.0,0.0,0.0,0.0,0.0,0.0,0.0,2.5203,2.6861,3.1661,3.4588,3.5331,3.5535,3.5379,3.4803,3.4437,3.2587,2.9056,0.0,0.0,0.0,0.0,0.0,0.0,0.0,0.0,0.0,0.0,0.0,0.0,0.0,0.0,0.0,0.0,0.0,0.0,0.0,0.0,0.0,0.0,0.0,0.0,0.0,1.0894,0.0,0.0,0.0,0.0,0.0,0.0,0.0,0.0,0.0,0.0,1.3706,1.5205,1.6723,1.7537,1.8431,1.9579,2.0082,2.0819,0.0,0.0,0.0,0.0,0.0,0.0,0.0,0.0,0.0,0.0,0.0,0.0,0.0,1.7755,1.7238,1.2823,1.2796,1.3531,1.3753,0.0,0.0,0.0,0.0,0.0,0.0,0.0,0.0,0.0,0.0,0.0,0.0,0.0,0.0,0.0,1.3111,0.0,0.0,1.1966,0.0,0.0,0.0,0.0,0.0,0.0,0.0,0.0,0.0,0.0,0.0,0.0,0.0,0.0,0.0,0.0,0.0,0.0,0.0,0.0,0.0,0.0,2.3961,2.4574,3.0391,3.3386,3.3474,3.3929,3.4122,3.3965,3.3007,3.1219,2.8623,0.0,0.0,0.0,0.0,0.0,0.0,0.0,0.0,0.0,0.0,0.0,0.0,0.0,0.0,0.0,0.0,0.0,0.0,0.0,0.0,0.0,0.0,0.0,0.0,0.0,0.0,0.9151,1.0296,1.0925,0.0,0.0,0.0,0.0,0.0,0.0,0.0,0.0,0.0,1.5022,1.6347,1.7475,1.8684,1.9839,2.0739,2.1316,2.0758,2.0155,1.9884,1.9507,1.885,0.0,0.0,0.0,0.0,0.0,0.0,0.0,0.0,0.0,0.0,0.0,0.0,0.0,0.0,0.0,0.0,0.0,0.0,0.0,0.0,0.0,0.0,0.0,0.0,0.0,0.0,0.0,0.0,0.0,0.0,0.0,0.0,0.0,0.0,0.0,0.0,0.0,0.0,0.0,0.0,0.0,0.0,0.0,0.0,0.0,0.0,0.0,0.0,0.0,0.0,0.0,0.0,0.0,0.0,2.2842,2.3551,2.926,3.2447,3.3034,3.3179,3.3243,3.3186,3.245,3.0711,0.0,0.0,0.0,0.0,0.0,0.0,0.0,0.0,0.0,0.0,0.0,0.0,0.0,0.0,0.0,0.0,0.0,0.0,0.0,0.0,0.0,0.0,0.0,0.0,0.0,0.0,0.0,0.0,1.1718,1.1922,1.0935,0.0,0.0,0.0,0.0,0.0,0.0,0.0,0.0,0.0,0.0,1.6615,1.8228,1.9308,2.0151,2.0772,2.0614,2.0276,1.9647,1.9522,1.8856,1.6998,0.0,0.0,0.0,0.0,0.0,0.0,0.0,0.0,0.0,0.0,0.0,0.0,0.0,0.0,0.0,0.0,0.0,0.0,0.0,0.0,0.0,0.0,0.0,0.0,0.0,0.0,0.0,0.0,0.0,0.0,0.0,0.0,0.0,0.0,0.0,0.0,0.0,0.0,0.0,0.0,0.0,0.0,0.0,0.0,0.0,0.0,0.0,0.0,0.0,0.0,0.0,0.0,0.0,2.1867,2.2668,2.8324,3.1553,3.1985,3.2037,3.2019,3.2037,3.1658,2.9608,0.0,0.0,0.0,0.0,0.0,0.0,0.0,0.0,0.0,0.0,0.0,0.0,0.0,0.0,0.0,0.0,0.0,0.0,0.0,0.0,0.0,0.0,0.0,0.0,0.0,0.0,0.0,0.0,1.0647,1.1226,1.0609,0.0,0.0,0.0,0.0,0.0,0.0,0.0,0.0,0.0,0.0,1.548,1.6543,1.8139,0.0,0.0,1.9782,1.9584,1.8997,1.9051,1.8383,1.6087,1.4662,0.0,0.0,0.0,0.0,0.0,0.0,0.0,0.0,0.0,0.0,0.0,0.0,0.0,0.0,0.0,0.0,0.0,0.0,0.0,0.0,0.0,0.0,0.0,0.0,0.0,0.0,0.0,0.0,0.0,0.0,0.0,0.0,0.0,0.0,0.0,0.0,0.0,0.0,0.0,0.0,0.0,0.0,0.0,0.0,0.0,0.0,0.0,0.0,0.0,0.0,0.0,0.0,2.0949,2.1866,2.7447,3.0466,3.0656,3.0604,3.0621,3.0723,3.0723,2.8278,0.0,0.0,0.0,0.0,0.0,0.0,0.0,0.0,0.0,0.0,0.0,0.0,0.0,0.0,0.0,0.0,0.0,0.0,0.0,0.0,0.0,0.0,0.0,0.0,0.0,0.0,0.0,0.0,0.0,0.0,0.0,0.0,0.0,0.0,0.0,0.0,0.0,0.0,0.0,0.0,0.0,1.4257,1.4343,1.6593,1.8265,0.0,1.8288,1.8199,1.797,1.8179,1.7558,1.5172,0.0,0.0,0.0,0.0,0.0,0.0,0.0,0.0,0.0,0.0,0.0,0.0,0.0,0.0,0.0,0.0,0.0,0.0,0.0,0.0,0.0,0.0,0.0,0.0,0.0,0.0,0.0,0.0,0.0,0.0,0.0,0.0,0.0,0.0,0.0,0.0,0.0,0.0,0.0,0.0,0.0,0.0,0.0,0.0,0.0,0.0,0.0,0.0,0.0,0.0,0.0,0.0,0.0,0.0,2.0794,2.5093,2.8182,2.9724,2.9283,2.9504,3.0671,3.0723,0.0,0.0,0.0,0.0,0.0,0.0,0.0,0.0,0.0,0.0,0.0,0.0,0.0,0.0,0.0,0.0,0.0,0.0,0.0,0.0,0.0,0.0,0.0,0.0,0.0,0.0,0.0,0.6172,0.0,0.0,0.0,0.0,0.0,0.0,0.0,0.0,0.0,0.0,0.0,0.0,0.0,0.0,1.3683,1.566,1.604,1.6285,0.0,0.0,1.6245,1.6574,1.6934,1.6648,0.0,0.0,0.0,0.0,0.0,0.0,0.0,0.0,0.0,0.0,0.0,0.0,0.0,0.0,0.0,0.0,0.0,0.0,0.0,0.0,0.0,0.0,0.0,0.0,0.0,0.0,0.0,0.0,0.0,0.0,0.0,0.0,0.0,0.0,0.0,0.0,0.0,0.0,0.0,0.0,0.0,0.0,0.0,0.0,0.0,0.0,0.0,0.0,0.0,0.0,0.0,0.0,0.0,0.0,1.8224,2.0568,2.3477,2.619,2.848,2.7973,2.8003,2.8741,2.9553,2.7484,0.0,0.0,0.0,0.0,0.0,0.0,0.0,0.0,0.0,0.0,0.0,0.0,0.0,0.0,0.0,0.0,0.0,0.0,0.0,0.0,0.0,0.0,0.0,0.0,0.0,0.0,0.0,0.0,0.0,0.0,0.0,0.0,0.0,0.0,0.0,0.0,0.0,0.0,0.0,0.0,0.0,0.0,1.4592,1.51,0.0,0.0,0.0,1.5182,1.6033,0.0,0.0,0.0,0.0,0.0,0.0,0.0,0.0,0.0,0.0,0.0,0.0,0.0,0.0,0.0,0.0,0.0,0.0,0.0,0.0,0.0,0.0,0.0,0.0,0.0,0.0,0.0,0.0,0.0,0.0,0.0,0.0,0.0,0.0,0.0,0.0,0.0,0.0,0.0,0.0,0.0,0.0,0.0,0.0,0.0,0.0,0.0,0.0,0.0,0.0,0.0,0.0,0.0,0.0,0.0,0.0,0.0,2.0303,2.2243,2.4586,2.7143,2.6681,2.6437,2.6536,2.7916,2.6318,0.0,0.0,0.0,0.0,0.0,0.0,0.0,0.0,0.0,0.0,0.0,0.0,0.0,0.0,0.0,0.0,0.0,0.0,0.0,0.0,0.0,0.0,0.0,0.0,0.0,0.0,0.0,0.0,0.0,0.0,0.0,0.0,0.0,0.0,0.0,0.0,0.0,0.0,0.0,0.0,0.0,1.3275,1.2691,1.4016,1.4716,0.0,0.0,1.4616,1.574,1.6057,0.0,0.0,0.0,0.0,0.0,0.0,0.0,0.0,0.0,0.0,0.0,0.0,0.0,0.0,0.0,0.0,0.0,0.0,0.0,0.0,0.0,0.0,0.0,0.0,0.0,0.0,0.0,0.0,0.0,0.0,0.0,0.0,0.0,0.0,0.0,0.0,0.0,0.0,0.0,0.0,0.0,0.0,0.0,0.0,0.0,0.0,0.0,0.0,0.0,0.0,0.0,0.0,0.0,0.0,0.0,0.0,1.7742,2.1007,2.4039,2.6575,2.546,2.584,2.8015,2.7436,2.5203,0.0,0.0,0.0,0.0,0.0,0.0,0.0,0.0,0.0,0.0,0.0,0.0,0.0,0.0,0.0,0.0,0.0,0.0,0.0,0.0,0.0,0.0,0.0,0.0,0.0,0.0,0.0,0.0,0.0,0.0,0.0,0.0,0.0,0.0,0.0,0.0,0.0,0.0,0.0,0.0,0.0,1.2242,1.3495,1.3564,0.0,0.0,0.0,0.0,1.4427,1.3772,0.0,0.0,0.0,0.0,0.0,0.0,0.0,0.0,0.0,0.0,0.0,0.0,0.0,0.0,0.0,0.0,0.0,0.0,0.0,0.0,0.0,0.0,0.0,0.0,0.0,0.0,0.0,0.0,0.0,0.0,0.0,0.0,0.0,0.0,0.0,0.0,0.0,0.0,0.0,0.0,0.0,0.0,0.0,0.0,0.0,0.0,0.0,0.0,0.0,0.0,0.0,0.0,0.0,0.0,0.0,0.0,1.7778,1.946,2.1491,2.387,2.2979,2.3267,2.4956,2.553,2.387,0.0,0.0,0.0,0.0,0.0,0.0,0.0,0.0,0.0,0.0,0.0,0.0,0.0,0.0,0.0,0.0,0.0,0.0,0.0,0.0,0.0,0.0,0.0,0.0,0.0,0.0,0.0,0.0,0.0,0.0,0.0,0.0,0.0,0.0,0.0,0.0,0.0,0.0,0.0,0.0,1.1215,1.1922,1.3155,0.0,0.0,0.0,0.0,0.0,0.0,1.2999,1.2255,0.0,0.0,0.0,0.0,0.0,0.0,0.0,0.0,0.0,0.0,0.0,0.0,0.0,0.0,0.0,0.0,0.0,0.0,0.0,0.0,0.0,0.0,0.0,0.0,0.0,0.0,0.0,0.0,0.0,0.0,0.0,0.0,0.0,0.0,0.0,0.0,0.0,0.0,0.0,0.0,0.0,0.0,0.0,0.0,0.0,0.0,0.0,0.0,0.0,0.0,0.0,0.0,0.0,0.0,0.0,1.8058,1.837,1.9457,2.1282,2.096,2.112,2.1882,2.341,2.2244,1.8212,0.0,0.0,0.0,0.0,0.0,0.0,0.0,0.0,0.0,0.0,0.0,0.0,0.0,0.0,0.0,0.0,0.0,0.0,0.0,0.0,0.0,0.0,0.0,0.0,0.0,0.0,0.0,0.0,0.0,0.0,0.0,0.0,0.0,0.0,0.0,0.0,0.0,0.0,0.0,1.052,1.1537,0.0,0.0,0.0,0.0,0.0,0.0,0.0,0.0,1.1948,0.0,0.0,0.0,0.0,0.0,0.0,0.0,0.0,0.0,0.0,0.0,0.0,0.0,0.0,0.0,0.0,0.0,0.0,0.0,0.0,0.0,0.0,0.0,0.0,0.0,0.0,0.0,0.0,0.0,0.0,0.0,0.0,0.0,0.0,0.0,0.0,0.0,0.0,0.0,0.0,0.0,0.0,0.0,0.0,0.0,0.0,0.0,0.0,0.0,0.0,0.0,0.0,0.0,0.0,0.0,0.0,1.9077,2.1431,2.1995,2.2035,2.2928,2.4703,2.2716,1.973,1.5872,0.0,0.0,0.0,0.0,0.0,0.0,0.0,0.0,0.0,0.0,0.0,0.0,0.0,0.0,0.0,0.0,0.0,0.0,0.0,0.0,0.0,0.0,0.0,0.0,0.0,0.0,0.0,0.0,0.0,0.0,0.0,0.0,0.0,0.0,0.0,0.0,0.0,0.0,0.6853,0.8622,0.0,0.0,0.0,0.0,0.0,0.0,0.0,0.0,1.1506,0.0,0.0,0.0,0.0,0.0,0.0,0.0,0.0,0.0,0.0,0.0,0.0,0.0,0.0,0.0,0.0,0.0,0.0,0.0,0.0,0.0,0.0,0.0,0.0,0.0,0.0,0.0,0.0,0.0,0.0,0.0,0.0,0.0,0.0,0.0,0.0,0.0,0.0,0.0,0.0,0.0,0.0,0.0,0.0,0.0,0.0,0.0,0.0,0.0,0.0,0.0,0.0,0.0,0.0,0.0,0.0,0.0,0.0,1.9986,2.0481,2.0357,2.0762,2.1635,2.0064,1.8168,0.0,0.0,0.0,0.0,0.0,0.0,0.0,0.0,0.0,0.0,0.0,0.0,0.0,0.0,0.0,0.0,0.0,0.0,0.0,0.0,0.0,0.0,0.0,0.0,0.0,0.0,0.0,0.0,0.0,0.0,0.0,0.0,0.0,0.0,0.0,0.0,0.0,0.0,0.0,0.0,0.0,0.0,0.0,0.0,0.0,0.0,0.0,0.0,0.0,0.0,0.0,0.0,0.0,0.0,0.0,0.0,0.0,0.0,0.0,0.0,0.0,0.0,0.0,0.0,0.0,0.0,0.0,0.0,0.0,0.0,0.0,0.0,0.0,0.0,0.0,0.0,0.0,0.0,0.0,0.0,0.0,0.0,0.0,0.0,0.0,0.0,0.0,0.0,0.0,0.0,0.0,0.0,0.0,0.0,0.0,0.0,0.0,0.0,0.0,0.0,0.0,0.0,0.0,0.0,0.0,0.0,0.0,0.0,1.8345,1.9025,1.8953,1.8875,1.8875,1.7954,1.711,0.0,0.0,0.0,0.0,0.0,0.0,0.0,0.0,0.0,0.0,0.0,0.0,0.0,0.0,0.0,0.0,0.0,0.0,0.0,0.0,0.0,0.0,0.0,0.0,0.0,0.0,0.0,0.0,0.0,0.0,0.0,0.0,0.0,0.0,0.0,0.0,0.0,0.0,0.0,0.0,0.0,0.0,0.0,0.0,0.0,0.0,0.0,0.0,1.0643,0.0,0.0,0.0,0.0,0.0,0.0,0.0,0.0,0.0,0.0,0.0,0.0,0.0,0.0,0.0,0.0,0.0,0.0,0.0,0.0,0.0,0.0,0.0,0.0,0.0,0.0,0.0,0.0,0.0,0.0,0.0,0.0,0.0,0.0,0.0,0.0,0.0,0.0,0.0,0.0,0.0,0.0,0.0,0.0,0.0,0.0,0.0,0.0,0.0,0.0,0.0,0.0,0.0,0.0,0.0,0.0,0.0,0.0,0.0,1.8631,1.9041,1.9836,2.0196,2.0142,1.8423,1.656,0.0,0.0,0.0,0.0,0.0,0.0,0.0,0.0,0.0,0.0,0.0,0.0,0.0,0.0,0.0,0.0,0.0,0.0,0.0,0.0,0.0,0.0,0.0,0.0,0.0,0.0,0.0,0.0,0.0,0.0,0.0,0.0,0.0,0.0,0.0,0.0,0.0,0.0,0.0,0.0,0.0,0.0,0.0,0.0,0.0,0.0,0.0,0.0,0.0,0.0,0.0,0.0,0.0,0.0,0.0,0.0,0.0,0.0,0.0,0.0,0.0,0.0,0.0,0.0,0.0,0.0,0.0,0.0,0.0,0.0,0.0,0.0,0.0,0.0,0.0,0.0,0.0,0.0,0.0,0.0,0.0,0.0,0.0,0.0,0.0,0.0,0.0,0.0,0.0,0.0,0.0,0.0,0.0,0.0,0.0,0.0,0.0,0.0,0.0,0.0,0.0,0.0,0.0,0.0,0.0,0.0,0.0,0.0,1.6839,1.7694,1.876,1.8858,1.7946,1.6612,1.5172,0.0,0.0,0.0,0.0,0.0,0.0,0.0,0.0,0.0,0.0,0.0,0.0,0.0,0.0,0.0,0.0,0.0,0.0,0.0,0.0,0.0,0.0,0.0,0.0,0.0,0.0,0.0,0.0,0.0,0.0,0.0,0.0,0.0,0.0,0.0,0.0,0.0,0.0,0.0,0.0,0.0,0.0,0.0,0.0,0.0,0.0,0.0,0.0,0.0,0.0,0.0,0.0,0.0,0.0,0.0,0.0,0.0,0.0,0.0,0.0,0.0,0.0,0.0,0.0,0.0,0.0,0.0,0.0,0.0,0.0,0.0,0.0,0.0,0.0,0.0,0.0,0.0,0.0,0.0,0.0,0.0,0.0,0.0,0.0,0.0,0.0,0.0,0.0,0.0,0.0,0.0,0.0,0.0,0.0,0.0,0.0,0.0,0.0,0.0,0.0,0.0,0.0,0.0,0.0,0.0,0.0,0.0,0.0,0.0,1.6222,1.7698,1.7705,1.619,1.5268,1.4149,0.0,0.0,0.0,0.0,0.0,0.0,0.0,0.0,0.0,0.0,0.0,0.0,0.0,0.0,0.0,0.0,0.0,0.0,0.0,0.0,0.0,0.0,0.0,0.0,0.0,0.0,0.0,0.0,0.0,0.0,0.0,0.0,0.0,0.0,0.0,0.0,0.0,0.0,0.0,0.0,0.0,0.0,0.0,0.0,0.0,0.0,0.0,0.0,0.0,0.0,0.0,0.0,0.0,0.0,0.0,0.0,0.0,0.0,0.0,0.0,0.0,0.0,0.0,0.0,0.0,0.0,0.0,0.0,0.0,0.0,0.0,0.0,0.0,0.0,0.0,0.0,0.0,0.0,0.0,0.0,0.0,0.0,0.0,0.0,0.0,0.0,0.0,0.0,0.0,0.0,0.0,0.0,0.0,0.0,0.0,0.0,0.0,0.0,0.0,0.0,0.0,0.0,0.0,0.0,0.0,0.0,0.0,0.0,0.0,1.4895,1.7246,1.7643,1.6146,1.522,1.383,0.0,0.0,0.0,0.0,0.0,0.0,0.0,0.0,0.0,0.0,0.0,0.0,0.0,0.0,0.0,0.0,0.0,0.0,0.0,0.0,0.0,0.0,0.0,0.0,0.0,0.0,0.0,0.0,0.0,0.0,0.0,0.0,0.0,0.0,0.0,0.0,0.0,0.0,0.0,0.0,0.0,0.0,0.0,0.0,0.0,0.0,0.0,0.0,0.0,0.0,0.0,0.0,0.0,0.0,0.0,0.0,0.0,0.0,0.0,0.0,0.0,0.0,0.0,0.0,0.0,0.0,0.0,0.0,0.0,0.0,0.0,0.0,0.0,0.0,0.0,0.0,0.0,0.0,0.0,0.0,0.0,0.0,0.0,0.0,0.0,0.0,0.0,0.0,0.0,0.0,0.0,0.0,0.0,0.0,0.0,0.0,0.0,0.0,0.0,0.0,0.0,0.0,0.0,0.0,0.0,0.0,0.0,0.0,0.0,1.1327,1.3693,1.474,1.4062,1.3258,1.259,1.213,0.0,0.0,0.0,0.0,0.0,0.0,0.0,0.0,0.0,0.0,0.0,0.0,0.0,0.0,0.0,0.0,0.0,0.0,0.0,0.0,0.0,0.0,0.0,0.0,0.0,0.0,0.0,0.0,0.0,0.0,0.0,0.0,0.0,0.0,0.0,0.0,0.0,0.0,0.0,0.0,0.0,0.0,0.0,0.0,0.0,0.0,0.0,0.0,0.0,0.0,0.0,0.0,0.0,0.0,0.0,0.0,0.0,0.0,0.0,0.0,0.0,0.0,0.0,0.0,0.0,0.0,0.0,0.0,0.0,0.0,0.0,0.0,0.0,0.0,0.0,0.0,0.0,0.0,0.0,0.0,0.0,0.0,0.0,0.0,0.0,0.0,0.0,0.0,0.0,0.0,0.0,0.0,0.0,0.0,0.0,0.0,0.0,0.0,0.0,0.0,0.0,0.0,0.0,0.0,0.0,0.0,0.0,0.0,0.9824,1.2251,1.3232,1.2536,1.1996,1.1478,0.0,0.0,0.0,0.0,0.0,0.0,0.0,0.0,0.0,0.0,0.0,0.0,0.0,0.0,0.0,0.0,0.0,0.0,0.0,0.0,0.0,0.0,0.0,0.0,0.0,0.0,0.0,0.0,0.0,0.0,0.0,0.0,0.0,0.0,0.0,0.0,0.0,0.0,0.0,0.0,0.0,0.0,0.0,0.0,0.0,0.0,0.0,0.0,0.0,0.0,0.0,0.0,0.0,0.0,0.0,0.0,0.0,0.0,0.0,0.0,0.0,0.0,0.0,0.0,0.0,0.0,0.0,0.0,0.0,0.0,0.0,0.0,0.0,0.0,0.0,0.0,0.0,0.0,0.0,0.0,0.0,0.0,0.0,0.0,0.0,0.0,0.0,0.0,0.0,0.0,0.0,0.0,0.0,0.0,0.0,0.0,0.0,0.0,0.0,0.0,0.0,0.0,0.0,0.0,0.0,0.0,0.0,0.0,0.8332,1.1283,1.3456,1.362,1.1958,1.1801,1.0482,0.0,0.0,0.0,0.0,0.0,0.0,0.0,0.0,0.0,0.0,0.0,0.0,0.0,0.0,0.0,0.0,0.0,0.0,0.0,0.0,0.0,0.0,0.0,0.0,0.0,0.0,0.0,0.0,0.0,0.0,0.0,0.0,0.0,0.0,0.0,0.0,0.0,0.0,0.0,0.0,0.0,0.0,0.0,0.0,0.0,0.0,0.0,0.0,0.0,0.0,0.0,0.0,0.0,0.0,0.0,0.0,0.0,0.0,0.0,0.0,0.0,0.0,0.0,0.0,0.0,0.0,0.0,0.0,0.0,0.0,0.0,0.0,0.0,0.0,0.0,0.0,0.0,0.0,0.0,0.0,0.0,0.0,0.0,0.0,0.0,0.0,0.0,0.0,0.0,0.0,0.0,0.0,0.0,0.0,0.0,0.0,0.0,0.0,0.0,0.0,0.0,0.0,0.0,0.0,0.0,0.0,0.0,0.0,0.0,0.7415,0.0,1.0894,1.1496,1.0737,1.018,0.0,0.0,0.0,0.0,0.0,0.0,0.0,0.0,0.0,0.0,0.0,0.0,0.0,0.0,0.0,0.0,0.0,0.0,0.0,0.0,0.0,0.0,0.0,0.0,0.0,0.0,0.0,0.0,0.0,0.0,0.0,0.0,0.0,0.0,0.0,0.0,0.0,0.0,0.0,0.0,0.0,0.0,0.0,0.0,0.0,0.0,0.0,0.0,0.0,0.0,0.0,0.0,0.0,0.0,0.0,0.0,0.0,0.0,0.0,0.0,0.0,0.0,0.0,0.0,0.0,0.0,0.0,0.0,0.0,0.0,0.0,0.0,0.0,0.0,0.0,0.0,0.0,0.0,0.0,0.0,0.0,0.0,0.0,0.0,0.0,0.0,0.0,0.0,0.0,0.0,0.0,0.0,0.0,0.0,0.0,0.0,0.0,0.0,0.0,0.0,0.0,0.0,0.0,0.0,0.0,0.0,0.0,0.0,0.0,0.6956,0.7769,0.8965,1.0464,1.0105,0.9801,0.0,0.0,0.0,0.0,0.0,0.0,0.0,0.0,0.0,0.0,0.0,0.0,0.0,0.0,0.0,0.0,0.0,0.0,0.0,0.0,0.0,0.0,0.0,0.0,0.0,0.0,0.0,0.0,0.0,0.0,0.0,0.0,0.0,0.0,0.0,0.0,0.0,0.0,0.0,0.0,0.0,0.0,0.0,0.0,0.0,0.0,0.0,0.0,0.0,0.0,0.0,0.0,0.0,0.0,0.0,0.0,0.0,0.0,0.0,0.0,0.0,0.0,0.0,0.0,0.0,0.0,0.0,0.0,0.0,0.0,0.0,0.0,0.0,0.0,0.0,0.0,0.0,0.0,0.0,0.0,0.0,0.0,0.0,0.0,0.0,0.0,0.0,0.0,0.0,0.0,0.0,0.0,0.0,0.0,0.0,0.0,0.0,0.0,0.0,0.0,0.0,0.0,0.0,0.0,0.0,0.0,0.0,0.0,0.0,0.9332,0.827,0.8076,0.8964,0.9787,0.9438,0.0,0.0,0.0,0.0,0.0,0.0,0.0,0.0,0.0,0.0,0.0,0.0,0.0,0.0,0.0,0.0,0.0,0.0,0.0,0.0,0.0,0.0,0.0,0.0,0.0,0.0,0.0,0.0,0.0,0.0,0.0,0.0,0.0,0.0,0.0,0.0,0.0,0.0,0.0,0.0,0.0,0.0,0.0,0.0,0.0,0.0,0.0,0.0,0.0,0.0,0.0,0.0,0.0,0.0,0.0,0.0,0.0,0.0,0.0,0.0,0.0,0.0,0.0,0.0,0.0,0.0,0.0,0.0,0.0,0.0,0.0,0.0,0.0,0.0,0.0,0.0,0.0,0.0,0.0,0.0,0.0,0.0,0.0,0.0,0.0,0.0,0.0,0.0,0.0,0.0,0.0,0.0,0.0,0.0,0.0,0.0,0.0,0.0,0.0,0.0,0.0,0.0,0.0,0.0,0.0,0.0,0.0,0.0,0.0,0.0,0.7821,0.8401,0.8922,0.9174,0.8947,0.8146,0.0,0.0,0.0,0.0,0.0,0.0,0.0,0.0,0.0,0.0,0.0,0.0,0.0,0.0,0.0,0.0,0.0,0.0,0.0,0.0,0.0,0.0,0.0,0.0,0.0,0.0,0.0,0.0,0.0,0.0,0.0,0.0,0.0,0.0,0.0,0.0,0.0,0.0,0.0,0.0,0.0,0.0,0.0,0.0,0.0,0.0,0.0,0.0,0.0,0.0,0.0,0.0,0.0,0.0,0.0,0.0,0.0,0.0,0.0,0.0,0.0,0.0,0.0,0.0,0.0,0.0,0.0,0.0,0.0,0.0,0.0,0.0,0.0,0.0,0.0,0.0,0.0,0.0,0.0,0.0,0.0,0.0,0.0,0.0,0.0,0.0,0.0,0.0,0.0,0.0,0.0,0.0,0.0,0.0,0.0,0.0,0.0,0.0,0.0,0.0,0.0,0.0,0.0,0.0,0.0,0.0,0.0,0.0,0.0,0.0,0.8209,0.9247,0.8899,0.8658,0.0,0.0,0.0,0.0,0.0,0.0,0.0,0.0,0.0,0.0,0.0,0.0,0.0,0.0,0.0,0.0,0.0,0.0,0.0,0.0,0.0,0.0,0.0,0.0,0.0,0.0,0.0,0.0,0.0,0.0,0.0,0.0,0.0,0.0,0.0,0.0,0.0,0.0,0.0,0.0,0.0,0.0,0.0,0.0,0.0,0.0,0.0,0.0,0.0,0.0,0.0,0.0,0.0,0.0,0.0,0.0,0.0,0.0,0.0,0.0,0.0,0.0,0.0,0.0,0.0,0.0,0.0,0.0,0.0,0.0,0.0,0.0,0.0,0.0,0.0,0.0,0.0,0.0,0.0,0.0,0.0,0.0,0.0,0.0,0.0,0.0,0.0,0.0,0.0,0.0,0.0,0.0,0.0,0.0,0.0,0.0,0.0,0.0,0.0,0.0,0.0,0.0,0.0,0.0,0.0,0.0,0.0,0.0,0.0,0.0,0.0,0.7832,0.9531,0.8805,0.0,0.8817,0.0,0.0,0.0,0.0,0.0,0.0,0.0,0.0,0.0,0.0,0.0,0.0,0.0,0.0,0.0,0.0,0.0,0.0,0.0,0.0,0.0,0.0,0.0,0.0,0.0,0.0,0.0,0.0,0.0,0.0,0.0,0.0,0.0,0.0,0.0,0.0,0.0,0.0,0.0,0.0,0.0,0.0,0.0,0.0,0.0,0.0,0.0,0.0,0.0,0.0,0.0,0.0,0.0,0.0,0.0,0.0,0.0,0.0,0.0,0.0,0.0,0.0,0.0,0.0,0.0,0.0,0.0,0.0,0.0,0.0,0.0,0.0,0.0,0.0,0.0,0.0,0.0,0.0,0.0,0.0,0.0,0.0,0.0,0.0,0.0,0.0,0.0,0.0,0.0,0.0,0.0,0.0,0.0,0.0,0.0,0.0,0.0,0.0,0.0,0.0,0.0,0.0,0.0,0.0,0.0,0.0,0.0,0.0,0.0,0.0,0.0,0.0,0.8742,0.8513,0.7925,0.0,0.0,0.0,0.0,0.0,0.0,0.0,0.0,0.0,0.0,0.0,0.0,0.0,0.0,0.0,0.0,0.0,0.0,0.0,0.0,0.0,0.0,0.0,0.0,0.0,0.0,0.0,0.0,0.0,0.0,0.0,0.0,0.0,0.0,0.0,0.0,0.0,0.0,0.0,0.0,0.0,0.0,0.0,0.0,0.0,0.0,0.0,0.0,0.0,0.0,0.0,0.0,0.0,0.0,0.0,0.0,0.0,0.0,0.0,0.0,0.0,0.0,0.0,0.0,0.0,0.0,0.0,0.0,0.0,0.0,0.0,0.0,0.0,0.0,0.0,0.0,0.0,0.0,0.0,0.0,0.0,0.0,0.0,0.0,0.0,0.0,0.0,0.0,0.0,0.0,0.0,0.0,0.0,0.0,0.0,0.0,0.0,0.0,0.0,0.0,0.0,0.0,0.0,0.0,0.0,0.0,0.0,0.0,0.0,0.0,0.8765,0.8372,0.8725,0.8515,0.7654,0.0,0.0,0.0,0.0,0.0,0.0,0.0,0.0,0.0,0.0,0.0,0.0,0.0,0.0,0.0,0.0,0.0,0.0,0.0,0.0,0.0,0.0,0.0,0.0,0.0,0.0,0.0,0.0,0.0,0.0,0.0,0.0,0.0,0.0,0.0,0.0,0.0,0.0,0.0,0.0,0.0,0.0,0.0,0.0,0.0,0.0,0.0,0.0,0.0,0.0,0.0,0.0,0.0,0.0,0.0,0.0,0.0,0.0,0.0,0.0,0.0,0.0,0.0,0.0,0.0,0.0,0.0,0.0,0.0,0.0,0.0,0.0,0.0,0.0,0.0,0.0,0.0,0.0,0.0,0.0,0.0,0.0,0.0,0.0,0.0,0.0,0.0,0.0,0.0,0.0,0.0,0.0,0.0,0.0,0.0,0.0,0.0,0.0,0.0,0.0,0.0,0.0,0.0,0.0,0.0,0.0,0.0,0.0,0.0,0.0,0.0,0.0,0.0,0.0,0.7748,0.0,0.0,0.0,0.0,0.0,0.0,0.0,0.0,0.0,0.0,0.0,0.0,0.0,0.0,0.0,0.0,0.0,0.0,0.0,0.0,0.0,0.0,0.0,0.0,0.0,0.0,0.0,0.0,0.0,0.0,0.0,0.0,0.0,0.0,0.0,0.0,0.0,0.0,0.0,0.0,0.0,0.0,0.0,0.0,0.0,0.0,0.0,0.0,0.0,0.0,0.0,0.0,0.0,0.0,0.0,0.0,0.0,0.0,0.0,0.0,0.0,0.0,0.0,0.0,0.0,0.0,0.0,0.0,0.0,0.0,0.0,0.0,0.0,0.0,0.0,0.0,0.0,0.0,0.0,0.0,0.0,0.0,0.0,0.0,0.0,0.0,0.0,0.0,0.0,0.0,0.0,0.0,0.0,0.0,0.0,0.0,0.0,0.0,0.0,0.0,0.0,0.0,0.0,0.0,0.0,0.0,0.0,0.0,0.0,0.0,0.0,0.0,0.0,0.0,0.0,0.0,0.0,0.0,0.0,0.0,0.0,0.0,0.0,0.0,0.0,0.0,0.0,0.0,0.0,0.0,0.0,0.0,0.0,0.0,0.0,0.0,0.0,0.0,0.0,0.0,0.0,0.0,0.0,0.0,0.0,0.0,0.0,0.0,0.0,0.0,0.0,0.0,0.0,0.0,0.0,0.0,0.0,0.0,0.0,0.0,0.0,0.0,0.0,0.0,0.0,0.0,0.0,0.0,0.0,0.0,0.0,0.0,0.0,0.0,0.0,0.0,0.0,0.0,0.0,0.0,0.0,0.0,0.0,0.0,0.0,0.0,0.0,0.0,0.0,0.0,0.0,0.0,0.0,0.0,0.0,0.0,0.0,0.0,0.0,0.0,0.0,0.0,0.0,0.0,0.0,0.0,0.0,0.0,0.0,0.0,0.0,0.0,0.0,0.0,0.0,0.0,0.0,0.0,0.0,0.0,0.0,0.0,0.0,0.0,0.0,0.0,0.0,0.0,0.0,0.0,0.0,0.0,0.0,0.0,0.0,0.0,0.0,0.0,0.0,0.0,0.0,0.0,0.0,0.0,0.0,0.0,0.0,0.0,0.0,0.0,0.0,0.0,0.0,0.0,0.0,0.0,0.0,0.0,0.0,0.0,0.0,0.0,0.0,0.0,0.0,0.0,0.0,0.0,0.0,0.0,0.0,0.0,0.0,0.0,0.0,0.0,0.0,0.0,0.0,0.0,0.0,0.0,0.0,0.0,0.0,0.0,0.0,0.0,0.0,0.0,0.0,0.0,0.0,0.0,0.0,0.0,0.0,0.0,0.0,0.0,0.0,0.0,0.0,0.0,0.0,0.0,0.0,0.0,0.0,0.0,0.0,0.0,0.0,0.0,0.0,0.0,0.0,0.0,0.0,0.0,0.0,0.0,0.0,0.0,0.0,0.0,0.0,0.0,0.0,0.0,0.0,0.0,0.0,0.0,0.0,0.0,0.0,0.0,0.0,0.0,0.0,0.0,0.0,0.0,0.0,0.0,0.0,0.0,0.0,0.0,0.0,0.0,0.0,0.0,0.0,0.0,0.0,0.0,0.0,0.0,0.0,0.0,0.0,0.0,0.0,0.0,0.0,0.0,0.0,0.0,0.0,0.0,0.0,0.0,0.0,0.0,0.0,0.0,0.0,0.0,0.0,0.0,0.0,0.0,0.0,0.0,0.0,0.0,0.0,0.0,0.0,0.0,0.0,0.0,0.0,0.0,0.0,0.0,0.0,0.0,0.0,0.0,0.0,0.0,0.0,0.0,0.0,0.0,0.0,0.0,0.0,0.0,0.0,0.0,0.0,0.0,0.0,0.0,0.0,0.0,0.0,0.0,0.0,0.0,0.0,0.0,0.0,0.0,0.0,0.0,0.0,0.0,0.0,0.0,0.0,0.0,0.0,0.0,0.0,0.0,0.0,0.0,0.0,0.0,0.0,0.0,0.0,0.0,0.0,0.0,0.0,0.0,0.0,0.0,0.0,0.0,0.0,0.0,0.0,0.0,0.0,0.0,0.0,0.0,0.0,0.0,0.0,0.0,0.0,0.0,0.0,0.0,0.0,0.0,0.0,0.0,0.0,0.0,0.0,0.0,0.0,0.0,0.0,0.0,0.0,0.0,0.0,0.0,0.0,0.0,0.0,0.0,0.0,0.0,0.0,0.0,0.0,0.0,0.0,0.0,0.0,0.0,0.0,0.0,0.0,0.0,0.0,0.0,0.0,0.0,0.0,0.0,0.0,0.0,0.0,0.0,0.0,0.0,0.0,0.0,0.0,0.0,0.0,0.0,0.0,0.0,0.0,0.0,0.0,0.0,0.0,0.0,0.0,0.0,0.0,0.0,0.0,0.0,0.0,0.0,0.0,0.0,0.0,0.0,0.0,0.0,0.0,0.0,0.0,0.0,0.0,0.0,0.0,0.0,0.0,0.0,0.0,0.0,0.0,0.0,0.0,0.0,0.0,0.0,0.0,0.0,0.0,0.0,0.0,0.0,0.0,0.0,0.0,0.0,0.0,0.0,0.0,0.0,0.0,0.0,0.0,0.0,0.0,0.0,0.0,0.0,0.0,0.0,0.0,0.0,0.0,0.0,0.0,0.0,0.0,0.0,0.0,0.0,0.0,0.0,0.0,0.0,0.0,0.0,0.0,0.0,0.0,0.0,0.0,0.0,0.0,0.0,0.0,0.0,0.0,0.0,0.0,0.0,0.0,0.0,0.0,0.0,0.0,0.0,0.0,0.0,0.0,0.0,0.0,0.0,0.0,0.0,0.0,0.0,0.0,0.0,0.0,0.0,0.0,0.0,0.0,0.0,0.0,0.0,0.0,0.0,0.0,0.0,0.0,0.0,0.0,0.0,0.0,0.0,0.0,0.0,0.0,0.0,0.0,0.0,0.0,0.0,0.0,0.0,0.0,0.0,0.0,0.0,0.0,0.0,0.0,0.0,0.0,0.0,0.0,0.0,0.0,0.0,0.0,0.0,0.0,0.0,0.0,0.0,0.0,0.0,0.0,0.0,0.0,0.0,0.0,0.0,0.0,0.0,0.0,0.0,0.0,0.0,0.0,0.0,0.0,0.0,0.0,0.0,0.0,0.0,0.0,0.0,0.0,0.0,0.0,0.0,0.0,0.0,0.0,0.0,0.0,0.0,0.0,0.0,0.0,0.0,0.0,0.0,0.0,0.0,0.0,0.0,0.0,0.0,0.0,0.0,0.0,0.0,0.0,0.0,0.0,0.0,0.0,0.0,0.0,0.0,0.0,0.0,0.0,0.0,0.0,0.0,0.0,0.0,0.0,0.0,0.0,0.0,0.0,0.0,0.0,0.0,0.0,0.0,0.0,0.0,0.0,0.0,0.0,0.0,0.0,0.0,0.0,0.0,0.0,0.0,0.0,0.0,0.0,0.0,0.0,0.0,0.0,0.0,0.0,0.0,0.0,0.0,0.0,0.0,0.0,0.0,0.0,0.0,0.0,0.0,0.0,0.0,0.0,0.0,0.0,0.0,0.0,0.0,0.0,0.0,0.0,0.0,0.0,0.0,0.0,0.0,0.0,0.0,0.0,0.0,0.0,0.0,0.0,0.0,0.0,0.0,0.0,0.0,0.0,0.0,0.0,0.0,0.0,0.0,0.0,0.0,0.0,0.0,0.0,0.0,0.0,0.0,0.0,0.0,0.0,0.0,0.0,0.0,0.0,0.0,0.0,0.0,0.0,0.0,0.0,0.0,0.0,0.0,0.0,0.0,0.0,0.0,0.0,0.0,0.0,0.0,0.0,0.0,0.0,0.0,0.0,0.0,0.0,0.0,0.0,0.0,0.0,0.0,0.0,0.0,0.0,0.0,0.0,0.0,0.0,0.0,0.0,0.0,0.0,0.0,0.0,0.0,0.0,0.0,0.0,0.0,0.0,0.0,0.0,0.0,0.0,0.0,0.0,0.0,0.0,0.0,0.0,0.0,0.0,0.0,0.0,0.0,0.0,0.0,0.0,0.0,0.0,0.0,0.0,0.0,0.0,0.0,0.0,0.0,0.0,0.0,0.0,0.0,0.0,0.0,0.0,0.0,0.0,0.0,0.0,0.0,0.0,0.0,0.0,0.0,0.0,0.0,0.0,0.0,0.0,0.0,0.0,0.0,0.0,0.0,0.0,0.0,0.0,0.0,0.0,0.0,0.0,0.0,0.0,0.0,0.0,0.0,0.0,0.0,0.0,0.0,0.0,0.0,0.0,0.0,0.0,0.0,0.0,0.0,0.0,0.0,0.0,0.0,0.0,0.0,0.0,0.0,0.0,0.0,0.0,0.0,0.0,0.0,0.0,0.0,0.0,0.0,0.0,0.0,0.0,0.0]}]]]